GFSGBSN_prec_cloud_003.txt.gz
Cloud_Cover
84 100 100 100 100 100 100 100 100 100 76 14 0 0 0 2 0 0 0 0 0 3 18 12 59 89 3 0 0 0 0 0 0 0 0 0 0 0 1 5 5 5 1 5 2 2 0
9 100 100 100 100 100 100 100 100 73 94 36 0 0 0 0 0 0 0 0 10 13 12 24 100 99 2 0 0 0 0 0 0 0 0 0 0 0 1 5 4 5 3 5 2 0 0
16 51 100 100 100 100 40 100 100 10 2 7 7 7 0 0 0 0 0 11 16 19 29 100 100 48 0 0 0 0 0 0 0 0 0 0 0 0 0 0 2 4 4 2 5 0 0
6 60 41 100 100 27 0 95 11 0 5 2 38 18 7 5 0 6 21 59 19 38 100 100 100 28 0 0 0 0 0 0 0 0 0 0 0 0 0 0 0 0 1 0 0 0 0
0 1 69 100 100 1 0 0 0 81 44 1 0 2 0 1 90 100 34 36 45 100 100 100 36 17 0 0 0 0 0 0 0 0 0 0 0 0 0 0 0 0 0 1 0 5 0
0 84 100 100 100 66 4 8 1 91 84 49 0 0 0 0 98 48 49 3 48 80 80 64 17 0 0 0 0 0 0 0 0 0 0 0 0 0 0 0 0 0 0 0 0 0 0
100 0 0 20 42 69 28 72 15 57 67 0 0 0 6 2 61 1 44 0 0 0 0 0 0 0 0 0 0 0 0 0 0 0 0 0 0 0 0 0 0 0 0 0 5 5 5
99 0 7 0 0 0 0 0 0 2 33 0 0 0 0 1 1 0 5 0 0 0 0 0 0 0 0 0 0 0 0 0 0 0 0 0 0 0 0 0 0 0 0 0 5 5 4
91 21 5 14 0 9 0 0 0 0 0 0 0 0 1 52 0 0 0 0 0 0 0 0 0 0 0 0 0 0 0 0 0 0 0 0 0 0 0 0 0 0 0 0 0 5 5
26 0 0 0 0 5 0 0 0 4 2 0 0 0 52 54 0 0 0 0 0 0 0 0 0 0 0 0 0 0 0 0 0 0 0 0 0 3 0 0 0 0 0 0 0 2 0
84 5 0 0 0 0 0 1 5 5 5 58 6 100 84 95 4 0 0 0 0 0 0 0 0 0 0 0 0 0 0 0 0 0 0 0 0 0 0 0 0 0 0 0 3 2 0
35 12 20 5 22 1 17 5 3 6 6 31 100 97 100 100 33 3 3 2 0 0 0 0 0 0 0 0 0 0 0 0 0 0 0 0 0 0 0 0 0 0 0 0 0 0 2
100 100 31 5 15 5 5 0 4 8 5 46 74 30 89 100 100 16 5 2 4 0 0 0 0 0 0 0 0 0 0 0 0 0 0 0 0 0 0 0 0 0 0 0 0 0 0
100 99 28 11 16 43 6 5 5 7 9 10 82 100 99 100 92 98 86 5 5 5 4 0 0 0 0 0 0 0 0 0 0 0 0 0 0 0 0 0 0 0 0 0 0 0 0
100 100 100 76 50 10 89 100 100 100 100 94 100 100 100 100 100 100 6 5 94 6 2 2 0 0 0 0 0 0 0 0 0 0 0 0 0 0 0 0 0 0 0 0 0 0 0
100 100 100 87 100 100 100 100 100 100 100 100 94 99 100 100 100 100 96 64 100 100 15 10 2 0 0 0 0 0 0 0 0 0 0 0 0 0 0 0 0 0 0 0 0 0 1
100 100 100 99 100 100 100 100 100 100 100 100 100 100 100 100 100 100 100 100 100 98 5 5 5 0 0 0 0 0 0 0 0 0 0 0 0 0 0 0 0 0 0 0 0 0 0
100 97 100 100 100 100 100 100 100 100 100 100 100 100 100 100 55 51 100 61 78 100 88 5 5 5 0 0 0 0 0 0 0 0 0 0 0 0 0 0 0 0 0 0 0 0 0
31 100 100 100 100 100 100 100 100 65 100 100 100 100 58 96 100 100 98 100 66 100 100 25 5 5 14 2 0 0 0 0 0 0 0 0 0 0 0 0 0 0 0 0 0 0 0
100 100 100 100 100 97 19 78 95 100 100 100 20 76 99 42 76 100 100 100 100 100 100 86 5 37 80 44 0 0 0 0 0 0 0 0 0 0 0 0 1 0 0 0 0 0 0
100 100 100 99 74 51 67 86 100 99 99 75 70 5 100 100 100 100 100 100 100 100 100 100 98 98 100 48 2 0 0 0 0 0 0 0 0 0 0 0 0 0 0 0 0 0 0
99 5 87 100 100 100 100 100 100 100 100 100 100 100 100 100 100 100 87 96 100 100 100 100 100 100 100 71 5 0 0 0 0 22 5 0 0 4 0 0 0 0 0 0 0 0 0
52 94 98 100 100 100 100 100 100 100 100 100 100 100 100 100 100 100 100 100 100 100 100 100 100 100 100 100 31 5 0 4 0 0 68 5 0 5 0 0 0 0 0 0 0 0 0
33 42 92 41 83 70 98 100 91 100 100 96 100 100 100 94 100 100 100 100 100 100 100 100 100 100 100 100 100 60 2 32 3 0 5 26 39 90 7 0 0 0 0 0 0 0 0
56 53 28 5 49 34 100 100 100 100 100 100 100 100 90 100 100 100 100 100 100 100 100 100 100 100 100 100 62 100 26 38 84 6 2 63 6 34 95 100 0 0 0 0 0 0 0
100 100 66 100 100 82 98 83 82 100 100 100 100 100 100 99 54 100 100 100 100 100 100 100 100 100 100 100 61 93 43 73 85 70 0 70 89 91 100 100 24 0 0 0 0 0 0
100 100 100 100 99 100 73 84 100 100 100 100 100 100 100 100 82 14 20 93 100 100 100 100 100 100 100 100 96 80 38 100 85 100 1 1 73 90 100 100 35 73 0 0 0 0 0
100 99 97 86 100 98 98 100 100 100 100 100 100 100 100 100 100 8 17 98 88 100 100 100 100 100 100 100 100 100 19 100 100 82 9 0 5 100 100 100 100 100 100 36 0 0 0
52 100 95 96 100 100 100 97 98 100 100 100 94 90 100 100 100 13 44 71 100 100 100 100 100 100 100 100 94 74 96 87 100 6 5 0 62 100 53 46 100 95 100 100 69 0 50

GFSGBSN_prec_cloud_006.txt.gz
Cloud_Cover
91 100 100 100 100 100 100 100 100 0 1 2 0 0 0 1 0 2 0 0 0 10 10 25 19 10 0 0 0 0 0 0 0 0 0 0 0 0 0 2 4 0 4 5 5 0 0
14 14 75 79 100 100 98 100 28 14 48 1 1 0 0 0 0 0 0 0 0 7 0 18 58 46 0 0 0 0 0 0 0 0 0 0 0 0 0 5 4 2 0 5 0 0 0
14 20 100 100 100 99 0 92 24 22 100 100 85 0 0 0 0 0 0 1 8 3 16 11 100 1 0 0 0 0 0 0 0 0 0 0 0 0 0 4 5 3 0 2 0 0 0
3 0 100 100 100 99 0 49 99 63 60 5 0 0 0 0 0 0 0 6 10 28 75 99 92 0 0 0 0 0 0 0 0 0 0 0 0 0 0 3 0 4 1 5 0 0 0
90 1 98 83 1 58 4 0 26 100 85 10 0 0 0 0 0 8 3 0 15 100 100 86 3 0 0 0 0 0 0 0 0 0 0 0 0 0 0 0 0 0 4 6 0 0 0
100 31 9 0 0 5 0 0 0 2 12 1 0 0 0 0 0 0 6 0 38 52 33 1 0 0 0 0 0 0 0 0 0 0 0 0 0 0 0 0 0 5 4 5 3 0 0
100 6 0 0 0 0 0 0 0 0 0 0 0 0 0 0 0 0 0 0 0 0 0 0 0 0 0 0 0 0 0 0 0 0 0 0 0 0 0 0 0 5 5 5 5 6 3
98 5 0 0 0 0 0 0 0 0 0 0 0 0 0 0 0 0 3 0 0 0 0 0 0 0 0 0 0 0 0 0 0 0 0 0 0 0 0 0 0 3 5 5 56 5 5
100 86 0 0 0 0 0 0 0 0 0 0 0 0 0 0 0 1 0 0 0 0 0 0 0 0 0 0 0 0 0 0 0 0 0 0 0 0 0 0 0 0 0 5 83 2 5
100 93 78 34 0 0 0 0 0 0 0 0 0 0 0 0 0 3 2 0 0 0 0 0 0 0 0 0 0 0 0 0 0 0 0 0 0 0 0 0 0 0 0 5 6 21 5
100 100 57 14 5 5 5 2 1 1 0 2 0 0 0 0 0 0 5 1 4 0 0 0 0 0 0 0 0 0 0 0 0 0 0 0 0 0 0 0 0 0 0 0 4 5 82
100 100 100 99 5 5 5 4 5 5 5 5 5 5 5 1 0 0 0 0 1 10 20 1 0 0 0 0 0 0 0 0 0 0 0 0 0 0 0 0 0 0 1 4 3 5 8
77 90 100 94 61 13 14 59 77 36 5 5 23 5 37 8 5 3 0 0 0 1 59 28 25 0 0 0 0 0 0 0 0 0 0 0 0 0 0 0 0 0 0 0 2 5 26
100 100 88 66 99 100 100 100 100 53 19 68 5 5 29 98 100 39 0 0 4 3 91 7 81 12 0 0 0 0 0 0 0 0 0 0 0 0 0 0 0 0 0 0 5 5 13
100 100 82 98 97 98 57 78 82 34 89 40 86 100 100 100 100 100 99 9 6 37 5 4 5 52 5 0 0 0 0 0 0 0 0 0 0 0 0 0 0 0 0 0 5 33 36
100 100 100 96 100 100 100 80 59 100 87 100 100 100 100 100 100 100 24 76 97 93 9 5 5 7 52 3 0 0 0 0 0 0 0 0 0 0 0 0 0 0 0 0 1 33 98
100 100 100 92 79 18 6 37 100 98 100 100 100 100 100 100 79 72 87 27 50 100 6 5 65 77 93 41 3 2 0 0 0 0 0 0 0 0 0 0 0 0 0 0 1 4 14
100 57 89 77 40 84 90 73 69 84 89 79 100 100 100 100 100 100 96 10 11 19 5 5 6 100 46 68 5 5 0 0 0 0 0 0 0 0 0 0 0 0 0 0 0 0 4
57 55 58 5 76 15 5 6 6 27 41 100 100 100 100 94 99 62 100 57 56 91 22 6 5 98 99 100 7 5 5 0 0 0 0 0 0 2 0 0 0 0 0 0 0 0 4
81 82 76 82 49 12 20 13 14 64 19 54 18 5 12 68 90 66 63 66 100 100 100 100 5 38 56 100 100 19 30 7 0 0 0 0 0 0 0 0 0 0 0 0 0 0 1
53 5 13 59 94 78 95 95 79 94 100 71 86 100 94 99 100 100 100 97 87 100 100 100 12 86 100 100 100 100 54 7 1 0 0 0 0 4 0 0 2 0 0 0 0 0 1
7 66 15 26 43 43 25 100 56 100 100 99 97 99 100 100 100 100 100 100 100 100 100 100 100 100 100 100 100 100 42 100 5 5 0 0 0 0 5 2 0 0 0 0 0 0 0
20 5 39 93 69 63 6 20 71 100 100 100 84 100 99 97 100 100 100 100 100 100 100 100 100 79 86 100 100 100 80 100 62 1 3 0 2 10 4 48 22 3 0 4 0 0 0
97 99 100 100 100 51 10 5 18 94 100 100 99 95 100 53 100 100 100 100 100 100 100 100 100 100 100 100 100 100 100 100 100 16 4 5 0 49 73 100 85 0 2 0 1 0 0
100 100 61 100 85 34 33 39 74 80 98 100 100 100 100 81 100 100 100 100 100 100 100 100 100 100 100 100 100 100 100 100 100 91 5 1 0 84 85 96 100 2 54 22 0 0 0
22 74 86 100 5 36 100 100 100 100 100 99 100 100 100 64 100 100 100 100 100 100 100 100 100 100 100 100 100 100 100 99 99 100 11 0 0 2 100 94 48 90 29 0 0 0 0
5 56 100 93 93 100 100 100 100 99 100 100 100 100 100 100 100 100 100 100 100 100 100 100 100 100 100 100 100 100 100 100 100 100 100 4 5 2 100 94 80 3 69 84 0 0 0
79 100 100 98 100 100 99 94 94 80 71 79 100 100 100 100 100 100 99 96 100 100 100 100 100 100 100 100 100 100 100 100 100 74 100 34 5 18 100 100 81 4 100 97 0 0 0
100 100 100 100 100 100 96 100 100 14 84 99 100 100 100 100 100 97 100 100 100 100 100 100 100 100 100 100 100 100 100 100 100 100 100 99 44 90 33 5 0 16 100 100 98 1 0

GFSGBSN_prec_cloud_009.txt.gz
Cloud_Cover
4 0 56 32 4 100 2 42 49 1 52 81 2 0 0 0 0 0 0 0 0 0 0 0 0 0 0 0 0 0 0 0 0 0 0 0 0 2 0 4 3 1 14 25 25 5 6
0 2 99 29 58 10 0 17 5 4 51 0 0 0 0 0 0 0 0 0 0 0 0 0 6 6 0 0 0 0 0 0 0 0 0 0 0 0 1 0 4 33 6 4 5 5 3
8 0 100 0 0 0 0 0 0 0 0 4 2 0 0 0 0 0 0 0 0 0 4 16 13 0 0 0 0 0 0 0 0 0 0 0 0 0 0 0 0 2 3 3 4 5 4
94 0 0 0 1 0 0 0 0 0 0 0 0 0 0 0 0 0 0 0 0 7 63 2 22 0 0 0 0 0 0 0 0 0 0 0 0 0 0 0 2 4 0 5 31 4 3
76 2 4 16 5 0 0 0 0 0 0 0 0 0 0 0 0 0 0 0 0 13 8 1 3 0 0 0 0 0 0 0 0 0 0 0 0 0 0 0 0 4 4 9 100 2 3
85 8 1 0 0 0 0 0 0 0 0 0 0 0 0 0 0 0 0 0 0 41 6 0 0 0 0 0 0 0 0 0 0 0 0 0 0 0 0 0 0 5 5 86 80 11 2
59 14 1 0 2 0 0 0 0 0 0 0 0 0 0 0 0 0 0 0 0 0 0 0 0 0 0 0 0 0 0 0 0 0 0 0 0 0 0 0 0 5 100 77 100 53 2
98 100 48 4 0 0 0 0 0 0 0 0 0 0 0 0 0 0 2 0 0 0 0 0 0 0 0 0 0 0 0 0 0 0 0 0 0 0 0 0 0 4 50 89 100 9 57
0 0 4 16 13 0 0 0 0 0 0 0 0 0 0 0 0 0 0 0 0 0 0 0 0 0 0 0 0 0 0 0 0 0 0 0 0 0 0 0 0 0 5 84 100 40 100
7 62 0 36 46 1 0 0 0 0 0 0 0 0 0 0 0 0 0 0 0 0 0 0 0 0 0 0 0 0 0 0 0 0 0 0 0 0 0 0 0 0 4 62 95 96 100
0 40 6 0 0 0 1 1 1 1 4 1 5 0 0 0 0 0 0 0 0 0 0 0 0 0 0 0 0 0 0 0 0 0 0 0 0 0 0 0 0 0 4 5 76 100 100
0 2 4 5 5 5 28 29 16 28 5 4 1 4 5 5 2 0 0 0 0 0 0 0 0 0 0 0 0 0 0 0 0 0 0 0 0 0 0 0 0 0 2 5 14 100 100
51 1 4 5 5 10 96 100 73 60 90 100 100 94 38 11 5 5 4 0 0 0 0 1 5 0 0 0 0 0 0 0 0 0 0 0 0 0 0 0 0 0 0 9 62 100 47
100 29 5 5 15 67 5 5 5 5 5 63 94 5 5 14 5 8 3 0 0 10 28 0 0 0 0 0 0 0 0 0 0 0 0 0 0 0 0 5 0 0 0 0 5 58 95
12 5 5 5 4 3 7 80 100 98 16 6 5 3 5 5 5 3 0 0 6 100 38 43 76 97 3 0 0 0 0 0 0 0 0 0 0 0 0 0 1 0 0 0 5 73 91
0 3 2 4 4 4 6 7 6 48 48 82 100 77 26 9 5 1 0 8 47 100 100 90 35 5 16 50 2 5 0 0 0 0 0 0 0 0 0 0 0 0 3 0 0 17 100
5 5 5 5 5 15 90 81 49 24 5 5 6 24 2 5 5 5 6 43 36 100 100 93 100 35 4 12 34 25 6 0 0 0 0 0 0 0 0 0 1 1 0 0 2 27 11
1 3 5 5 5 5 5 5 5 5 5 5 5 60 5 10 5 5 2 11 75 12 12 68 100 100 99 5 4 3 42 4 0 0 0 0 0 0 0 0 0 0 0 0 0 0 4
5 5 5 5 5 5 5 5 5 5 5 55 5 5 4 4 4 7 9 47 20 20 43 28 95 100 100 57 0 1 5 46 0 0 0 0 0 0 0 0 0 0 0 3 0 2 4
5 5 5 5 5 5 5 5 5 5 64 60 42 3 6 59 12 6 8 92 100 100 95 86 100 100 100 48 5 5 5 87 3 0 5 0 0 0 0 0 0 0 0 0 0 0 0
37 8 5 5 5 5 5 12 25 13 19 98 56 33 93 14 100 100 96 25 100 99 100 100 99 100 100 100 11 25 92 100 46 5 5 0 0 0 0 4 5 4 0 0 0 0 0
5 5 5 73 61 38 49 22 6 92 88 100 76 100 87 62 96 16 100 100 100 100 100 100 100 100 100 100 84 100 100 100 97 5 5 8 0 0 4 2 2 6 10 5 0 0 0
5 5 80 60 87 80 78 76 86 92 29 100 90 49 100 6 93 100 15 100 100 100 100 100 100 100 100 100 100 95 93 100 100 85 5 98 18 5 5 5 72 58 0 0 4 5 1
12 21 5 10 5 9 11 76 100 100 16 96 100 100 92 22 100 97 100 100 99 100 100 100 100 100 100 98 53 31 99 100 92 96 75 65 70 80 71 100 92 1 8 32 6 5 10
5 56 42 64 83 16 79 100 98 100 100 86 90 100 100 44 100 100 100 100 100 70 46 100 100 100 100 100 92 100 100 100 100 100 100 100 100 100 97 86 11 2 38 18 26 4 3
5 5 83 84 100 100 100 100 100 100 100 100 99 100 100 100 68 100 100 100 100 91 100 93 100 100 100 100 100 100 100 100 100 100 71 100 98 79 100 100 88 72 96 20 57 0 0
5 50 5 91 100 100 100 100 97 99 95 34 94 100 100 100 100 49 98 100 100 100 100 100 80 100 100 100 100 100 100 88 100 100 100 100 89 5 68 90 38 86 16 55 15 59 29
51 78 100 100 100 100 100 100 100 100 85 26 57 97 93 100 99 68 100 100 100 99 100 100 100 100 100 100 100 100 100 100 100 100 100 100 99 62 70 100 52 35 11 50 46 5 2
13 6 10 98 100 100 100 100 100 100 98 5 90 68 100 100 68 99 100 100 100 100 100 93 94 100 100 100 100 100 100 100 100 100 100 100 79 99 97 92 48 9 49 5 0 0 2

GFSGBSN_prec_cloud_012.txt.gz
Cloud_Cover
23 58 4 79 3 0 6 0 0 0 0 0 0 0 0 0 0 0 0 0 0 0 0 0 0 8 0 0 0 0 0 0 0 0 0 0 0 0 0 0 1 26 48 96 94 37 2
100 7 27 44 19 2 28 4 0 0 0 0 0 0 0 0 0 0 0 0 0 0 0 0 2 23 0 0 0 0 0 0 0 0 0 0 0 0 0 0 3 60 41 14 5 55 5
100 100 64 68 0 0 0 10 0 0 0 0 0 0 0 0 0 0 0 0 0 0 0 2 28 1 0 0 0 0 0 0 0 0 0 0 0 0 0 0 0 5 66 37 2 3 97
90 84 72 21 41 0 0 0 0 0 0 0 0 0 0 0 0 0 0 0 0 0 0 50 43 0 0 0 0 0 0 0 0 0 0 0 0 0 0 0 0 0 1 9 5 34 9
5 8 4 4 2 0 0 0 0 0 0 0 0 0 0 0 0 0 0 0 0 0 24 5 12 0 0 0 0 0 0 0 0 0 0 0 0 0 0 0 0 0 2 4 93 100 81
7 12 5 4 2 1 0 0 0 0 0 0 0 0 0 0 0 0 0 0 0 23 17 0 0 0 0 0 0 0 0 0 0 0 0 0 0 0 0 0 0 0 3 5 69 58 96
0 0 0 0 0 0 0 0 0 0 0 0 0 0 0 0 0 0 0 0 0 0 0 0 0 0 0 0 0 0 0 0 0 0 0 0 0 0 0 0 0 0 48 12 100 99 100
0 0 0 0 0 0 0 0 0 0 0 0 0 0 0 0 0 0 0 0 0 0 0 0 0 0 0 0 0 0 0 0 0 0 0 0 0 0 0 0 0 0 6 30 100 67 100
0 0 0 0 0 0 0 0 0 0 0 0 0 0 0 0 0 0 0 0 0 0 0 0 0 0 0 0 0 0 0 0 0 0 0 0 0 0 0 0 0 0 0 5 100 94 99
2 0 0 0 0 0 0 0 0 0 0 0 0 0 0 0 0 0 0 0 0 0 0 0 0 0 0 0 0 0 0 0 0 0 0 0 0 0 0 0 0 0 0 7 27 100 12
0 0 0 0 0 0 0 0 0 0 0 0 0 0 6 5 0 0 0 0 0 0 0 0 0 0 0 0 0 0 0 0 0 0 0 0 0 0 0 4 0 0 0 0 5 100 11
0 0 0 0 0 0 0 0 0 0 0 4 5 5 15 27 34 2 4 0 0 0 0 0 0 0 0 0 0 0 0 0 0 0 0 0 0 0 0 4 0 0 0 0 4 78 98
0 0 0 0 0 0 0 0 0 0 1 5 42 50 5 5 5 5 5 5 4 2 6 0 0 0 0 0 0 0 0 0 0 0 0 0 0 0 0 0 0 1 0 0 0 5 6
0 0 0 3 0 0 0 0 5 5 5 5 5 5 5 5 5 5 1 1 7 100 63 0 0 0 0 0 0 0 0 0 0 0 0 0 0 0 0 0 0 1 0 0 0 0 2
0 0 0 0 0 0 0 0 4 5 5 1 0 0 4 5 5 5 2 0 5 82 10 5 0 0 0 0 0 0 0 0 0 0 0 0 0 0 0 0 0 0 0 0 0 2 5
0 0 0 0 0 0 1 3 4 1 0 0 0 0 0 0 0 5 5 5 5 7 2 1 0 0 0 0 0 0 0 0 0 0 0 0 0 0 0 0 0 0 0 0 0 0 0
0 0 0 0 2 11 5 5 66 5 0 0 0 0 0 0 0 0 0 1 0 4 2 0 0 0 0 0 2 2 0 0 0 0 0 0 0 0 0 0 0 0 0 0 0 0 0
4 5 5 5 2 0 5 5 5 5 1 2 5 0 0 52 7 31 5 5 2 0 5 2 0 0 0 0 0 4 1 5 5 5 0 0 0 0 0 0 0 0 0 0 0 0 0
5 5 5 5 5 5 5 5 7 5 5 47 6 4 0 0 4 1 2 3 51 87 42 7 34 0 0 5 0 0 3 3 5 5 7 4 0 0 0 0 0 0 0 0 0 0 0
0 1 1 5 15 5 5 5 34 5 5 54 69 24 0 4 6 55 25 4 5 34 91 100 100 100 4 0 4 0 0 3 94 12 5 76 4 0 0 0 0 0 0 0 0 0 0
0 0 2 5 5 5 5 5 57 43 5 64 58 38 79 15 1 93 100 100 44 10 95 100 100 99 100 48 8 8 4 5 44 44 5 5 1 0 0 0 13 4 2 0 0 0 0
0 5 2 5 5 5 5 92 74 6 5 92 100 45 80 70 12 13 98 100 98 25 100 90 100 100 100 70 93 82 66 97 4 24 6 5 0 0 0 0 0 81 37 5 0 0 0
0 0 0 5 5 5 13 87 100 100 37 98 80 50 99 32 64 91 5 59 100 96 100 95 100 81 100 100 48 5 5 4 0 5 27 5 2 1 0 5 11 82 0 42 63 1 0
3 0 2 0 5 16 77 100 100 100 85 99 87 100 100 99 78 52 99 16 98 51 53 100 100 100 100 100 100 83 19 4 1 3 28 9 49 54 9 93 63 2 4 2 2 4 4
0 0 0 3 5 17 100 100 100 100 100 99 98 100 100 100 22 78 67 73 56 85 19 100 100 77 100 100 100 100 100 100 94 82 100 100 100 100 100 82 7 5 3 85 100 34 3
1 6 14 5 5 57 100 100 100 100 100 100 96 100 100 100 79 75 100 87 100 100 66 100 99 100 100 100 100 100 100 100 100 100 100 100 100 100 100 100 5 74 100 100 26 0 0
5 5 12 5 5 6 48 100 100 100 100 100 100 100 100 100 95 31 23 98 97 89 100 99 100 84 100 100 100 100 100 100 100 100 100 100 100 100 100 97 100 100 100 98 36 0 4
5 5 5 5 5 5 83 79 100 100 100 100 71 99 81 100 86 13 6 59 100 100 100 100 94 50 91 100 100 100 100 100 100 100 100 100 100 100 100 100 100 70 28 96 100 7 5
5 4 5 5 4 5 5 26 10 36 16 84 62 88 100 100 32 27 8 78 100 100 100 100 100 100 100 100 100 100 100 100 100 100 100 100 100 100 100 100 100 100 49 100 48 5 1

GFSGBSN_prec_cloud_015.txt.gz
Cloud_Cover
100 100 95 35 0 0 0 0 0 0 0 0 0 0 0 0 0 0 0 0 0 0 0 0 0 8 0 0 0 0 0 0 0 0 0 0 0 0 0 0 4 1 32 100 74 53 43
98 99 100 72 6 0 0 0 0 0 0 0 0 0 0 0 0 0 0 0 0 0 0 0 2 48 2 0 0 0 0 0 0 0 0 0 0 0 0 0 0 4 37 89 96 100 27
53 26 1 9 0 0 0 0 0 0 0 0 0 0 0 0 0 0 0 0 0 0 0 0 53 13 0 0 0 0 0 0 0 0 0 0 0 0 0 0 0 0 4 6 87 34 99
72 54 15 0 0 0 0 0 0 0 0 0 0 0 0 0 0 0 0 0 0 0 0 1 97 0 0 0 0 0 0 0 0 0 0 0 0 0 0 0 0 0 0 4 63 7 67
12 5 5 5 5 5 4 5 5 3 2 0 0 0 0 0 0 0 0 0 0 0 0 27 18 0 0 0 0 0 0 0 0 0 0 0 0 0 0 0 0 0 0 0 2 84 48
64 86 53 15 5 5 5 5 3 1 0 0 0 0 0 0 0 0 0 0 0 0 10 1 0 0 0 0 0 0 0 0 0 0 0 0 0 0 0 0 0 0 0 0 2 17 11
3 3 1 2 2 0 0 0 0 0 0 0 0 0 0 0 0 0 0 0 0 0 0 0 0 0 0 0 0 0 0 0 0 0 0 0 0 0 0 0 0 0 0 0 2 98 98
1 0 0 0 0 0 0 0 0 0 0 0 0 0 0 0 0 0 0 0 0 0 0 0 0 0 0 0 0 0 0 0 0 0 0 0 0 0 0 0 0 0 0 0 38 100 84
100 11 0 0 0 0 0 0 0 0 0 0 0 0 0 0 0 0 0 0 0 0 0 0 0 0 0 0 0 0 0 0 0 0 0 0 0 0 0 0 0 0 0 0 40 76 37
35 0 0 0 0 0 0 0 0 0 0 0 0 0 0 0 0 0 0 0 0 0 0 2 0 0 0 0 0 0 0 0 0 0 0 0 0 0 0 0 0 0 0 0 3 71 77
0 0 0 0 0 0 0 0 0 0 0 0 0 0 0 0 0 0 0 0 0 0 0 2 1 0 0 0 0 0 0 0 0 0 0 0 0 0 0 0 0 0 0 0 3 86 39
0 0 0 0 0 0 0 0 0 0 0 0 0 0 0 0 0 0 0 1 2 1 13 0 0 9 2 0 0 0 0 0 0 0 0 0 0 0 0 0 0 0 0 0 5 65 84
0 0 0 0 0 0 0 0 0 0 0 0 0 0 0 0 0 0 0 2 4 5 45 5 0 0 0 3 0 0 0 0 0 0 0 0 0 0 0 0 0 0 0 0 0 2 0
0 0 0 0 0 0 0 0 0 0 0 0 0 0 0 0 0 0 0 0 0 13 59 2 0 0 0 0 0 0 0 0 0 0 0 0 0 0 0 0 0 0 0 0 0 0 0
0 0 0 0 0 0 0 0 0 0 0 0 0 0 0 0 0 0 0 0 0 0 0 0 0 0 0 0 0 0 0 0 0 0 0 0 0 0 0 0 0 0 0 0 0 0 0
0 0 0 0 0 0 0 0 2 5 0 0 0 0 0 0 0 0 0 0 0 0 0 0 0 0 0 0 0 0 0 0 0 0 0 0 0 0 0 0 0 0 0 0 0 0 0
0 0 0 0 5 1 0 1 5 5 3 0 0 4 0 0 0 0 0 0 0 0 0 2 0 0 0 0 0 0 0 0 0 0 0 0 0 0 0 0 0 0 0 0 0 0 0
0 0 0 1 3 5 5 5 5 5 1 0 5 11 0 0 0 3 0 0 0 0 0 4 0 0 0 0 0 0 0 5 3 0 0 0 0 1 0 0 0 0 0 0 0 0 0
0 0 0 0 0 0 0 5 5 5 5 4 14 4 0 0 2 1 4 5 6 53 62 8 30 82 5 1 0 0 0 0 4 1 0 0 0 0 0 93 15 4 0 0 0 0 0
0 0 0 0 0 0 0 2 5 5 8 5 17 21 0 0 3 20 19 1 0 2 5 9 12 75 22 3 4 0 0 0 0 0 0 21 0 0 5 19 3 5 0 0 0 0 0
0 0 1 0 0 0 0 0 5 52 90 54 48 73 90 43 5 20 96 94 16 15 3 18 64 99 100 16 5 0 0 0 0 0 1 33 0 0 5 0 0 5 0 5 0 0 0
0 0 0 0 0 3 0 5 5 76 100 96 91 94 7 5 5 5 39 100 100 17 68 3 95 9 100 100 99 100 66 0 0 0 5 5 0 0 0 3 4 0 0 0 0 0 0
0 0 1 20 2 5 0 5 5 100 95 100 97 89 100 100 16 5 4 97 79 100 64 48 100 97 73 100 100 88 60 90 5 4 43 6 0 1 0 5 8 0 0 0 0 0 0
0 0 0 17 21 0 0 5 6 75 98 99 100 100 100 99 100 10 28 18 9 48 61 68 99 54 3 89 98 100 100 100 94 95 100 67 8 0 0 5 55 1 0 0 0 0 4
0 0 2 1 5 4 2 5 5 97 100 100 100 100 100 100 95 22 64 98 63 30 14 3 89 79 39 100 56 100 100 100 100 100 100 100 90 3 4 0 0 0 3 8 5 3 5
0 5 2 0 4 2 4 5 12 31 100 65 99 100 100 100 100 18 26 5 7 26 5 5 10 100 100 91 39 100 100 100 100 100 100 100 100 60 6 3 0 4 33 100 66 0 5
0 0 0 0 0 5 8 5 5 5 46 100 100 100 100 100 100 22 70 61 20 5 19 94 61 35 100 100 14 95 100 100 100 100 100 100 100 100 12 0 0 5 99 100 35 5 5
0 3 4 4 5 5 5 1 5 5 5 27 94 99 91 100 97 8 11 45 6 7 45 54 100 100 100 100 94 100 100 100 100 100 100 100 100 100 90 64 5 76 100 53 5 7 28
4 5 5 5 5 5 5 5 5 5 5 5 5 34 85 100 96 5 2 5 1 59 100 100 100 100 100 100 100 79 100 100 90 100 100 100 100 91 100 100 100 100 100 59 99 97 25

GFSGBSN_prec_cloud_021.txt.gz
Cloud_Cover
0 0 0 0 0 0 0 0 0 0 0 0 0 0 0 0 0 0 0 0 0 0 0 0 0 0 2 0 0 0 0 0 0 0 0 0 0 0 0 0 3 7 80 9 98 100 39
0 2 0 0 2 0 0 0 0 0 0 0 0 0 0 0 0 0 0 0 0 0 0 0 0 1 11 0 0 0 0 0 0 0 0 0 0 0 0 0 5 5 5 4 16 93 38
4 0 1 2 0 0 12 35 19 0 0 0 0 0 0 0 0 0 0 0 0 0 0 13 18 17 0 0 0 0 0 0 0 0 0 0 0 0 0 0 4 0 0 0 1 7 7
100 100 1 0 0 0 0 0 5 0 0 0 0 0 0 0 0 0 0 0 0 0 0 4 17 11 0 0 0 0 0 0 0 0 0 0 0 0 0 0 0 0 0 0 0 1 0
96 42 5 5 5 0 0 0 0 0 0 0 0 0 0 0 0 0 0 0 0 0 0 4 21 9 0 0 0 0 0 0 0 0 0 0 0 0 0 0 0 0 0 0 0 0 0
5 5 5 5 6 5 4 4 5 5 5 5 4 3 0 0 0 0 0 0 0 26 41 5 0 1 0 0 0 0 0 0 0 0 0 0 0 0 0 0 0 0 0 0 1 0 0
5 12 5 5 5 5 98 96 65 5 5 5 2 0 0 0 0 0 0 0 0 0 0 0 0 0 0 0 0 0 0 0 0 0 0 0 0 0 0 0 0 0 0 0 5 4 0
5 33 14 5 7 22 9 5 5 5 5 5 5 0 0 0 0 0 0 0 0 0 0 0 0 0 0 0 0 0 0 0 0 0 0 0 0 0 0 0 0 0 0 0 44 5 0
5 7 5 5 5 5 5 5 2 0 0 1 0 0 0 0 0 0 0 0 0 0 0 0 0 0 0 0 0 0 0 0 0 0 0 0 0 0 0 0 0 0 0 0 3 2 5
0 0 0 0 0 0 0 0 0 0 0 0 0 0 0 4 0 0 0 0 0 0 0 0 0 0 0 0 0 0 0 0 0 0 0 0 0 0 0 0 0 0 0 0 3 12 94
0 0 0 0 0 0 0 0 0 0 0 0 0 0 0 0 7 3 0 0 0 0 0 0 0 0 0 0 0 0 0 0 0 0 0 0 0 0 0 0 0 0 0 0 2 5 70
0 0 0 0 0 0 0 0 0 0 0 0 0 0 0 17 7 0 0 0 0 0 0 2 0 0 0 0 0 0 0 0 0 0 0 0 0 0 0 0 0 0 0 0 0 2 4
0 0 0 0 0 0 0 0 0 0 0 0 0 0 0 0 2 0 0 0 0 0 0 0 0 0 0 0 0 0 0 0 0 0 0 0 0 0 0 0 0 0 0 0 0 0 4
0 0 0 0 0 0 0 0 0 0 0 0 0 0 0 0 0 0 0 0 0 0 0 0 0 0 0 0 0 0 0 0 0 0 0 0 0 0 0 0 0 0 0 0 0 0 0
0 0 0 0 0 0 0 0 0 0 0 0 0 0 0 0 0 0 0 0 0 0 0 0 0 0 0 0 0 0 0 0 0 0 0 0 0 0 0 0 0 0 0 0 0 0 0
0 0 0 0 0 0 0 0 0 0 0 0 32 83 2 0 0 0 0 0 0 0 0 0 0 0 0 0 0 0 0 0 0 0 0 0 0 0 0 0 0 0 0 0 0 0 0
0 0 0 0 0 0 0 0 0 0 0 0 0 3 0 0 0 0 0 0 0 0 0 0 0 0 0 0 0 0 0 0 0 0 0 0 0 0 0 0 0 0 0 0 0 0 0
0 0 0 0 0 0 0 3 4 2 0 5 2 3 0 0 0 2 97 69 4 0 0 0 0 0 0 0 0 0 0 0 0 0 0 0 5 4 0 0 0 0 0 0 0 0 0
0 0 0 0 0 0 1 3 5 5 5 9 28 36 0 0 6 25 84 100 100 98 4 2 1 0 0 0 0 0 0 0 0 0 0 2 34 8 0 0 1 1 3 5 5 0 0
0 0 2 17 31 4 14 5 5 5 5 15 10 63 1 38 18 5 12 92 100 100 57 8 28 13 4 2 2 0 0 0 0 0 0 0 5 7 5 0 2 1 5 0 4 0 9
44 54 0 0 0 1 1 5 5 1 5 6 11 28 64 53 21 8 15 9 91 100 100 94 91 97 6 5 5 5 4 0 0 0 0 0 0 0 1 3 37 99 45 5 5 32 4
0 0 0 0 0 0 5 5 5 4 5 69 99 100 80 100 100 100 86 5 100 100 56 58 100 96 6 5 4 5 4 5 0 0 0 0 0 0 0 4 1 5 6 89 32 100 9
0 0 5 3 4 0 0 0 5 5 10 73 81 90 100 61 100 92 100 40 5 99 100 100 100 79 98 33 5 0 3 5 5 5 1 0 0 0 0 0 0 0 99 100 100 86 100
0 1 5 15 0 5 5 4 5 5 5 38 25 100 100 100 100 100 91 46 84 51 60 89 100 89 47 2 4 1 0 0 62 48 44 4 0 0 0 0 0 8 13 0 0 5 66
0 0 0 0 0 4 38 5 5 5 5 35 11 87 100 100 100 97 90 75 81 25 5 3 54 64 5 9 5 4 4 0 0 86 100 69 54 1 0 0 0 0 1 0 0 4 5
0 0 1 2 5 6 8 18 15 78 97 96 21 13 89 100 94 67 78 16 95 64 5 20 5 3 3 5 7 5 5 4 0 0 86 100 100 87 5 4 0 0 0 0 0 0 0
0 6 34 9 5 54 100 100 100 100 100 100 99 86 94 100 100 96 92 13 64 87 43 42 32 6 5 56 99 58 5 3 4 0 5 100 100 100 45 77 0 1 12 0 0 3 0
100 100 100 100 100 100 100 100 98 95 98 100 95 100 93 90 61 65 34 94 28 100 100 62 28 58 85 90 98 10 7 5 5 0 0 48 100 99 17 99 5 5 12 58 62 18 0
85 97 53 100 100 100 100 100 100 87 100 61 98 100 100 100 62 45 9 5 6 6 98 100 89 8 27 100 100 100 100 90 4 6 0 57 66 97 68 16 5 35 96 100 99 46 36

GFSGBSN_prec_cloud_027.txt.gz
Cloud_Cover
2 13 0 0 0 0 3 7 98 0 0 0 0 0 0 0 0 0 0 0 0 0 7 24 15 63 0 0 0 0 0 0 0 0 0 0 0 0 0 0 4 5 14 5 1 0 0
0 0 0 0 0 0 0 0 5 0 0 0 0 0 0 0 0 0 0 0 0 0 0 24 95 92 3 0 0 0 0 0 0 0 0 0 0 0 0 0 0 4 4 5 3 0 2
1 61 54 8 0 0 0 0 2 0 0 0 0 0 0 0 0 0 0 0 0 0 1 31 100 44 0 0 0 0 0 0 0 0 0 0 0 0 0 0 0 5 0 1 3 3 4
0 100 3 63 86 12 0 0 0 0 0 0 0 0 0 0 0 0 0 0 10 7 17 100 100 10 0 0 0 0 0 0 0 0 0 0 0 0 0 0 0 4 4 0 8 17 9
13 22 76 88 94 0 0 0 0 0 0 0 0 0 0 0 0 0 0 0 96 7 67 94 38 10 0 0 0 0 0 0 0 0 0 0 0 0 0 0 0 0 0 0 2 40 20
16 34 5 62 14 6 0 0 0 0 0 0 0 0 0 0 0 0 0 0 97 51 69 66 0 6 0 0 0 0 0 0 0 0 0 0 0 0 0 0 0 0 0 0 0 1 2
6 6 99 63 83 0 6 0 1 5 5 3 3 1 0 0 0 0 0 0 0 0 0 0 0 0 0 0 0 0 0 0 0 0 0 0 0 0 0 0 0 0 0 0 5 0 0
6 6 4 0 0 0 0 0 0 0 0 0 2 0 0 0 0 0 0 0 0 0 0 0 0 0 0 0 0 0 0 0 0 0 0 0 0 0 0 0 0 0 0 0 1 0 0
9 0 0 0 0 0 0 0 0 0 0 0 0 0 0 0 0 0 0 0 0 0 0 0 0 0 0 0 0 0 0 0 0 0 0 0 0 0 0 0 0 0 0 0 0 0 0
4 0 0 0 0 0 0 0 0 0 0 0 0 0 0 0 0 0 0 0 0 0 0 0 0 0 0 0 0 0 0 0 0 0 0 0 0 0 0 0 0 0 0 0 0 0 0
9 2 41 9 6 0 0 0 0 0 0 0 0 0 0 0 0 0 0 0 0 0 0 0 0 0 0 0 0 0 0 0 0 0 0 0 0 0 0 0 0 0 0 0 0 0 0
15 30 6 0 0 0 0 0 0 0 0 0 0 0 0 0 0 0 0 0 0 0 0 0 0 0 0 0 0 0 0 0 0 0 0 0 0 0 0 0 0 0 0 0 0 0 0
100 97 0 0 0 0 0 0 0 0 0 0 0 0 0 0 0 0 0 0 0 0 0 0 0 0 0 0 0 0 0 0 0 0 0 0 0 0 0 0 0 0 0 0 0 0 0
100 64 4 0 0 0 0 0 0 0 0 0 0 0 0 0 0 0 0 0 0 0 0 0 0 0 0 0 0 0 0 0 0 0 0 0 0 0 0 0 0 0 0 0 0 0 0
100 0 0 0 0 0 0 0 0 0 0 0 0 0 0 0 0 0 0 0 0 3 0 0 0 0 0 0 0 0 0 0 0 0 0 0 0 0 0 0 0 0 0 0 0 0 0
2 0 0 0 0 0 0 0 0 0 0 0 0 0 0 0 0 0 0 0 0 0 0 0 0 0 0 0 0 0 0 0 0 0 0 0 0 0 0 0 0 0 0 0 0 0 0
0 0 0 0 0 0 0 0 0 0 0 0 0 0 0 0 0 0 0 0 0 3 0 0 0 0 0 0 0 0 0 0 0 0 0 0 0 0 0 0 0 0 0 0 0 0 0
0 0 0 0 0 0 0 0 0 0 0 1 0 0 0 0 0 0 3 5 0 0 4 0 2 0 0 0 0 0 0 0 0 0 0 0 0 0 0 0 0 0 0 0 0 0 0
0 0 0 0 0 0 0 0 0 0 0 39 95 22 0 2 15 34 11 3 2 16 10 58 5 4 5 0 0 0 0 0 0 0 0 0 0 0 0 0 0 0 0 0 0 0 0
0 0 0 0 0 0 0 0 0 0 0 0 3 3 2 1 5 90 98 5 9 5 90 70 100 33 5 5 2 1 0 0 0 0 0 0 0 0 0 0 0 0 0 0 0 0 0
0 1 15 0 0 8 43 86 3 1 1 3 5 5 25 5 52 21 54 14 5 58 10 96 100 100 100 24 5 3 4 2 0 0 0 0 0 0 0 0 0 0 0 0 0 17 0
0 0 0 0 0 5 5 5 24 5 36 5 7 54 84 93 36 21 30 20 35 75 60 35 87 100 100 100 66 59 5 4 4 0 0 0 0 0 0 0 0 0 0 0 0 5 3
0 0 4 0 5 6 64 51 28 100 100 44 60 90 100 100 75 87 96 98 86 100 37 75 68 99 100 100 97 95 21 5 3 5 2 0 0 0 0 0 0 0 0 0 0 5 5
0 0 0 6 15 5 64 100 70 100 100 41 58 89 100 91 100 72 87 100 100 100 99 27 25 19 73 96 87 90 72 4 0 0 25 4 2 0 0 0 0 0 0 0 0 3 6
0 0 0 5 21 9 95 100 100 100 100 100 61 100 100 100 99 48 97 100 90 84 94 12 8 10 78 17 83 73 23 4 0 0 0 92 15 4 0 0 0 0 0 0 0 2 55
0 0 0 45 21 25 100 100 100 100 100 100 92 74 100 100 63 52 96 100 86 68 87 5 16 5 5 67 78 57 5 0 0 0 0 1 69 14 4 0 0 0 0 0 0 0 20
0 0 2 13 52 100 100 98 100 100 100 100 100 97 100 100 100 100 97 100 95 76 74 24 5 7 5 30 68 69 5 7 0 0 4 0 5 3 5 0 0 0 0 0 0 5 1
0 2 5 5 97 43 85 97 100 100 100 100 100 100 100 100 100 100 100 100 100 100 100 100 61 38 88 47 89 96 81 69 12 2 4 6 5 5 4 0 0 0 0 0 0 2 0
0 0 0 33 83 97 88 98 100 100 100 100 100 100 100 100 100 100 100 99 100 99 100 100 96 65 100 94 64 99 96 60 52 79 5 4 2 76 5 0 0 0 0 8 35 0 0

GFSGBSN_prec_cloud_030.txt.gz
Cloud_Cover
0 10 0 57 34 0 62 0 0 0 0 0 0 0 0 0 0 0 0 0 0 0 4 10 6 2 0 0 0 0 0 0 0 0 0 0 0 0 0 0 5 5 5 5 4 2 4
26 0 92 15 33 0 0 0 0 0 0 0 0 0 0 0 0 0 0 0 0 0 30 39 26 50 0 0 0 0 0 0 0 0 0 0 0 0 0 0 5 5 5 5 4 0 1
20 60 0 18 0 0 0 0 0 0 0 0 0 0 0 0 0 0 0 0 0 0 56 100 99 2 0 0 0 0 0 0 0 0 0 0 0 0 0 0 0 5 5 4 5 5 5
1 0 29 45 0 0 0 0 0 0 0 0 0 0 0 0 0 0 0 0 0 6 1 100 99 0 0 0 0 0 0 0 0 0 0 0 0 0 0 0 0 0 0 0 5 1 5
6 32 92 6 0 0 0 0 0 0 0 0 0 0 0 0 0 0 0 0 90 12 99 79 11 0 0 0 0 0 0 0 0 0 0 0 0 0 0 0 0 0 0 0 5 2 5
46 5 4 3 0 0 1 2 0 0 0 0 0 0 0 0 0 0 0 0 65 8 1 0 0 0 0 0 0 0 0 0 0 0 0 0 0 0 0 0 0 0 0 2 3 5 6
3 0 2 4 4 2 0 0 0 0 0 0 0 0 0 0 0 0 0 0 0 0 0 0 0 0 0 0 0 0 0 0 0 0 0 0 0 0 0 0 0 0 0 0 0 5 27
0 0 0 0 0 0 0 0 0 0 0 0 0 0 0 0 0 0 0 0 0 0 0 0 0 0 0 0 0 0 0 0 0 0 0 0 0 0 0 0 0 0 0 0 0 5 5
18 0 0 0 0 0 0 0 0 0 0 0 0 0 0 0 0 0 0 0 0 0 0 0 0 0 0 0 0 0 0 0 0 0 0 0 0 0 0 0 0 0 0 0 0 2 0
100 99 0 0 0 0 0 0 0 0 0 0 0 0 0 0 0 0 0 0 0 0 0 0 0 0 0 0 0 0 0 0 0 0 0 0 0 0 0 0 0 0 0 0 0 0 1
100 98 1 0 0 0 0 0 0 0 0 0 0 0 0 0 0 0 0 0 0 0 0 0 0 0 0 0 0 0 0 0 0 0 0 0 0 0 0 0 0 0 0 0 0 0 0
100 89 0 0 0 0 0 0 0 0 0 0 0 0 2 0 0 0 0 0 0 0 0 0 0 0 0 0 0 0 0 0 0 0 0 0 0 0 0 0 0 0 0 0 0 0 0
95 0 0 0 0 0 0 0 0 0 0 0 0 0 0 0 0 0 0 0 0 0 0 0 0 0 0 0 0 0 0 0 0 0 0 0 0 0 0 0 0 0 0 0 0 0 0
0 9 0 0 0 0 0 0 0 0 0 0 0 15 0 0 0 0 0 0 0 0 0 0 0 0 0 0 0 0 0 0 0 0 0 0 0 0 0 0 0 0 0 0 0 0 0
1 0 0 0 0 0 0 0 0 0 0 0 0 0 0 0 0 0 0 0 0 18 38 0 0 0 0 0 0 0 0 0 0 0 0 0 0 0 0 0 0 0 0 0 0 0 0
1 0 0 0 0 0 0 0 0 0 0 0 0 0 0 0 0 0 0 0 24 74 38 0 1 2 0 0 0 0 0 0 0 0 0 0 0 0 0 0 0 0 0 0 0 0 0
1 0 0 0 0 0 0 0 0 0 0 0 0 0 0 0 0 0 0 1 0 5 8 4 86 83 76 66 0 0 0 0 0 0 0 0 0 0 0 0 0 0 0 0 0 0 0
0 0 0 0 0 0 0 0 0 0 0 0 0 0 0 0 3 0 3 2 0 5 95 65 62 97 97 100 54 35 30 0 0 0 0 0 0 0 0 0 0 0 0 0 0 0 0
0 0 0 0 0 0 0 0 0 0 0 0 5 3 3 0 2 5 5 8 5 71 100 94 80 86 97 100 98 95 100 2 0 0 0 0 0 0 0 0 0 0 0 0 3 5 0
0 0 0 0 0 1 0 0 5 0 3 6 7 19 50 27 31 95 85 100 67 100 88 91 36 40 71 80 100 100 100 2 0 0 0 0 0 0 0 0 0 0 0 0 3 0 3
0 0 0 0 0 0 0 0 3 15 98 45 83 90 51 93 74 99 100 99 100 99 95 100 84 100 100 50 100 100 100 52 0 0 0 0 0 0 0 0 0 0 0 0 0 32 9
0 0 0 0 0 0 0 0 5 88 100 100 76 83 88 39 87 100 97 100 100 91 97 75 96 100 100 96 98 100 91 100 97 4 0 0 0 0 0 0 0 0 0 0 0 38 19
2 0 0 0 0 1 5 55 57 100 100 100 99 96 91 56 60 97 100 100 93 87 73 69 100 100 100 100 83 100 77 100 78 6 0 0 0 0 0 0 0 0 0 0 0 5 24
5 0 0 0 0 0 9 100 100 100 100 100 100 100 100 100 99 97 82 100 96 96 98 80 99 100 100 100 98 11 5 5 100 100 15 0 3 0 0 0 0 0 0 0 0 2 7
5 0 0 0 0 4 38 100 100 100 100 100 100 100 100 100 92 100 100 100 100 95 98 69 91 91 55 7 72 35 7 15 0 67 100 62 2 3 1 0 0 0 0 0 0 2 29
3 0 0 0 0 5 3 100 100 100 100 100 100 100 100 100 100 99 100 100 99 100 77 100 100 95 80 93 71 28 100 100 82 82 2 100 85 3 4 0 0 0 0 0 0 2 65
4 0 0 0 0 0 37 100 94 100 100 100 100 100 100 100 100 100 100 96 94 99 100 100 100 100 82 100 100 100 100 90 45 55 100 2 78 5 5 2 0 0 0 0 0 0 6
5 0 0 0 0 4 96 100 100 100 100 100 100 100 100 100 100 100 100 100 100 100 100 100 66 96 98 99 79 100 18 100 72 23 22 89 46 3 2 5 1 0 0 0 0 0 2
2 0 0 0 11 57 100 100 100 100 100 100 100 100 100 100 100 100 100 100 100 100 100 100 99 84 76 92 83 58 55 28 7 24 60 5 38 51 3 0 0 0 0 0 0 0 0

GFSGBSN_prec_cloud_033.txt.gz
Cloud_Cover
2 0 0 0 0 0 0 0 0 0 0 0 0 0 0 0 0 0 0 0 0 0 0 2 17 0 0 0 0 0 0 0 0 0 0 0 0 0 0 5 9 4 80 88 30 2 5
0 0 3 0 0 0 0 0 0 0 0 0 0 0 0 0 0 0 0 0 0 0 0 36 99 5 0 0 0 0 0 0 0 0 0 0 0 0 0 2 14 22 5 54 5 5 4
1 0 0 0 0 0 0 0 0 0 0 0 0 0 0 0 0 0 0 0 0 0 23 56 98 0 0 0 0 0 0 0 0 0 0 0 0 0 0 0 6 78 10 5 5 0 2
0 0 0 0 0 0 0 0 0 0 0 0 0 0 0 0 0 0 0 0 0 0 0 39 45 0 0 0 0 0 0 0 0 0 0 0 0 0 0 0 0 4 6 4 3 5 3
0 0 0 0 0 0 0 0 0 0 0 0 0 0 0 0 0 0 0 0 0 0 3 8 1 0 0 0 0 0 0 0 0 0 0 0 0 0 0 0 0 0 3 1 35 5 3
5 5 5 4 0 0 0 0 0 0 0 0 0 0 0 0 0 0 0 0 0 8 4 0 0 0 0 0 0 0 0 0 0 0 0 0 0 0 0 0 0 0 0 5 16 90 5
0 0 0 0 0 0 0 0 0 0 0 0 0 0 0 0 0 0 0 0 0 0 0 0 0 0 0 0 0 0 0 0 0 0 0 0 0 0 0 0 0 0 0 3 25 94 63
0 0 0 0 0 0 0 0 0 0 0 0 0 0 0 0 0 1 6 0 0 0 0 0 0 0 0 0 0 0 0 0 0 0 0 0 0 0 0 0 0 0 0 3 5 72 89
47 0 0 0 0 0 0 0 0 0 0 0 0 0 0 0 2 0 0 0 0 0 0 0 0 0 0 0 0 0 0 0 0 0 0 0 0 0 0 0 0 0 0 0 3 5 12
88 0 0 0 0 0 0 0 0 0 0 0 0 0 0 0 0 0 0 0 0 0 0 0 0 0 0 0 0 0 0 0 0 0 0 0 0 0 0 0 0 0 0 0 0 5 5
2 0 0 0 0 0 0 0 0 0 0 0 0 0 0 0 0 0 0 0 0 0 0 0 0 0 0 0 0 0 0 0 0 0 0 0 0 0 0 0 0 0 0 0 0 0 5
0 0 0 0 0 0 0 0 0 0 0 0 0 0 1 0 0 0 0 0 0 0 0 0 0 0 0 0 0 0 0 0 0 0 0 0 0 0 0 0 0 0 0 0 0 0 0
2 0 0 0 0 0 0 0 0 0 0 0 0 0 1 0 0 0 0 0 0 0 0 0 0 0 0 0 0 0 0 0 0 0 0 2 0 0 0 0 0 0 0 0 0 0 0
2 0 0 0 0 0 0 0 0 0 0 0 0 1 0 0 0 0 0 0 0 0 4 0 0 0 0 0 0 0 0 0 0 0 0 0 0 0 0 0 0 0 0 0 0 0 0
0 0 0 0 0 0 0 0 0 0 0 0 0 0 0 0 0 0 0 0 45 30 72 11 0 0 0 0 0 0 0 0 0 0 0 0 0 0 0 0 0 0 0 0 0 0 0
0 0 0 0 0 0 0 0 0 0 0 0 0 0 0 0 0 0 0 83 71 90 60 3 2 60 34 54 9 0 0 0 0 0 0 0 1 0 0 0 0 0 0 0 0 0 0
0 0 0 0 0 0 0 0 0 0 0 0 0 1 5 0 0 7 38 99 24 1 1 3 1 38 100 100 100 58 22 7 0 0 0 0 0 0 0 0 0 0 0 0 0 0 0
0 0 0 0 5 0 0 0 0 0 0 25 5 91 5 0 19 92 99 11 10 63 69 97 76 10 99 100 98 100 100 93 0 0 0 0 0 0 0 0 0 0 0 0 0 0 0
1 0 0 86 3 0 0 0 0 1 0 5 89 64 13 7 17 63 100 91 100 100 100 100 100 100 84 100 100 100 100 63 1 0 0 0 0 0 4 0 0 0 0 0 0 0 0
1 0 6 72 0 0 0 0 1 10 80 78 100 99 48 100 100 100 99 100 100 100 100 100 93 86 8 81 100 100 100 100 44 0 0 0 0 0 0 1 0 0 0 0 0 0 0
72 6 41 16 0 0 0 0 4 54 94 100 100 100 98 100 100 91 100 100 97 100 100 100 93 54 87 44 98 100 100 100 80 22 0 0 0 0 1 100 9 0 0 0 0 0 2
71 0 92 1 0 0 0 0 5 100 100 100 100 100 100 100 100 100 100 100 100 100 100 100 100 100 100 100 97 100 100 100 100 91 3 0 0 0 0 79 5 0 0 0 0 0 2
1 27 88 0 0 0 0 100 100 100 100 100 100 100 100 100 100 100 100 100 100 100 87 100 90 100 100 100 100 100 100 99 99 99 77 42 1 47 39 19 47 0 0 0 0 2 5
5 100 62 0 0 0 28 100 100 98 88 100 100 100 100 100 100 100 100 100 95 98 100 100 96 100 100 100 81 5 24 5 46 94 87 45 59 81 48 23 13 0 0 0 0 0 0
100 100 5 0 0 0 41 100 80 100 100 100 100 100 100 99 83 91 100 100 100 99 95 100 98 100 100 100 42 72 8 46 5 100 100 64 77 91 2 1 1 0 0 0 0 0 0
49 96 2 0 0 2 100 88 91 88 100 100 100 100 100 100 100 100 100 89 100 100 75 100 93 100 98 100 89 99 100 90 1 3 100 100 70 81 92 72 78 75 83 0 0 0 5
95 33 0 0 0 77 49 87 100 100 100 100 100 100 100 100 100 100 100 100 96 90 100 98 81 62 100 100 100 100 100 89 96 75 45 100 98 69 98 100 63 99 99 38 1 26 60
100 1 0 0 2 100 100 100 100 100 98 100 100 100 100 100 100 100 100 100 100 100 100 82 58 92 98 97 100 100 99 100 96 100 100 100 83 65 86 97 76 81 79 96 78 5 0
75 5 14 5 92 100 100 100 100 100 100 100 100 100 100 100 100 100 100 100 100 100 100 100 99 92 96 100 71 100 100 100 100 99 40 73 100 100 96 78 5 5 76 39 74 5 0

GFSGBSN_prec_cloud_036.txt.gz
Cloud_Cover
0 0 0 0 0 0 0 0 0 0 0 0 0 0 0 0 0 0 0 0 0 0 0 21 19 28 1 0 0 0 0 0 0 0 0 0 0 0 0 0 9 62 48 81 100 95 19
0 0 0 0 0 0 0 0 0 0 0 0 0 0 0 0 0 0 0 0 0 0 13 92 71 70 0 0 0 0 0 0 0 0 0 0 0 0 0 0 27 82 89 100 100 99 18
0 0 0 0 0 0 0 0 0 0 0 0 0 0 0 0 0 0 0 0 0 0 14 28 99 16 0 0 0 0 0 0 0 0 0 0 0 0 0 0 4 83 100 7 98 16 73
0 0 0 0 0 0 0 0 0 0 0 0 0 0 0 0 0 0 0 0 0 0 0 0 100 0 0 0 0 0 0 0 0 0 0 0 0 0 0 0 37 25 95 55 50 70 5
0 0 0 0 0 0 0 0 0 0 0 0 0 0 0 0 0 0 0 0 0 0 0 15 15 0 0 0 0 0 0 0 0 0 0 0 0 0 0 0 2 5 4 2 88 6 15
0 0 0 2 0 0 0 0 0 0 0 0 0 0 0 0 0 0 0 0 0 30 2 0 0 0 0 0 0 0 0 0 0 0 0 0 0 0 0 0 0 5 1 5 34 37 5
0 0 0 0 0 0 0 0 0 0 0 0 0 0 0 0 0 0 0 0 0 0 0 0 0 0 0 0 0 0 0 0 0 0 0 0 0 0 0 0 1 4 1 0 36 24 60
0 0 0 0 0 0 0 0 0 0 0 0 0 0 0 0 0 0 0 0 0 0 0 0 0 0 0 0 0 0 0 0 0 0 0 0 0 0 0 0 0 0 2 3 3 98 68
0 0 0 0 0 0 0 0 0 0 0 0 0 0 0 0 0 0 0 0 0 0 0 0 0 0 0 0 0 0 0 0 0 0 0 0 0 0 0 0 0 0 0 0 5 84 100
0 0 0 0 0 0 0 0 0 0 0 0 0 0 0 0 0 0 0 0 0 0 0 0 0 0 0 0 0 0 0 0 0 0 0 0 0 0 0 0 0 0 0 0 5 51 92
0 0 0 0 0 0 0 0 0 0 0 0 0 0 0 0 0 0 0 0 0 0 0 0 0 0 0 0 0 0 0 0 0 0 0 0 0 0 0 0 0 0 0 0 0 82 72
0 0 0 0 0 0 0 0 0 0 0 0 0 0 0 0 0 0 0 0 0 0 0 0 0 0 0 0 0 0 0 0 0 0 0 0 0 0 0 0 0 0 0 0 0 1 0
2 5 2 0 0 0 0 0 0 0 0 0 0 0 0 0 0 0 0 0 0 0 0 8 0 0 0 0 0 0 0 0 0 0 0 0 0 0 0 0 0 0 0 0 0 0 0
0 0 0 0 0 0 0 0 0 0 0 0 0 0 0 0 0 0 0 0 0 0 61 0 0 0 0 0 0 0 0 0 0 0 0 0 0 0 0 0 0 0 0 0 0 0 0
0 0 0 0 0 0 0 0 0 0 0 0 0 0 0 0 0 0 0 0 4 0 0 0 4 100 91 98 0 7 0 0 0 0 0 0 0 0 0 0 0 0 0 0 0 0 0
0 0 0 0 0 0 0 0 0 0 0 0 0 0 6 0 0 1 5 0 33 5 0 0 3 100 100 98 4 5 28 1 5 0 0 0 0 0 0 0 0 0 0 0 0 0 0
0 0 36 4 0 0 0 0 0 0 0 0 12 3 12 6 44 24 60 61 2 34 12 0 2 87 100 100 78 98 88 99 98 94 25 0 0 0 2 0 0 0 0 0 0 0 0
0 2 36 0 0 0 0 0 0 0 25 93 100 99 31 97 100 100 100 10 22 8 13 99 81 51 100 100 100 100 100 100 6 40 44 2 0 0 27 0 0 0 0 0 0 0 0
1 2 0 0 3 5 0 0 3 5 100 97 3 5 97 14 95 100 100 100 76 4 94 28 94 79 100 100 100 100 100 100 38 5 100 83 0 0 13 74 27 0 0 0 0 0 0
5 0 2 14 6 4 0 0 99 58 5 5 45 79 33 60 100 100 100 70 32 13 98 100 53 100 96 100 100 100 100 100 99 63 7 8 0 2 1 0 11 0 0 0 0 0 0
4 6 43 6 87 2 0 30 99 14 21 29 89 100 100 100 98 99 95 100 57 76 100 100 72 19 42 100 100 100 100 100 100 79 4 4 0 15 16 35 100 0 0 0 0 0 0
8 42 76 76 52 5 0 66 17 4 46 68 100 100 100 100 100 100 100 100 100 100 100 46 19 86 100 100 100 100 100 100 100 88 64 18 3 4 5 28 92 82 11 0 0 0 0
94 25 86 96 86 5 0 99 0 5 22 59 96 100 100 100 100 100 100 95 100 100 90 45 91 60 10 99 100 100 100 100 100 100 100 87 82 5 0 5 26 98 63 78 2 0 1
95 100 60 97 5 2 0 1 0 17 31 86 100 100 100 100 100 100 100 100 100 99 89 61 13 76 44 30 89 100 100 100 100 100 100 100 42 47 12 99 100 37 92 3 51 4 0
27 48 100 54 5 0 4 67 84 78 48 88 100 100 100 100 100 100 100 100 100 100 100 96 99 89 100 91 100 100 100 100 86 100 100 100 76 50 17 100 62 78 5 8 5 55 100
48 100 91 1 5 0 83 100 100 100 100 100 100 100 100 100 100 100 100 100 100 100 100 99 51 57 99 82 98 91 100 100 100 100 97 100 100 84 5 85 93 99 97 100 100 6 100
88 99 8 5 0 86 100 100 100 100 100 94 100 100 100 100 100 100 100 100 100 100 100 97 87 26 99 100 88 10 95 100 100 81 94 100 100 69 76 10 100 100 100 99 99 100 72
100 10 13 1 32 100 100 100 100 100 100 100 100 100 100 100 100 100 100 100 100 100 100 100 100 91 87 98 100 96 81 52 13 86 100 93 100 100 96 6 100 50 100 100 100 43 4
99 54 28 85 100 100 100 100 100 100 98 100 100 100 100 100 100 100 100 100 100 100 100 100 100 100 93 99 92 61 100 97 100 93 100 90 67 100 100 55 90 100 100 100 27 100 99

GFSGBSN_prec_cloud_039.txt.gz
Cloud_Cover
0 0 0 0 0 0 0 0 0 0 0 0 0 0 0 0 0 0 0 0 0 0 0 36 100 46 14 0 0 0 0 0 0 0 0 0 0 0 0 0 4 99 86 100 90 98 30
0 0 0 0 0 0 0 0 0 0 0 0 0 0 0 0 0 0 0 0 0 0 0 71 100 98 11 0 0 0 0 0 0 0 0 0 0 0 0 0 0 3 16 100 100 98 98
0 0 0 0 0 0 0 0 0 0 0 0 0 0 0 0 0 0 0 0 0 0 0 32 100 55 0 0 0 0 0 0 0 0 0 0 0 0 0 0 0 2 100 100 98 100 51
0 0 0 0 0 0 0 0 0 0 0 0 0 0 0 0 0 0 0 0 0 0 0 35 100 49 1 0 0 0 0 0 0 0 0 0 0 0 0 0 0 5 100 86 33 99 87
0 0 0 0 0 0 0 0 0 0 0 0 0 0 0 0 0 0 0 0 0 0 0 5 23 0 0 0 0 0 0 0 0 0 0 0 0 0 0 0 0 5 9 42 42 82 86
0 0 0 0 0 0 0 0 0 0 0 0 0 0 0 0 0 0 0 0 0 0 7 0 0 0 0 0 0 0 0 0 0 0 0 0 0 0 0 0 0 0 5 5 5 45 7
0 0 0 0 0 0 0 0 0 0 0 0 0 0 0 0 0 0 0 0 0 0 0 0 0 0 0 0 0 0 0 0 0 0 0 0 0 0 0 0 0 0 4 4 0 48 74
0 0 0 0 0 0 0 0 0 0 0 0 0 0 0 0 0 0 0 0 0 0 0 0 0 0 0 0 0 0 0 0 0 0 0 0 0 0 0 0 0 0 0 1 0 6 99
0 0 0 0 0 0 0 0 0 0 0 0 0 0 0 0 0 0 0 0 0 0 0 0 0 0 0 0 0 0 0 0 0 0 0 0 0 0 0 0 0 0 0 0 0 3 98
0 0 0 0 0 0 0 0 0 0 0 0 0 0 0 0 0 0 0 0 0 0 0 0 0 0 0 0 0 0 0 0 0 0 0 0 0 0 0 0 0 0 0 0 0 7 52
0 0 0 0 0 0 0 0 0 0 0 0 0 0 0 0 0 0 0 0 0 0 0 0 0 0 0 0 0 0 0 0 0 0 0 0 0 0 0 0 0 0 0 0 0 2 22
0 0 0 0 0 0 0 0 0 0 0 0 0 0 0 0 0 0 0 0 0 0 0 0 0 0 0 0 0 0 0 0 0 0 0 0 0 0 0 0 0 0 0 0 0 0 3
0 0 0 0 0 0 0 0 0 0 0 0 0 0 0 0 0 0 0 0 0 0 0 0 0 0 0 0 0 0 0 0 0 0 0 0 0 0 0 0 0 0 0 0 0 0 0
0 0 0 0 0 0 0 0 0 0 0 0 0 0 0 0 0 0 0 0 0 0 0 0 0 65 97 4 0 0 0 0 0 0 0 0 0 0 0 0 0 0 0 0 0 0 0
5 0 0 0 0 0 0 0 0 0 0 0 0 0 0 0 0 0 0 2 7 1 0 0 0 0 100 100 32 1 0 0 0 0 0 0 0 0 0 0 0 0 0 0 0 0 0
0 0 0 0 0 0 0 0 0 0 0 0 0 0 0 18 0 0 0 4 97 100 4 0 0 0 6 100 65 96 8 0 17 4 83 0 3 0 0 0 0 0 0 0 0 0 0
0 0 1 2 0 0 0 5 4 0 0 0 0 5 56 98 8 5 5 100 77 84 64 4 0 0 0 100 100 100 100 97 98 94 47 2 0 0 13 0 0 0 0 0 0 0 0
10 5 2 0 3 2 8 5 0 0 5 0 0 76 100 100 73 8 71 98 60 100 98 28 3 4 3 47 100 100 100 100 100 100 10 56 0 0 0 0 0 0 0 0 0 0 0
100 98 5 0 0 0 97 0 0 0 50 20 0 5 60 97 100 100 26 27 88 14 76 10 2 84 12 76 100 100 100 100 100 100 95 93 1 0 0 2 2 0 0 0 0 0 0
100 85 5 5 0 42 17 2 0 3 2 2 5 5 64 100 100 100 100 20 95 100 4 6 54 91 100 3 100 100 100 100 100 100 100 69 0 0 0 0 0 0 2 0 0 0 0
100 5 5 5 3 5 4 1 0 0 0 2 5 92 64 100 100 100 100 100 76 100 56 10 25 100 15 3 100 100 100 100 100 100 100 72 0 0 0 0 2 9 38 5 0 0 0
77 36 9 16 5 5 46 0 0 0 0 5 5 64 91 100 100 100 100 100 99 100 63 20 12 93 25 28 100 100 100 100 100 100 100 76 44 3 0 3 100 78 67 2 0 0 2
10 55 96 80 12 72 3 0 0 19 20 8 95 86 100 100 100 100 100 100 100 100 100 98 47 81 93 44 94 100 100 100 100 100 100 91 100 3 1 100 36 5 23 97 54 0 0
100 98 100 97 13 88 3 84 100 90 86 29 8 100 100 100 100 100 100 100 100 100 100 100 44 87 97 92 46 100 100 100 100 100 100 84 88 6 23 100 13 3 100 34 56 0 0
89 100 100 100 94 23 100 100 100 100 100 96 87 100 100 100 100 100 100 100 100 100 100 100 94 99 38 31 24 100 100 100 100 100 100 98 84 8 23 100 12 90 100 100 99 100 5
100 100 100 100 99 100 100 100 100 100 100 53 100 100 100 100 100 100 100 100 100 100 100 100 11 1 17 25 74 99 100 100 100 100 100 100 97 100 6 97 100 100 100 32 94 100 88
100 100 100 100 100 100 100 100 100 100 96 98 100 100 100 100 100 100 100 100 100 100 100 100 90 17 98 100 100 100 100 100 100 100 100 100 100 94 100 100 100 99 99 97 100 100 68
100 100 100 100 100 100 100 100 100 100 100 100 100 100 100 100 100 100 100 100 100 100 100 100 98 56 100 100 100 100 100 100 100 100 100 100 100 92 100 100 100 100 100 100 97 99 65
100 100 100 100 100 100 100 100 100 100 100 100 100 100 100 100 100 100 100 100 100 100 100 100 100 85 98 45 94 100 100 100 100 100 100 100 100 100 100 100 100 100 100 83 100 100 91

GFSGBSN_prec_cloud_045.txt.gz
Cloud_Cover
0 0 0 0 0 0 0 0 0 0 0 0 0 0 0 0 0 0 0 0 0 0 0 0 1 97 0 0 0 0 0 0 0 0 0 0 0 0 0 0 0 4 64 17 65 98 12
0 0 0 0 0 0 0 0 0 0 0 0 0 0 0 0 0 0 0 0 0 0 0 0 11 60 0 0 0 0 0 0 0 0 0 0 0 0 0 0 0 61 6 4 4 6 77
0 0 0 0 0 0 0 0 0 0 0 0 0 0 0 0 0 0 0 0 0 0 0 0 98 10 0 0 0 0 0 0 0 0 0 0 0 0 0 0 4 7 3 5 5 5 4
0 0 0 0 0 0 0 0 0 0 0 0 0 0 0 0 0 0 0 0 0 0 0 1 92 86 21 0 0 0 0 0 0 0 0 0 0 0 0 0 0 0 4 0 1 42 93
0 0 0 0 0 0 0 0 0 0 0 0 0 0 0 0 0 0 0 0 0 0 0 2 21 31 24 0 0 0 0 0 0 0 0 0 0 0 0 0 0 0 0 0 5 4 100
0 0 0 0 0 0 0 0 0 0 0 0 0 0 0 0 0 0 0 0 0 0 0 0 1 24 0 0 0 0 0 0 0 0 0 0 0 0 0 0 0 0 0 0 0 2 83
0 0 0 0 0 0 0 0 0 0 0 0 0 0 0 0 0 0 1 0 0 0 0 0 0 0 0 0 0 0 0 0 0 0 0 0 0 0 0 0 0 0 0 0 0 5 79
0 0 0 0 0 0 0 0 0 0 0 0 0 0 0 0 0 0 0 0 0 0 0 0 0 0 0 0 0 0 0 0 0 0 0 0 0 0 0 0 0 0 0 0 0 5 37
0 0 0 0 0 0 0 0 0 0 0 0 0 0 0 0 0 0 0 0 0 0 0 0 0 0 0 0 0 0 0 0 0 0 0 0 0 0 0 0 0 0 0 0 0 35 5
0 0 0 0 0 0 0 0 0 0 0 0 0 0 0 0 0 0 0 0 0 0 0 0 0 0 0 0 0 0 0 0 0 0 0 0 0 0 0 0 0 0 0 0 0 84 5
1 0 0 0 0 0 0 0 0 0 0 0 0 0 0 0 0 0 0 0 0 0 0 0 0 0 0 0 0 0 0 0 0 0 0 0 0 0 0 0 0 0 0 0 0 2 76
0 0 0 0 0 0 0 0 0 0 0 0 0 0 0 0 0 0 0 0 0 0 0 0 0 0 0 0 0 0 0 0 0 0 0 0 0 0 0 0 0 0 0 0 0 1 8
0 0 0 0 0 0 0 0 0 0 0 0 0 0 0 0 0 0 0 0 0 0 0 0 0 0 0 0 0 0 0 0 0 0 0 0 0 0 0 0 0 0 0 0 0 96 3
5 5 5 5 0 0 0 0 0 0 0 0 0 0 0 0 0 0 0 0 0 0 0 0 0 0 0 0 0 0 0 0 0 0 0 60 0 0 0 0 0 0 0 0 0 5 3
5 5 5 5 5 0 0 0 0 1 0 0 0 0 0 0 0 0 0 0 0 1 0 0 0 0 0 0 0 0 44 1 6 0 1 9 0 0 0 0 0 0 0 0 0 0 3
25 10 5 5 5 0 2 5 5 4 0 0 7 1 0 0 0 0 1 4 5 4 5 4 3 0 0 0 0 0 43 46 29 28 30 5 29 0 0 1 3 0 0 0 0 0 0
58 95 5 5 4 5 5 3 5 5 0 5 22 0 0 0 0 0 23 40 2 5 5 4 4 5 0 0 0 0 0 55 100 54 92 20 58 2 0 1 0 0 0 0 0 0 0
100 37 5 5 5 17 5 98 5 5 4 16 15 0 0 0 0 5 5 5 5 6 97 38 5 5 5 5 0 5 0 6 100 84 92 90 98 100 0 0 0 1 0 41 2 0 0
27 5 5 8 57 100 73 52 5 5 14 80 78 23 0 4 8 71 98 24 92 89 100 100 55 33 5 4 2 46 46 0 9 99 100 98 100 11 0 6 2 94 6 0 0 0 0
73 14 97 54 100 55 100 8 5 5 29 13 22 0 2 79 96 54 92 100 95 100 100 100 100 86 36 2 1 53 100 12 5 59 100 100 100 26 5 59 96 49 7 0 0 0 0
93 100 100 100 76 100 46 39 53 30 1 0 0 4 5 62 10 96 94 97 100 100 100 100 100 100 100 5 2 0 100 99 5 5 100 100 100 73 6 63 74 5 5 1 0 0 0
100 100 100 100 98 100 100 100 100 100 0 0 5 30 10 72 91 94 77 93 100 100 100 100 100 100 100 41 5 5 23 100 4 5 100 100 96 13 5 27 95 10 92 5 0 0 0
76 81 73 6 92 100 100 100 100 100 82 17 52 98 100 90 100 100 100 100 100 100 100 100 100 100 100 98 88 1 0 25 3 1 50 100 100 64 6 27 100 100 100 89 63 2 0
15 12 5 15 99 100 100 100 100 100 98 95 100 100 100 100 100 100 100 100 100 100 100 100 100 100 63 100 87 10 2 0 1 0 47 100 100 100 38 5 99 100 100 100 99 4 0
1 5 5 94 100 100 100 100 100 100 100 100 100 100 100 100 100 100 100 100 100 100 100 100 100 66 99 82 67 3 0 0 0 0 100 100 96 94 100 71 72 100 96 100 94 4 0
5 13 100 100 100 100 100 100 100 100 100 100 100 100 100 100 100 100 100 100 100 100 100 100 100 67 99 100 98 98 100 100 97 78 100 100 100 100 100 100 88 100 100 88 6 6 0
65 100 100 100 100 100 100 100 100 100 100 100 100 100 100 100 100 100 100 100 100 100 100 100 100 94 99 100 100 100 100 100 100 100 100 100 100 100 100 100 80 100 87 63 95 3 20
100 100 100 100 100 100 100 100 100 100 100 87 90 100 100 100 100 100 100 100 100 100 100 100 83 82 100 100 100 100 100 100 100 100 100 100 100 100 100 100 100 100 44 69 28 74 77
100 100 100 100 100 100 100 100 100 100 100 100 70 99 100 100 100 100 100 100 100 100 100 100 100 100 98 100 100 100 100 100 100 100 100 97 100 100 100 100 100 100 79 100 100 100 93

GFSGBSN_prec_cloud_048.txt.gz
Cloud_Cover
0 0 0 0 0 0 0 0 0 0 0 0 0 0 0 0 0 0 0 0 0 0 0 10 7 93 0 0 0 0 0 0 0 0 0 0 0 0 0 1 5 8 100 40 69 42 77
0 0 0 0 0 0 0 0 0 0 0 0 0 0 0 0 0 0 0 0 0 0 0 0 0 26 0 0 0 0 0 0 0 0 0 0 0 0 0 0 5 8 100 98 24 13 5
5 0 0 0 0 0 0 0 0 0 0 0 0 0 0 0 0 0 0 0 0 0 0 0 2 0 0 0 0 0 0 0 0 0 0 0 0 0 0 0 13 5 29 6 5 39 77
0 0 0 0 0 0 0 0 0 0 0 0 0 0 0 0 0 0 0 0 0 0 0 10 73 0 12 0 0 0 0 0 0 0 0 0 0 0 0 0 1 1 37 5 5 3 17
0 0 0 0 0 0 0 0 0 0 0 0 0 0 0 0 0 0 0 0 0 0 7 42 14 0 0 0 0 0 0 0 0 0 0 0 0 0 0 0 0 4 1 4 6 5 4
0 0 0 0 0 0 0 0 0 0 0 0 0 0 0 0 0 0 0 0 0 0 8 2 0 9 0 0 0 0 0 0 0 0 0 0 0 0 0 0 0 0 0 0 5 5 5
0 0 0 0 0 0 0 0 0 0 0 0 0 0 0 0 0 0 2 0 0 0 0 0 0 0 0 0 0 0 0 0 0 0 0 0 0 0 0 0 0 0 0 0 5 4 4
0 0 0 0 0 0 0 0 0 0 0 0 0 0 0 0 0 0 0 0 0 0 0 0 0 0 0 0 0 0 0 0 0 0 0 0 0 0 0 0 0 0 0 0 2 11 6
0 0 0 0 0 0 0 0 0 0 0 0 0 0 0 0 0 0 0 0 0 0 0 0 0 0 0 0 0 0 0 0 0 0 0 0 0 0 0 0 0 0 0 0 0 2 47
1 0 0 0 0 0 0 0 0 0 0 0 0 0 0 0 0 0 0 0 0 0 0 0 0 0 0 0 0 0 0 0 0 0 0 0 0 0 0 0 0 0 0 0 0 0 4
0 0 0 0 0 0 0 0 0 0 0 0 0 0 0 0 0 0 0 0 0 0 0 0 0 0 0 0 0 0 0 0 0 0 0 0 0 0 0 0 0 0 0 0 0 0 0
4 5 5 5 0 2 0 0 0 0 0 0 0 0 0 0 0 0 0 0 0 0 0 0 0 0 0 0 0 0 0 0 0 0 0 0 0 0 0 0 0 0 0 0 0 0 0
5 5 5 5 3 5 1 0 0 0 0 0 0 0 0 0 0 0 0 0 0 0 0 0 0 0 0 0 0 0 0 0 0 9 0 0 0 0 0 0 0 0 0 0 0 0 0
5 6 5 48 5 5 5 0 0 0 0 0 0 0 0 0 0 0 0 0 0 0 0 0 0 0 0 0 0 0 0 0 0 0 0 2 0 0 0 0 0 0 0 0 0 0 0
100 80 20 100 5 5 5 1 3 4 4 5 1 0 0 0 0 0 0 0 0 0 0 0 0 0 0 0 0 0 0 0 0 0 0 0 0 0 0 0 0 0 0 0 0 0 0
60 22 33 14 5 4 5 90 100 47 75 71 67 0 0 0 0 0 0 0 0 0 0 2 20 4 0 0 0 0 0 0 0 0 2 3 39 0 0 0 2 0 0 0 0 0 0
88 95 5 5 3 4 5 5 58 84 69 7 0 0 2 2 0 0 0 0 0 2 3 4 3 2 2 0 4 4 0 0 0 0 0 1 10 1 0 0 1 0 1 0 0 0 0
100 76 5 5 5 5 58 8 39 25 1 6 4 20 3 0 0 0 0 0 0 5 5 47 18 6 5 14 86 8 5 0 0 0 0 2 20 64 0 3 1 46 5 2 0 0 0
100 20 5 5 50 98 78 49 41 0 5 75 100 78 0 0 3 5 1 3 5 5 10 18 6 56 18 5 5 8 2 0 0 0 0 0 88 22 0 86 0 69 87 42 5 19 0
8 1 2 10 32 100 97 100 98 83 40 100 8 1 3 5 5 5 92 5 5 5 5 99 100 100 69 12 5 5 5 0 0 17 95 4 22 15 3 2 10 5 99 89 83 19 5
2 23 4 9 100 100 100 100 100 100 30 0 2 5 5 46 18 72 100 47 5 37 88 100 100 98 100 90 97 28 5 5 3 73 100 4 28 67 6 5 14 0 89 81 6 5 4
1 94 94 100 100 100 100 100 100 100 36 1 47 52 17 78 57 100 88 100 100 100 87 100 96 100 100 100 100 97 87 26 4 59 100 6 14 76 61 3 5 1 73 99 12 5 5
100 100 100 100 100 100 100 100 100 100 83 98 98 98 100 98 100 100 100 100 100 100 100 100 100 100 100 100 100 100 100 99 5 4 100 93 52 89 100 15 5 5 26 45 16 5 5
56 100 100 100 100 100 100 100 100 100 100 100 98 100 100 100 100 100 100 100 100 100 100 100 100 100 98 64 92 19 100 100 21 5 100 41 100 98 100 97 5 3 97 64 29 5 5
22 100 100 100 100 100 100 100 100 100 100 69 100 100 100 100 100 100 100 100 100 100 100 100 99 93 84 97 100 100 15 32 29 4 94 5 29 96 100 37 91 84 100 90 99 18 5
100 100 100 100 100 100 100 100 100 100 96 100 100 100 100 100 100 100 100 100 100 100 100 100 8 55 100 100 100 100 100 49 5 0 10 10 90 100 100 100 100 100 16 41 5 99 14
100 100 100 100 100 100 100 100 100 100 100 100 100 100 100 100 100 100 100 100 100 100 100 100 98 100 100 100 100 100 100 100 100 55 91 97 100 100 100 100 100 100 16 5 75 54 62
82 100 100 100 100 100 100 100 100 100 100 100 93 100 100 100 100 100 100 100 100 100 100 100 100 100 100 100 100 100 100 100 100 97 100 100 100 100 100 100 100 100 72 86 16 88 81
100 100 100 100 100 100 100 100 100 100 100 100 100 100 100 100 56 100 100 100 90 100 100 100 100 100 100 100 100 100 100 100 100 100 100 100 100 100 100 100 100 100 100 54 92 10 80

GFSGBSN_prec_cloud_051.txt.gz
Cloud_Cover
0 0 0 0 0 0 0 0 0 0 0 0 0 0 0 0 0 0 0 0 9 0 0 22 11 20 0 0 0 0 0 0 0 0 0 0 0 0 0 0 5 5 32 34 100 57 79
0 2 2 0 0 0 0 0 0 0 0 0 0 0 0 0 0 0 0 0 0 0 0 0 0 21 0 0 0 0 0 0 0 0 0 0 0 0 0 0 3 5 57 27 100 94 64
0 0 0 0 0 0 0 0 0 0 0 0 0 0 0 0 0 0 0 0 0 0 0 0 0 0 0 0 0 0 0 0 0 0 0 0 0 0 0 0 1 8 13 93 100 78 71
0 0 0 0 0 0 0 0 0 0 0 0 0 0 0 0 0 0 0 0 0 0 0 0 0 0 0 0 0 0 0 0 0 0 0 0 0 0 0 0 0 5 3 5 61 63 74
1 0 0 0 0 0 0 0 0 0 0 0 0 0 0 0 0 0 0 0 0 0 6 3 0 0 0 0 0 0 0 0 0 0 0 0 0 0 0 0 0 4 0 2 49 5 8
0 0 0 0 0 0 0 0 0 0 0 0 0 0 0 0 0 0 0 0 0 0 6 1 0 0 0 0 0 0 0 0 0 0 0 0 0 0 0 0 0 0 0 0 26 5 2
0 0 0 0 0 0 0 0 0 0 0 0 0 0 0 0 0 0 0 0 0 0 0 0 0 0 0 0 0 0 0 0 0 0 0 0 0 0 0 0 0 0 0 0 41 11 5
0 0 0 0 0 0 0 0 0 0 0 0 0 0 0 0 0 0 0 0 0 0 0 0 0 0 0 0 0 0 0 0 0 0 0 0 0 0 0 0 0 0 0 0 20 51 5
0 0 0 0 0 0 0 0 0 0 0 0 0 0 0 0 0 0 0 0 0 0 0 0 0 0 0 0 0 0 0 0 0 0 0 0 0 0 0 0 0 0 0 0 4 96 5
4 0 0 0 0 0 0 0 0 0 0 0 0 0 0 0 0 0 0 0 0 0 0 0 0 0 0 0 0 0 0 0 0 0 0 0 0 0 0 0 0 0 0 0 1 5 31
5 4 2 0 0 0 0 0 0 0 0 0 0 0 0 0 0 0 0 0 0 0 0 0 0 0 0 0 0 0 0 0 0 0 0 0 0 0 0 0 0 0 0 0 0 2 5
54 17 4 1 1 5 4 1 2 0 0 0 0 0 1 0 0 0 0 0 0 0 0 0 0 0 0 0 0 0 0 0 0 0 0 0 0 0 0 0 0 0 0 0 0 0 3
100 100 5 5 5 5 4 5 5 2 0 0 0 0 0 0 0 0 0 0 0 0 0 0 0 0 0 0 0 0 0 0 0 0 0 0 0 0 0 0 0 0 0 0 0 0 1
84 39 5 5 3 1 2 3 5 5 0 0 0 0 5 4 5 5 5 0 0 0 0 0 0 0 0 0 0 0 0 0 0 0 0 0 0 0 0 0 0 0 0 0 0 0 0
100 47 22 31 5 1 5 5 5 2 4 0 0 0 2 1 0 0 0 0 0 0 0 0 0 0 0 0 0 0 0 0 0 0 0 0 0 0 0 0 0 0 0 0 0 0 0
26 50 100 12 3 0 1 5 5 4 1 3 7 18 1 0 0 0 0 0 0 0 0 0 0 0 0 0 0 0 0 0 0 0 0 3 2 0 0 0 0 0 0 0 0 0 0
99 98 2 0 0 0 0 5 5 5 4 3 2 2 0 0 0 3 3 0 0 0 0 0 0 0 0 0 0 0 0 0 0 0 0 0 2 0 0 0 0 0 0 0 0 0 0
36 0 0 0 0 31 81 98 30 28 98 46 79 62 7 55 41 0 0 0 0 0 0 2 4 5 5 3 0 0 0 0 0 0 0 3 12 3 0 0 0 0 5 1 34 0 0
1 0 0 4 74 100 100 100 100 100 24 22 3 4 5 0 1 5 5 5 5 5 5 5 24 10 5 5 23 4 0 0 0 0 0 3 5 3 0 0 0 0 4 0 0 4 5
1 6 72 100 100 100 100 100 100 100 24 0 0 2 5 3 5 52 100 5 5 5 5 6 78 100 100 91 87 50 83 63 46 11 2 0 2 0 0 2 14 2 55 5 3 4 1
3 100 100 100 100 100 100 100 100 100 10 0 26 38 6 5 54 97 91 32 99 90 31 73 70 100 100 100 100 100 100 100 100 100 5 4 0 0 0 0 4 0 76 5 5 5 4
8 100 100 100 100 100 100 100 100 91 0 95 93 66 12 96 100 100 50 100 100 100 100 100 100 100 100 100 100 100 100 100 100 100 82 5 2 3 0 0 55 5 7 20 0 5 5
14 97 100 100 98 100 100 100 100 100 66 15 25 74 98 100 100 100 100 100 100 100 100 100 100 100 100 94 99 89 98 57 26 47 5 4 5 4 0 16 98 38 7 5 0 4 5
86 100 100 100 58 100 100 100 100 100 82 51 88 100 100 100 100 100 100 100 100 100 100 100 100 100 58 77 100 100 100 85 85 91 77 31 80 24 52 100 74 60 11 96 1 0 5
100 100 100 100 100 100 100 100 100 100 99 97 100 100 100 100 100 100 100 100 100 98 100 100 100 100 100 91 100 99 87 100 97 96 100 36 74 74 100 100 83 100 71 97 14 0 0
100 100 100 100 100 100 100 100 100 100 100 100 100 100 100 100 99 100 100 100 100 100 100 100 76 99 100 100 100 100 100 100 100 22 55 19 69 99 100 100 100 100 77 100 76 90 99
100 100 100 100 100 100 100 100 100 100 100 100 100 100 100 100 100 96 96 100 100 100 100 100 100 99 90 100 100 100 100 100 100 72 94 100 98 100 100 100 100 100 95 100 100 39 100
100 100 100 100 100 100 100 100 100 99 100 100 100 81 100 100 99 100 100 99 100 100 100 100 80 100 100 100 100 100 100 100 100 100 95 100 100 100 100 100 100 100 100 100 97 92 100
100 100 100 100 100 100 100 100 100 92 61 22 67 96 92 100 40 8 33 71 83 84 100 100 54 100 100 100 100 100 100 100 100 100 100 100 100 100 100 100 100 100 100 100 96 100 100

GFSGBSN_prec_cloud_054.txt.gz
Cloud_Cover
5 0 0 0 0 0 0 0 0 0 0 0 0 0 0 0 0 0 0 0 0 0 0 9 6 0 6 0 0 0 0 0 0 0 0 0 0 0 0 0 4 5 63 99 67 81 72
0 9 0 0 0 0 0 0 0 0 0 0 0 0 0 0 0 0 0 0 0 0 0 0 0 0 0 0 0 0 0 0 0 0 0 0 0 0 0 0 0 5 15 84 86 99 43
4 0 0 0 0 0 0 0 0 0 0 0 0 0 0 0 0 0 0 0 0 0 0 0 0 0 0 0 0 0 0 0 0 0 0 0 0 0 0 0 0 2 5 5 30 58 76
0 0 0 0 0 0 0 0 0 0 0 0 0 0 0 0 0 0 0 0 0 0 0 0 0 0 0 0 0 0 0 0 0 0 0 0 0 0 0 0 0 0 3 73 42 86 100
0 0 0 0 0 0 0 0 0 0 0 0 0 0 0 0 0 0 0 0 0 0 0 0 0 0 0 0 0 0 0 0 0 0 0 0 0 0 0 0 0 0 0 1 99 97 92
0 0 0 0 0 0 0 0 0 0 0 0 0 0 0 0 0 0 0 0 0 22 8 0 0 0 0 0 0 0 0 0 0 0 0 0 0 0 0 0 0 0 0 0 6 28 55
0 0 0 0 0 0 0 0 0 0 0 0 0 0 0 0 0 0 7 0 0 0 0 0 0 0 0 0 0 0 0 0 0 0 0 0 0 0 0 0 0 0 0 0 4 100 70
0 0 0 0 0 0 0 0 0 0 0 0 0 0 0 0 0 0 4 0 0 0 0 0 0 0 0 0 0 0 0 0 0 0 0 0 0 0 0 0 0 0 0 0 48 60 53
15 3 0 0 0 0 0 0 0 0 0 0 0 0 0 0 0 0 0 0 0 0 0 0 0 0 0 0 0 0 0 0 0 0 0 0 0 0 0 0 0 0 0 0 5 11 14
95 96 2 0 0 0 0 0 0 0 0 0 0 0 0 25 9 0 0 0 0 0 0 0 0 0 0 0 0 0 0 0 0 0 0 0 0 0 0 0 0 0 0 0 3 2 23
100 100 55 2 0 0 0 4 1 0 0 0 0 0 0 31 0 0 0 0 0 0 0 0 0 0 0 0 0 0 0 0 0 0 0 0 0 0 0 0 0 0 0 0 0 5 5
100 100 86 5 5 4 5 5 4 4 1 0 0 0 9 12 0 0 0 0 0 0 0 0 0 0 0 0 0 0 0 0 0 0 0 0 0 0 0 0 0 0 0 0 0 0 36
100 26 36 5 5 4 0 0 1 5 5 5 5 2 10 0 0 0 0 0 0 0 0 0 0 0 0 0 0 0 0 0 0 0 0 0 0 0 0 0 0 0 0 0 0 0 0
94 5 5 4 0 2 4 2 0 0 0 0 0 37 5 0 0 0 0 0 0 0 0 0 0 0 0 0 0 0 0 0 0 0 0 0 0 0 0 0 0 0 0 0 0 0 0
28 5 1 0 0 0 0 0 0 5 4 4 16 0 0 0 5 5 9 4 1 0 0 0 0 0 0 0 0 0 0 0 0 0 0 0 0 0 0 0 0 0 0 0 0 0 0
0 2 0 0 0 0 6 95 89 0 3 8 5 5 0 0 0 1 2 0 0 0 0 0 0 0 0 0 0 0 0 0 0 0 0 0 0 0 0 0 0 7 1 10 1 1 0
8 8 21 10 51 89 86 100 100 19 0 0 6 63 5 5 5 5 9 6 5 5 0 0 0 0 0 0 0 0 1 0 0 0 0 0 0 0 0 0 0 0 0 97 29 1 0
4 9 58 97 100 100 100 100 99 6 0 0 0 0 0 2 3 0 4 0 0 3 2 2 0 5 58 88 94 31 19 5 0 0 0 0 0 0 0 1 0 0 23 2 100 12 3
10 72 100 100 100 100 100 100 84 0 0 0 0 0 0 0 30 5 5 10 25 11 56 59 62 70 92 84 87 100 100 35 5 0 0 4 0 0 0 0 0 0 0 5 100 100 48
51 95 100 100 100 100 100 100 10 0 0 3 8 31 42 45 13 17 90 99 67 72 75 10 8 33 64 51 96 100 99 86 57 15 2 0 0 0 0 0 0 2 5 14 4 94 27
14 52 100 100 100 100 100 22 0 0 3 16 66 100 98 89 97 100 83 95 66 68 28 20 91 93 100 99 98 100 100 100 99 37 27 4 3 0 0 0 0 0 3 1 0 22 26
31 100 100 100 85 97 96 0 4 83 97 75 84 93 100 100 95 76 7 34 18 100 76 85 84 100 41 71 100 100 100 100 100 100 92 84 31 0 0 0 0 0 0 0 0 5 2
89 94 100 100 100 100 100 26 5 11 13 48 90 80 99 77 83 98 100 100 100 91 100 100 92 100 100 62 49 57 84 82 98 100 100 99 85 36 5 1 0 0 0 1 0 0 5
100 75 100 100 100 100 100 100 23 100 87 57 29 60 40 84 89 97 100 99 100 100 100 100 100 100 100 83 49 45 94 79 49 75 70 95 100 97 86 100 5 0 0 0 3 0 0
100 99 100 100 100 100 100 41 100 100 100 97 62 96 97 58 100 91 100 100 100 100 100 95 58 32 92 85 100 81 100 100 92 79 90 81 95 86 100 49 4 5 30 16 84 51 72
100 100 100 100 100 100 99 84 42 100 100 89 68 99 100 100 88 99 86 100 100 96 88 47 40 100 98 100 100 100 100 99 100 100 100 95 100 100 100 79 6 72 100 100 99 43 38
100 100 100 100 100 100 19 5 95 100 100 100 100 100 100 100 82 87 100 56 100 93 92 100 100 100 100 100 100 100 100 100 91 100 100 100 100 89 98 100 30 99 100 100 100 34 17
100 100 100 100 100 98 7 3 5 100 100 99 100 84 99 100 100 89 53 100 66 100 100 76 98 100 100 100 100 100 100 100 100 100 100 70 83 60 93 100 99 100 100 100 100 100 75
100 100 100 100 88 100 58 0 5 5 26 48 100 66 53 100 9 5 40 97 15 87 100 91 99 100 100 100 100 100 100 100 100 98 38 92 49 100 94 98 100 100 100 100 100 100 100

GFSGBSN_prec_cloud_057.txt.gz
Cloud_Cover
0 0 0 0 0 0 0 0 0 0 0 0 0 0 0 0 0 0 0 0 0 0 0 0 20 0 11 0 0 0 0 0 0 0 0 0 0 0 0 0 0 3 92 48 99 100 100
6 2 0 0 0 0 0 0 0 0 0 0 0 0 0 0 0 0 0 0 0 0 0 0 0 0 0 0 0 0 0 0 0 0 0 0 0 0 0 0 0 4 6 25 54 46 100
0 0 0 0 0 0 0 0 0 0 0 0 0 0 0 0 0 0 0 0 0 0 0 0 0 0 0 0 0 0 0 0 0 0 0 0 0 0 0 0 0 0 4 23 80 20 95
0 0 0 0 0 0 0 0 0 0 0 0 0 0 0 0 0 0 0 0 0 0 0 0 0 0 0 0 0 0 0 0 0 0 0 0 0 0 0 0 0 0 0 84 26 6 31
0 1 0 0 0 0 0 0 0 0 0 0 0 0 0 0 0 0 0 0 0 0 0 0 0 0 0 0 0 0 0 0 0 0 0 0 0 0 0 0 0 0 0 3 78 33 5
0 0 0 0 0 0 0 0 0 0 0 0 0 0 0 0 0 0 0 11 0 26 16 0 0 0 0 0 0 0 0 0 0 0 0 0 0 0 0 0 0 0 0 3 46 96 30
0 0 0 0 0 0 0 0 0 0 0 0 0 0 0 0 0 0 12 0 0 0 0 0 0 0 0 0 0 0 0 0 0 0 0 0 0 0 0 0 0 0 0 0 39 75 95
0 29 15 0 0 0 0 0 0 0 0 0 0 0 0 0 0 0 0 0 0 0 0 0 0 0 0 0 0 0 0 0 0 0 0 0 0 0 0 0 0 0 0 0 12 56 100
0 79 88 0 0 0 0 0 0 0 0 0 0 0 0 0 4 6 0 0 0 0 0 0 0 0 0 0 0 0 0 0 0 0 0 0 0 0 0 0 0 0 0 0 5 21 96
99 10 0 0 0 0 2 0 0 0 0 0 0 0 0 13 9 0 0 0 0 0 0 0 0 0 0 0 0 0 0 0 0 0 0 0 0 0 0 0 0 0 0 0 1 94 59
76 26 0 5 0 3 5 0 0 0 0 0 0 0 0 33 0 0 0 0 0 0 0 0 0 0 0 0 0 0 0 0 0 0 0 0 0 0 0 0 0 0 0 0 0 0 24
69 0 0 4 1 0 0 0 0 0 0 0 1 4 4 0 0 0 0 3 2 0 0 0 0 0 0 0 0 0 0 0 0 0 0 0 0 0 0 0 0 0 0 0 0 0 0
63 0 0 0 0 0 0 0 0 0 0 0 0 0 18 4 8 1 1 0 1 1 0 0 0 0 0 0 0 0 0 0 0 0 0 0 0 0 0 0 0 0 0 0 0 0 0
0 0 0 0 0 0 0 0 0 0 0 0 5 33 2 0 1 82 17 1 0 0 0 0 0 0 0 0 0 0 0 0 0 0 0 0 0 0 0 0 0 0 0 0 0 0 0
12 0 0 0 1 13 6 0 0 0 0 0 16 5 5 3 0 0 61 5 4 3 0 0 0 0 0 0 0 0 0 0 0 0 0 0 0 0 0 0 0 0 1 0 1 0 0
5 0 0 15 89 100 100 33 0 0 0 0 0 4 89 97 7 5 1 2 2 1 4 5 4 0 0 0 0 0 0 0 0 0 0 0 0 0 0 0 0 1 12 1 0 3 0
0 0 45 100 100 98 97 69 0 0 0 0 0 4 0 5 45 92 62 49 26 39 17 3 4 1 2 0 4 1 5 2 0 0 0 0 0 0 0 0 0 0 0 57 85 2 0
11 99 100 100 92 53 43 0 0 0 0 0 0 76 0 1 43 21 88 6 6 40 8 5 2 0 10 53 97 100 42 98 5 5 0 0 0 0 0 0 0 0 2 0 83 90 3
11 100 100 100 61 0 0 0 0 0 0 0 5 6 17 68 96 97 8 5 2 30 70 51 65 80 78 98 99 100 100 98 5 8 0 3 0 0 0 0 0 0 0 5 4 34 96
10 100 100 96 23 0 0 0 0 5 5 96 100 100 99 26 14 68 93 41 87 59 74 50 52 81 91 98 100 100 100 100 83 19 4 0 0 0 0 46 17 2 3 5 5 94 57
5 99 100 60 77 0 0 0 3 4 2 8 27 61 100 100 61 22 17 5 11 68 27 5 67 14 64 56 12 90 100 100 92 100 31 4 2 3 4 5 2 0 1 17 96 81 34
16 34 100 86 50 1 36 0 4 5 4 5 5 16 5 1 1 70 6 85 96 14 67 54 58 89 90 87 92 78 55 97 89 100 100 100 100 100 100 64 5 0 0 5 5 5 80
91 14 100 100 41 1 87 5 6 100 100 63 13 6 11 5 15 56 37 68 74 99 22 15 15 18 10 5 39 82 86 82 8 47 100 99 95 100 100 100 32 6 0 0 0 0 0
100 91 100 96 18 29 89 1 5 84 97 96 100 100 100 84 100 100 94 67 76 95 97 60 100 88 49 21 47 13 62 40 60 98 56 98 100 99 91 100 100 14 1 0 0 0 0
100 100 100 51 2 39 0 0 5 22 100 66 39 57 100 60 97 69 65 100 97 99 98 66 100 100 100 95 99 78 99 99 93 99 92 84 100 100 100 100 46 100 97 8 65 0 0
100 100 99 30 0 8 0 0 0 5 24 100 79 29 70 23 5 30 94 67 96 100 99 96 32 91 100 100 100 100 100 100 100 100 100 92 100 100 99 100 100 95 93 4 0 0 0
99 100 79 5 0 0 0 0 4 5 0 40 50 46 91 67 5 6 5 100 79 68 99 72 84 98 100 100 98 100 100 98 91 100 93 100 97 88 35 100 100 99 64 0 20 28 28
96 96 97 5 0 0 0 0 0 4 0 34 0 12 73 100 64 11 5 26 99 93 97 72 93 57 100 100 100 100 100 100 93 100 19 100 99 88 99 100 93 33 3 2 26 96 100
100 99 95 2 0 0 0 0 0 0 0 0 87 1 5 5 27 5 5 38 54 59 95 89 100 93 100 100 100 100 100 100 100 100 98 100 99 100 100 100 68 88 97 91 62 100 100

GFSGBSN_prec_cloud_060.txt.gz
Cloud_Cover
0 0 0 0 0 0 0 0 0 0 0 0 0 0 0 0 0 0 0 0 0 0 0 0 6 18 16 0 0 0 0 0 0 0 0 0 0 0 0 0 20 14 92 82 84 99 63
0 0 0 0 0 0 0 0 0 0 0 0 0 0 0 0 0 0 0 0 0 0 0 0 6 0 0 0 0 0 0 0 0 0 0 0 0 0 0 0 2 28 31 100 9 62 35
0 0 0 0 0 0 0 0 0 0 0 0 0 0 0 0 0 0 0 0 0 6 0 0 0 0 0 0 0 0 0 0 0 0 0 0 0 0 0 0 0 0 19 37 9 67 85
0 4 1 0 0 0 0 0 0 0 0 0 0 0 0 0 0 0 0 0 0 0 0 0 1 0 0 0 0 0 0 0 0 0 0 0 0 0 0 0 0 0 0 3 20 47 5
0 0 0 0 0 0 0 0 0 0 0 0 0 0 0 0 0 0 0 0 0 0 0 0 1 0 0 0 0 0 0 0 0 0 0 0 0 0 0 0 0 0 0 0 76 79 41
0 0 0 0 0 0 0 0 0 0 0 0 0 0 0 0 0 0 0 0 0 0 0 0 0 0 0 0 0 0 0 0 0 0 0 0 0 0 0 0 0 0 0 0 4 63 29
11 0 0 0 0 0 0 0 0 0 0 0 0 0 0 0 0 0 1 0 0 0 0 0 0 0 0 0 0 0 0 0 0 0 0 0 0 0 0 0 0 0 0 0 0 77 4
99 37 0 0 0 0 0 0 0 0 0 0 0 0 0 0 0 4 5 0 0 0 0 0 0 0 0 0 0 0 0 0 0 0 0 0 0 0 0 0 0 0 0 0 3 86 20
99 44 0 0 0 0 0 0 0 0 0 0 0 0 0 0 5 5 0 0 0 0 0 0 0 0 0 0 0 0 0 0 0 0 0 0 0 0 0 0 0 0 0 0 0 98 45
40 16 0 0 0 0 0 0 0 0 0 0 0 0 0 35 2 0 0 0 0 0 0 0 0 0 0 0 0 0 0 0 0 0 0 0 0 0 0 0 0 0 0 0 0 12 93
10 9 0 0 0 0 0 0 0 0 0 0 0 0 0 0 0 0 0 0 5 5 13 0 0 0 0 0 0 0 0 0 0 0 0 0 0 0 0 0 0 0 0 0 0 0 6
14 2 0 0 0 0 0 0 0 0 0 0 0 0 0 0 0 0 0 2 1 4 93 0 0 0 0 0 0 0 0 0 0 0 0 0 0 0 0 0 0 0 0 0 0 0 0
7 0 0 0 0 0 0 0 0 0 0 0 0 0 11 3 0 0 1 5 56 49 44 0 0 0 0 0 0 0 0 0 0 0 0 0 0 0 0 0 0 0 0 0 0 0 0
4 0 0 0 0 26 80 0 0 0 0 0 0 16 0 5 5 5 5 5 6 90 100 0 0 26 3 0 0 0 0 0 0 0 0 0 0 0 0 0 0 0 0 0 0 0 0
8 9 0 0 99 100 96 0 0 0 0 0 0 0 0 5 33 4 27 81 14 6 7 54 2 5 4 0 0 0 0 0 0 0 0 0 0 4 0 0 0 0 14 0 0 0 0
15 15 0 16 98 95 5 0 0 0 0 0 0 0 3 2 75 98 94 46 78 0 5 6 58 22 5 8 1 0 0 0 0 0 0 0 0 0 0 4 0 0 0 37 0 0 0
25 5 5 24 11 0 0 0 0 0 0 0 0 36 2 36 97 100 98 91 83 5 2 0 5 51 70 5 15 3 23 3 1 0 0 0 0 0 0 0 1 4 0 2 85 42 0
5 5 4 0 15 0 0 0 0 1 5 0 0 100 0 2 52 95 100 100 100 100 100 97 21 5 23 25 5 68 66 94 0 2 4 0 0 0 0 0 3 5 1 0 52 5 15
13 5 4 0 0 0 0 0 0 0 6 90 71 100 98 96 100 100 18 5 12 65 80 84 78 55 12 5 5 5 12 30 17 3 5 0 0 0 0 0 0 1 0 0 1 2 5
7 15 7 16 5 0 0 0 0 0 0 9 75 100 100 100 25 18 41 77 99 3 17 4 3 3 3 0 14 9 21 26 18 78 3 0 0 1 0 0 0 4 10 1 2 5 1
40 42 12 66 84 3 0 0 2 4 2 4 4 1 89 96 90 41 46 50 65 62 13 5 15 5 4 2 2 5 48 28 37 5 5 1 0 2 0 0 1 0 0 0 0 0 5
100 98 37 80 92 5 0 0 1 43 5 99 85 8 31 1 4 81 10 62 5 9 0 26 38 73 2 38 91 20 98 99 70 87 5 29 87 94 42 5 5 0 0 0 0 0 0
100 100 91 92 5 5 0 0 0 6 91 100 100 99 100 78 28 5 10 5 1 0 14 17 5 1 17 83 63 4 12 4 11 90 83 84 6 60 6 97 74 75 4 0 0 0 0
100 100 99 26 5 4 0 0 0 0 0 87 100 81 64 100 100 100 78 5 6 6 10 31 2 32 38 5 5 5 46 4 3 5 100 100 59 97 85 100 99 0 5 20 3 0 0
100 96 100 25 7 4 0 0 0 0 0 0 0 43 21 5 5 3 12 5 60 9 64 50 55 14 94 88 97 74 87 84 79 99 90 96 88 95 100 100 64 21 10 99 100 3 0
100 100 100 43 29 5 0 0 0 0 0 0 0 0 12 10 5 22 76 11 7 15 90 80 74 100 95 97 97 74 100 96 87 83 100 100 99 100 99 100 98 12 100 68 24 0 0
100 100 91 16 13 0 0 0 0 0 0 0 0 0 14 97 6 4 2 3 49 70 70 100 70 98 66 80 89 83 100 60 100 67 98 100 100 63 98 88 73 100 100 100 79 4 1
100 100 88 5 29 5 0 0 0 0 0 0 1 0 4 39 86 60 5 7 9 14 87 64 71 49 79 100 93 100 100 94 100 99 85 93 96 100 100 95 83 43 51 96 22 5 2
100 100 64 60 12 5 0 0 0 0 0 1 27 1 0 24 90 73 53 2 5 5 45 94 100 100 56 95 98 99 100 100 100 100 98 98 100 96 7 85 59 32 91 48 47 17 4

GFSGBSN_prec_cloud_063.txt.gz
Cloud_Cover
0 0 0 0 0 0 0 0 0 0 0 0 0 0 0 0 0 0 0 0 0 0 35 2 0 5 16 0 0 0 0 0 0 0 0 0 0 0 0 0 19 78 62 100 100 100 82
0 0 0 0 0 0 0 0 0 0 0 0 0 0 0 0 0 0 0 0 0 0 43 0 0 4 0 0 0 0 0 0 0 0 0 0 0 0 0 0 0 44 100 99 100 100 100
0 0 0 0 0 0 0 0 0 0 0 0 0 0 10 0 0 0 0 0 0 0 12 0 0 0 0 0 0 0 0 0 0 0 0 0 0 0 0 0 0 5 74 100 79 94 99
1 0 0 0 0 0 0 0 0 0 0 0 0 0 0 0 0 0 0 0 0 0 0 0 0 0 0 0 0 0 0 0 0 0 0 0 0 0 0 0 0 0 4 4 71 94 100
26 2 0 0 0 0 0 0 0 0 0 0 0 1 16 0 0 0 0 0 0 0 0 0 0 0 0 0 0 0 0 0 0 0 0 0 0 0 0 0 0 0 0 0 3 4 100
100 1 0 0 0 0 0 0 0 0 0 0 0 8 2 0 0 0 0 0 0 0 0 0 0 0 0 0 0 0 0 0 0 0 0 0 0 0 0 0 0 0 0 0 0 3 61
100 96 0 0 0 0 0 0 0 0 0 0 0 3 2 0 0 0 1 0 0 0 0 0 0 0 0 0 0 0 0 0 0 0 0 0 0 0 0 0 0 0 0 0 0 21 3
100 2 0 0 0 0 0 0 0 0 0 0 0 0 0 0 0 0 6 0 0 0 0 0 0 0 0 0 0 0 0 0 0 0 0 0 0 0 0 0 0 0 0 0 0 11 0
100 3 0 0 0 0 0 0 0 0 0 0 0 0 0 0 0 0 0 0 0 0 0 0 0 0 0 0 0 0 0 0 0 0 0 0 0 0 0 0 0 0 0 0 0 4 56
96 0 0 0 0 0 0 0 0 0 0 0 0 0 0 4 0 0 0 0 0 0 0 0 0 0 0 0 0 0 0 0 0 0 0 0 0 0 0 0 0 0 0 0 0 1 81
0 3 0 0 0 0 0 10 0 0 0 0 0 0 0 29 0 0 0 0 3 5 2 0 0 0 0 0 0 0 0 0 0 0 0 0 0 0 0 0 0 0 0 0 0 0 0
0 0 6 0 11 48 34 54 0 0 0 0 0 0 11 0 2 2 2 3 0 5 94 3 1 1 0 0 0 0 0 0 0 0 0 0 0 0 0 0 0 0 0 0 0 0 0
0 2 28 65 84 82 100 5 0 0 0 0 0 0 54 0 6 3 5 5 18 99 40 50 3 25 7 2 0 0 0 0 0 0 0 0 0 0 0 0 0 0 0 0 0 0 0
2 11 49 89 21 10 0 0 0 0 0 0 0 0 0 0 86 98 92 48 100 65 22 5 0 2 100 25 5 5 0 0 0 0 0 0 0 0 0 0 0 0 0 0 0 0 0
22 33 96 5 3 0 0 0 0 0 0 0 0 0 0 0 42 100 100 100 84 5 7 2 1 4 99 13 46 80 49 5 2 0 0 0 0 0 0 0 0 0 0 0 0 0 0
100 8 97 4 5 0 0 0 0 0 0 0 0 2 1 0 94 100 100 96 61 12 84 5 2 5 85 24 8 0 5 4 0 0 0 0 0 0 0 0 0 0 0 0 0 0 0
100 7 100 66 3 0 0 0 0 0 0 2 20 5 11 70 96 100 100 94 79 57 1 1 0 0 7 5 18 58 90 5 3 0 0 0 0 0 0 0 0 0 0 0 0 0 0
100 100 100 100 85 0 0 0 0 0 0 2 100 95 0 3 100 100 100 100 100 100 33 50 5 0 0 1 5 19 48 0 3 0 0 0 0 1 0 0 0 0 0 0 3 0 1
100 100 100 100 100 5 0 0 0 0 1 0 4 66 100 100 44 72 100 100 100 100 100 91 62 79 77 10 0 0 29 78 9 0 0 0 0 0 5 1 0 0 0 2 0 0 0
100 100 100 100 100 5 3 0 0 1 5 79 35 38 100 100 100 100 29 15 56 100 100 100 100 100 100 100 100 76 26 2 4 31 5 4 1 0 0 11 2 0 0 0 0 0 0
100 100 100 100 99 44 1 0 0 0 5 24 100 99 52 38 100 100 100 100 34 5 3 0 7 12 17 15 27 49 24 12 5 2 2 2 1 0 0 0 0 0 0 0 0 0 0
100 100 100 100 85 80 4 0 0 0 0 0 15 94 100 100 100 11 5 5 5 27 5 5 5 4 0 0 0 0 1 5 5 2 65 5 0 0 0 0 0 0 0 0 0 0 0
100 100 100 100 100 19 88 1 0 0 0 0 0 4 6 76 61 18 56 8 5 5 0 0 0 0 1 1 0 0 0 0 0 0 3 5 71 13 2 0 5 1 0 0 0 0 0
100 100 100 100 100 5 100 0 0 0 0 0 0 0 3 1 0 1 2 16 15 11 5 4 1 5 4 3 2 0 0 0 1 0 0 67 51 57 5 5 8 0 0 2 0 0 0
100 100 100 100 100 5 100 5 0 0 0 0 0 0 3 0 5 0 1 0 2 4 6 5 53 5 25 5 17 0 47 47 43 5 3 93 75 35 61 12 2 4 9 12 36 0 0
100 100 100 100 100 40 100 51 1 0 0 0 0 0 1 2 2 5 48 4 3 4 88 100 9 5 10 52 5 78 100 5 46 5 0 41 97 95 100 20 56 37 100 75 81 4 0
100 100 100 100 100 91 100 96 0 0 0 0 0 0 0 18 3 1 0 0 0 4 4 12 5 53 19 5 74 98 100 10 86 86 5 5 76 24 100 100 10 100 100 100 100 8 5
100 100 100 100 43 100 100 94 0 0 0 0 0 0 0 4 6 47 5 0 3 1 25 15 42 10 5 6 80 78 58 84 100 94 78 90 83 79 26 100 90 38 100 100 100 9 11
100 100 100 98 32 100 100 79 0 0 0 0 13 1 0 0 3 9 5 5 0 0 8 90 16 92 6 46 84 70 74 66 92 90 21 97 100 100 100 100 71 70 67 100 97 9 95

GFSGBSN_prec_cloud_066.txt.gz
Cloud_Cover
0 0 0 0 0 0 0 0 0 0 0 0 0 0 2 7 3 0 4 0 0 3 0 74 0 7 1 0 0 0 0 0 0 0 0 0 0 0 0 0 0 0 12 14 100 100 100
6 1 3 1 0 0 0 0 0 0 0 0 0 2 0 9 10 3 0 0 0 0 0 27 0 7 0 0 0 0 0 0 0 0 0 0 0 0 0 0 0 4 52 8 6 55 95
92 6 0 0 0 0 0 0 0 0 0 0 0 0 0 0 0 1 0 0 0 0 0 1 0 0 0 0 0 0 0 0 0 0 0 0 0 0 0 0 0 0 6 12 5 6 59
100 71 0 0 0 0 0 0 0 0 0 0 1 22 10 1 0 0 6 0 0 0 0 0 0 0 0 0 0 0 0 0 0 0 0 0 0 0 0 0 0 0 0 6 5 5 35
100 100 2 0 0 0 0 0 0 0 0 0 0 5 2 0 0 0 0 0 0 0 0 0 0 0 0 0 0 0 0 0 0 0 0 0 0 0 0 0 0 0 0 0 25 44 46
100 100 4 0 0 0 0 0 0 0 0 0 0 1 0 0 0 0 0 0 0 0 0 0 0 0 0 0 0 0 0 0 0 0 0 0 0 0 0 0 0 0 0 0 40 84 5
86 95 28 0 0 0 0 0 0 0 0 0 0 0 0 0 0 0 5 0 0 0 0 0 0 0 0 0 0 0 0 0 0 0 0 0 0 0 0 0 0 0 0 0 3 31 3
100 29 6 0 0 0 0 1 4 0 0 0 0 0 0 0 0 0 40 0 0 0 0 0 0 0 0 0 0 0 0 0 0 0 0 0 0 0 0 0 0 0 0 0 0 0 0
20 0 0 0 0 0 4 64 52 0 0 0 0 0 0 0 3 0 0 0 0 0 0 0 0 0 0 0 0 0 0 0 0 0 0 0 0 0 0 0 0 0 0 0 0 0 3
3 0 0 2 36 87 100 100 43 0 0 0 0 0 0 27 0 0 0 0 0 0 0 0 0 0 0 0 0 0 0 0 0 0 0 0 0 0 0 0 0 0 0 0 0 0 2
0 0 0 11 100 100 100 85 0 0 0 0 0 0 1 2 3 0 0 0 2 0 5 2 0 0 0 0 0 0 0 0 0 0 0 0 0 0 0 0 0 0 0 0 0 0 37
0 38 84 100 37 65 5 0 0 0 0 0 0 0 37 0 9 50 5 2 4 64 5 84 19 1 0 0 0 0 0 0 0 0 0 0 0 0 0 0 0 0 0 0 0 0 0
0 39 66 100 100 99 13 0 1 0 0 0 0 0 54 0 1 81 83 100 97 100 2 74 100 57 1 0 0 0 0 0 0 0 0 0 0 0 0 0 0 0 0 0 0 0 0
0 4 100 100 47 100 26 5 5 0 0 0 0 0 0 0 5 99 100 95 41 10 2 0 16 100 96 5 0 0 0 0 0 0 0 0 0 0 0 0 0 0 0 0 0 0 0
0 2 70 27 94 100 75 5 1 0 0 0 1 0 0 0 10 77 54 8 52 11 5 1 5 6 63 72 5 18 0 0 0 0 0 0 0 0 0 0 0 0 0 0 0 0 0
2 39 100 100 100 100 72 5 4 0 0 0 3 0 0 32 2 5 63 35 10 82 66 27 11 5 29 100 100 100 18 1 0 0 0 0 0 0 0 0 0 0 0 0 0 0 0
5 64 100 100 100 100 75 4 5 0 0 0 4 0 53 7 38 92 100 100 100 98 79 74 81 16 1 18 40 65 100 94 35 7 0 0 0 0 0 0 0 0 0 0 0 0 0
5 100 100 100 100 100 91 5 5 0 0 5 5 3 71 94 64 100 100 100 100 74 51 26 6 5 4 1 5 5 5 13 32 7 69 61 91 52 0 0 0 0 0 0 0 0 0
12 100 100 100 100 100 100 5 5 5 38 73 5 78 54 100 99 67 100 100 100 100 89 26 14 1 0 0 1 4 50 26 5 5 5 5 4 60 2 0 0 0 0 0 0 0 0
100 100 100 100 100 100 100 16 5 5 38 34 10 88 84 97 100 100 100 100 100 100 100 100 100 100 100 73 6 2 0 3 38 6 5 28 21 20 75 42 0 0 3 0 0 0 0
100 100 100 100 100 100 100 62 5 5 0 0 0 0 78 63 100 100 100 100 99 100 100 100 100 100 100 98 98 60 5 5 0 6 18 5 5 10 49 69 58 4 0 1 0 0 0
100 100 100 100 100 100 100 39 5 5 0 0 0 0 0 10 10 99 86 99 100 18 5 26 33 99 100 100 100 100 44 5 0 1 0 5 2 5 5 3 5 5 0 4 0 0 0
96 100 100 100 100 100 100 0 5 4 0 0 0 0 0 0 0 5 6 5 6 6 5 5 5 4 0 0 2 4 3 0 0 0 0 3 3 0 5 6 5 1 0 0 0 3 0
100 100 100 100 100 100 85 100 5 5 1 0 0 0 0 0 0 0 0 2 5 5 5 4 2 0 0 0 0 0 0 0 0 0 0 0 0 0 5 4 5 11 6 0 0 4 13
100 100 100 100 100 100 100 37 3 5 2 0 0 0 0 0 0 0 0 0 0 1 5 4 5 0 0 0 0 0 3 3 5 5 5 0 0 2 3 36 2 0 2 5 4 2 2
100 100 100 100 100 100 100 0 4 98 0 0 0 0 0 0 0 0 1 0 0 1 5 5 0 0 3 5 1 5 50 6 7 5 5 0 1 6 89 59 23 0 0 4 0 12 0
100 100 100 100 100 100 92 1 24 76 0 0 0 0 0 0 0 0 0 0 0 0 0 0 2 1 1 0 7 52 38 15 53 19 5 3 18 6 40 72 6 8 47 65 62 5 13
100 100 100 100 100 100 35 0 73 60 0 0 0 0 0 0 0 0 0 0 0 0 0 9 5 5 5 7 5 20 11 51 80 12 20 52 90 49 80 65 80 19 6 26 51 52 5
100 100 100 100 100 100 96 1 100 62 0 0 0 0 0 0 0 0 0 0 0 0 14 15 6 5 1 20 41 32 87 98 59 34 5 76 39 95 100 100 71 91 98 81 97 31 5

GFSGBSN_prec_cloud_069.txt.gz
Cloud_Cover
100 100 71 1 0 0 0 0 0 0 0 0 0 12 15 30 11 5 10 1 4 4 0 9 36 0 0 0 0 0 0 0 0 0 0 0 0 0 0 0 2 97 69 5 5 8 81
100 100 87 0 0 0 0 0 0 0 0 0 16 10 21 16 14 11 4 9 2 8 0 1 23 13 0 0 0 0 0 0 0 0 0 0 0 0 0 0 28 23 7 5 5 5 26
100 100 89 0 0 0 0 0 0 0 0 6 15 20 40 14 11 0 0 0 2 0 0 1 2 0 0 0 0 0 0 0 0 0 0 0 0 0 0 0 6 0 0 0 0 5 59
100 100 85 4 0 0 0 0 0 0 11 17 14 20 17 6 1 0 1 0 0 0 0 0 6 0 0 0 0 0 0 0 0 0 0 0 0 0 0 0 0 0 0 0 0 5 5
100 86 44 2 0 0 0 0 1 19 13 20 30 45 8 2 0 0 0 0 0 0 0 0 1 0 0 0 0 0 0 0 0 0 0 0 0 0 0 0 0 0 0 0 0 5 5
100 24 0 0 0 0 0 18 61 100 24 24 18 3 0 0 0 3 4 0 0 0 1 0 0 0 0 0 0 0 0 0 0 0 0 0 0 0 0 0 0 0 0 0 5 22 55
0 0 0 0 10 50 71 100 100 99 2 0 0 0 0 0 10 38 60 0 0 0 0 0 0 0 0 0 0 0 0 0 0 0 0 0 0 0 0 0 0 0 0 4 5 5 3
0 0 4 40 39 99 100 100 100 82 0 0 0 0 0 15 33 22 61 0 0 0 0 0 0 0 0 0 0 0 0 0 0 0 0 0 0 0 0 0 0 0 0 5 77 43 0
0 0 0 1 78 100 100 57 100 5 1 0 0 5 29 24 11 1 0 0 0 0 0 0 0 0 0 0 0 0 0 0 0 0 0 0 0 0 0 0 0 0 0 69 51 5 0
2 9 60 0 100 100 100 90 100 5 2 4 1 20 26 80 0 0 0 0 0 5 5 0 2 0 0 0 0 0 0 0 0 0 0 0 0 0 0 0 0 0 0 9 3 1 0
0 36 87 57 81 38 25 100 100 15 4 0 5 23 19 58 5 0 3 5 5 42 89 5 8 6 0 0 0 0 0 0 0 0 0 0 0 0 0 0 0 0 0 0 0 0 0
39 5 61 62 57 42 5 100 100 39 0 0 0 9 70 13 3 0 5 46 100 98 100 72 28 32 4 0 0 0 0 0 0 0 0 0 0 0 0 0 0 0 0 0 0 0 0
4 3 30 88 100 100 4 100 100 2 1 0 0 0 85 0 0 37 100 100 100 98 79 91 100 100 66 5 2 0 0 0 0 0 0 0 0 0 0 0 0 0 0 0 0 0 0
0 26 100 100 100 100 27 100 100 5 1 0 0 0 1 0 0 0 100 78 84 99 94 50 15 25 82 67 5 0 0 0 0 0 0 0 0 0 0 0 0 0 0 0 0 0 0
5 29 100 100 100 100 50 100 80 38 0 0 0 2 0 5 4 7 99 33 23 82 93 76 97 73 5 84 31 5 0 0 0 0 0 0 0 0 0 0 0 0 0 0 0 0 0
5 84 100 100 100 52 100 100 100 39 8 11 0 2 2 5 41 14 100 100 96 75 48 93 88 47 5 49 97 47 0 0 0 0 0 0 0 0 0 0 0 0 0 0 0 0 0
5 68 100 100 78 11 100 100 100 1 14 0 1 5 84 5 95 80 100 100 100 100 100 64 58 100 94 100 96 100 98 63 12 0 0 0 0 0 0 0 0 0 0 0 0 0 0
5 17 80 95 39 56 100 100 100 0 15 2 0 3 21 95 80 100 100 100 100 100 100 100 96 81 99 95 48 77 100 15 91 46 5 4 1 0 0 0 0 0 0 0 0 0 0
99 100 96 99 89 100 100 100 100 5 67 39 0 0 36 95 100 97 100 100 100 95 95 100 100 100 100 59 3 45 68 72 100 100 100 43 24 24 0 0 0 0 0 0 0 0 0
99 100 100 100 98 100 100 100 100 44 0 0 0 0 0 71 100 62 70 100 100 100 100 100 76 9 2 5 0 0 23 96 100 100 100 100 100 100 81 5 2 0 0 0 0 0 0
90 99 100 100 100 100 100 100 100 85 0 0 0 0 0 0 98 100 95 29 100 100 100 100 100 99 96 11 0 0 0 10 91 53 23 45 55 100 100 47 5 5 5 0 0 0 0
95 100 96 100 100 100 100 100 100 1 0 0 0 0 0 0 0 99 100 100 100 100 97 100 100 100 100 99 5 0 3 5 2 2 27 62 60 79 100 100 90 5 5 4 0 0 0
64 100 100 100 100 100 100 100 100 1 12 0 0 0 0 0 0 0 20 48 52 90 90 5 41 98 99 84 50 5 0 0 2 0 0 0 9 24 74 100 100 100 7 5 1 0 0
99 100 100 100 100 100 100 94 73 30 10 0 0 0 0 0 0 0 0 0 1 5 7 5 5 4 1 2 4 5 5 0 0 0 0 0 0 0 6 92 100 98 7 5 5 0 0
100 100 100 100 100 100 100 100 100 100 5 0 0 0 0 0 0 0 0 0 0 0 0 0 0 0 0 0 0 1 2 3 5 5 1 0 0 0 0 4 2 15 100 82 19 4 0
100 100 100 100 100 100 100 100 100 70 0 0 0 0 0 0 0 0 0 0 0 0 0 3 0 0 0 0 0 5 6 5 5 4 5 0 0 0 16 5 5 1 1 0 5 5 0
100 100 100 100 100 100 100 100 100 0 0 0 0 0 0 0 0 0 0 0 0 0 0 0 1 0 1 0 6 4 55 16 5 5 5 12 20 3 5 10 4 0 0 2 4 4 4
100 100 100 100 100 100 100 98 58 1 0 0 0 0 0 0 0 0 0 0 0 0 4 5 2 0 0 6 8 39 5 53 25 5 10 11 75 49 56 59 36 5 3 4 22 0 0
100 100 100 100 100 100 100 100 100 0 0 0 0 0 0 0 0 0 0 0 0 0 0 0 0 2 5 22 32 18 75 95 83 55 5 27 8 14 13 4 4 5 5 4 4 4 2

GFSGBSN_prec_cloud_072.txt.gz
Cloud_Cover
100 100 100 72 0 0 0 0 0 0 0 9 6 10 61 77 8 16 9 7 13 12 6 18 98 9 0 0 0 0 0 0 0 0 0 0 0 0 0 0 6 90 5 6 5 5 99
100 100 100 97 4 0 0 0 0 1 4 28 36 42 39 13 4 13 9 13 8 19 15 2 95 39 0 0 0 0 0 0 0 0 0 0 0 0 0 0 12 27 4 15 5 5 44
47 53 97 67 0 0 0 0 3 32 86 100 100 79 43 36 5 9 10 10 9 14 16 0 72 11 0 0 0 0 0 0 0 0 0 0 0 0 0 0 0 0 1 3 5 5 5
100 79 0 0 0 2 6 24 60 100 100 100 100 81 14 12 4 13 27 34 19 13 15 0 57 8 0 0 0 0 0 0 0 0 0 0 0 0 0 0 0 0 1 4 5 5 5
18 0 0 0 4 23 100 100 100 100 100 42 62 10 3 4 35 92 84 29 7 0 0 27 3 0 0 0 0 0 0 0 0 0 0 0 0 0 0 0 0 0 0 0 0 5 5
0 0 0 35 99 100 100 100 100 98 29 10 5 78 4 22 75 100 84 0 6 0 1 3 0 0 0 0 0 0 0 0 0 0 0 0 0 0 0 0 0 0 0 0 0 2 5
0 12 24 100 100 100 100 100 0 8 46 5 5 45 19 100 100 100 57 0 0 0 0 0 0 0 0 0 0 0 0 0 0 0 0 0 0 0 0 0 0 0 0 0 0 5 5
9 77 100 96 100 100 100 69 21 89 44 37 53 71 92 100 100 86 44 0 0 0 0 0 0 0 0 0 0 0 0 0 0 0 0 0 0 0 0 0 0 0 0 1 5 5 5
47 78 100 98 100 100 87 85 3 10 49 100 66 59 100 100 11 1 0 0 0 1 1 0 0 0 0 0 0 0 0 0 0 0 0 0 0 0 0 0 0 0 0 3 25 5 3
9 20 100 100 100 100 99 34 9 13 100 93 51 98 100 100 0 0 0 0 4 82 45 3 4 5 1 0 0 0 0 0 0 0 0 0 0 0 0 0 0 0 0 2 99 6 4
0 23 100 100 100 100 100 74 1 73 100 96 100 100 100 94 11 0 0 5 60 82 100 56 92 76 5 4 0 0 0 0 0 0 0 0 0 0 0 0 0 0 0 11 87 65 5
4 20 100 100 100 100 75 2 5 11 49 96 100 90 100 27 3 0 0 98 99 100 98 99 100 92 68 73 64 0 0 0 0 0 0 0 0 0 0 0 0 0 0 4 24 80 3
1 48 100 100 100 100 53 5 5 31 100 100 100 58 92 0 0 0 64 79 81 100 25 71 77 100 100 100 100 19 0 0 0 0 0 0 0 0 0 0 0 0 0 0 15 6 0
1 100 100 100 100 44 19 40 5 100 100 100 40 4 2 0 0 1 89 64 94 100 99 93 100 81 100 100 100 100 1 0 0 0 0 0 0 0 0 0 0 0 0 0 0 0 0
5 100 100 100 70 2 12 5 5 100 100 74 0 0 3 0 3 2 65 100 100 100 100 96 100 100 100 99 98 100 37 0 0 0 0 0 0 0 0 0 0 0 0 0 0 0 0
5 100 100 100 5 2 41 5 6 100 100 30 0 0 6 5 5 19 86 86 100 100 100 97 100 100 100 100 65 100 100 24 0 0 0 0 0 0 0 0 0 0 0 0 0 0 0
6 75 100 71 5 5 5 5 20 88 13 0 5 0 4 60 5 21 100 100 100 100 100 100 100 100 100 100 100 100 100 99 5 0 0 0 0 0 0 0 0 0 0 0 0 0 0
5 39 100 71 33 5 5 5 67 57 5 5 0 0 1 100 5 74 100 100 100 100 100 100 100 100 100 100 100 100 100 100 100 99 40 4 0 0 0 0 0 0 0 0 0 0 0
5 19 100 71 53 5 12 6 100 98 15 3 0 0 0 78 73 60 100 100 100 100 82 88 99 100 82 95 100 100 100 100 100 100 100 100 77 2 0 0 0 0 0 0 0 0 0
26 10 100 43 49 33 100 90 100 87 61 0 0 0 0 0 87 43 100 100 100 100 100 100 94 58 87 32 13 80 100 100 100 100 100 100 72 0 0 0 0 0 0 0 0 0 0
99 87 100 48 44 100 100 100 100 40 22 0 0 0 0 0 6 99 89 98 100 100 100 100 100 100 25 21 55 87 100 100 100 100 100 100 100 100 18 0 0 0 0 0 0 0 0
98 98 100 59 100 100 100 100 100 5 4 0 0 0 0 0 0 33 61 92 69 100 100 100 100 100 94 26 2 0 0 20 94 100 99 100 100 100 100 65 12 5 2 0 0 0 0
5 7 74 65 100 100 96 93 100 5 5 0 0 0 0 0 0 0 9 31 91 88 96 100 90 100 100 100 95 34 3 1 0 6 97 100 100 100 100 96 24 5 5 5 5 0 0
88 88 97 100 100 100 100 100 100 81 2 0 0 0 0 0 0 0 0 0 36 33 6 5 53 95 31 28 51 100 97 46 5 5 4 14 91 100 100 95 9 5 5 4 5 5 1
75 100 100 100 100 100 100 92 100 87 2 0 0 0 0 0 0 0 0 0 0 0 1 5 4 2 5 5 5 5 14 88 71 11 5 5 5 3 42 100 79 26 5 5 0 0 1
100 100 100 100 100 94 100 42 99 92 2 0 0 0 0 0 0 0 0 0 0 0 0 0 0 0 0 0 4 5 5 5 5 67 39 5 5 3 5 5 5 5 5 5 5 2 0
100 100 100 100 100 98 100 79 100 47 0 0 0 0 0 0 0 0 0 0 0 0 0 0 0 0 0 0 23 10 46 44 5 5 5 22 12 3 5 8 2 2 0 0 0 2 13
100 100 100 100 100 100 97 74 100 0 5 0 0 0 0 0 0 0 0 0 0 0 0 1 2 3 1 11 11 62 18 81 51 5 5 5 31 89 39 7 5 0 0 0 0 0 0
100 100 100 100 100 100 57 95 81 2 5 1 0 0 0 0 0 0 0 0 0 0 0 5 12 5 1 43 52 17 10 45 87 5 5 5 5 14 4 4 0 4 4 0 0 0 0

GFSGBSN_prec_cloud_075.txt.gz
Cloud_Cover
94 89 95 99 1 0 0 0 2 2 23 62 100 100 99 94 72 26 6 17 14 16 18 19 16 78 0 0 0 0 0 0 0 0 0 0 0 0 0 0 29 48 5 5 30 59 100
70 49 1 6 2 0 1 41 98 100 100 100 100 100 95 68 37 0 10 14 22 33 23 25 27 36 0 0 0 0 0 0 0 0 0 0 0 0 0 0 25 5 1 5 4 5 31
4 0 0 15 50 92 100 100 100 100 100 100 94 14 62 64 5 0 54 99 43 17 23 16 82 4 0 0 0 0 0 0 0 0 0 0 0 0 0 0 0 14 2 5 5 5 5
0 0 67 97 100 100 100 100 100 77 67 13 67 29 17 70 95 100 100 90 58 96 66 1 50 2 0 0 0 0 0 0 0 0 0 0 0 0 0 0 0 0 1 4 5 5 6
17 45 100 100 100 100 100 100 94 79 67 95 62 10 20 97 100 100 100 16 5 0 12 52 3 0 0 0 0 0 0 0 0 0 0 0 0 0 0 0 0 5 4 4 9 5 60
13 60 100 100 100 100 100 100 100 100 100 99 0 4 95 100 100 100 35 8 23 10 31 3 0 0 0 0 0 0 0 0 0 0 0 0 0 0 0 0 0 0 0 2 5 3 77
93 100 100 100 100 100 100 100 100 100 100 46 0 40 100 100 100 100 17 0 0 0 0 0 0 0 0 0 0 0 0 0 0 0 0 0 0 0 0 0 0 0 0 0 4 2 50
73 100 100 100 100 100 100 100 34 5 26 19 21 100 100 100 100 100 22 0 0 0 0 0 0 0 0 0 0 0 0 0 0 0 0 0 0 0 0 0 0 0 0 0 4 5 7
80 88 100 100 100 100 100 100 0 0 27 63 65 100 100 100 42 31 0 0 0 0 0 0 0 0 0 0 0 0 0 0 0 0 0 0 0 0 0 0 0 0 0 3 3 2 5
4 13 100 100 100 100 100 72 4 0 9 51 100 100 100 100 0 0 0 0 0 5 0 1 4 14 2 2 0 0 0 0 0 0 0 0 0 0 0 0 0 0 0 3 2 3 5
0 6 100 100 100 100 100 2 0 9 32 100 100 100 100 98 0 0 0 0 4 93 84 22 92 68 5 8 0 0 0 0 0 0 0 0 0 0 0 0 0 0 0 1 5 5 3
4 29 100 100 100 36 8 0 19 35 97 100 100 100 100 30 0 0 0 0 56 84 79 84 100 100 69 13 33 4 0 0 0 0 0 0 0 0 0 0 0 0 0 0 2 3 0
4 2 81 100 25 1 2 10 28 35 100 100 98 77 71 0 0 0 2 39 93 100 88 100 100 100 100 100 100 91 3 0 0 0 0 0 0 0 0 0 0 0 0 0 2 0 2
5 2 72 100 26 0 5 7 22 50 100 100 56 6 4 0 0 0 2 64 100 99 100 100 100 100 100 93 98 100 100 3 0 0 0 0 0 0 0 0 0 0 0 0 0 0 0
0 4 70 100 0 3 0 4 1 40 100 99 6 1 0 0 0 0 2 100 100 100 100 100 100 100 100 86 100 100 100 97 0 0 0 0 0 0 0 0 0 0 0 0 0 0 0
0 0 100 100 0 5 1 5 5 26 94 84 1 0 0 0 5 2 68 82 100 100 100 99 100 92 95 52 96 98 100 100 52 0 0 0 0 0 0 0 0 0 0 0 0 0 0
0 1 66 100 1 4 0 5 4 7 43 10 2 0 0 0 13 25 86 100 100 98 100 100 100 100 100 100 100 100 100 100 100 24 0 0 0 0 0 0 0 0 0 0 0 0 0
0 1 44 72 5 5 5 5 3 1 12 10 3 0 0 0 9 83 100 100 100 100 100 100 100 100 100 100 100 100 100 100 100 100 3 0 0 0 0 0 0 0 0 0 0 0 0
1 3 24 88 5 5 5 5 5 2 5 13 0 0 0 0 1 93 74 92 100 100 100 100 100 100 89 100 100 100 100 100 100 100 100 2 0 0 0 0 0 0 0 0 0 0 0
5 5 56 67 7 29 14 9 5 0 27 5 0 0 0 0 0 52 100 88 100 100 86 72 69 97 88 100 100 100 100 100 100 100 100 47 1 0 0 0 0 0 0 0 0 0 0
38 29 12 40 89 14 94 69 5 0 10 13 0 0 0 0 0 2 100 100 99 100 100 100 78 7 76 100 98 96 100 100 100 100 100 100 99 7 0 0 0 0 0 0 0 0 0
65 100 100 50 100 100 94 100 30 5 5 5 0 0 0 0 0 0 4 79 100 100 100 100 100 100 6 5 11 95 100 100 98 100 100 100 100 100 100 65 5 0 0 0 0 0 0
46 99 100 100 100 100 100 100 11 5 12 0 0 0 0 0 0 0 0 4 44 83 100 100 100 100 98 66 5 24 84 100 100 100 100 100 100 97 90 93 99 99 12 0 0 0 0
100 100 100 100 100 100 100 100 18 48 40 0 0 0 0 0 0 0 0 0 0 5 14 89 100 100 100 100 90 37 5 3 3 16 97 100 100 100 100 100 66 6 93 80 50 3 0
100 88 100 100 100 100 100 100 7 100 54 5 0 0 0 0 0 0 0 0 0 0 1 5 6 54 100 100 100 100 97 32 5 0 0 24 97 100 75 28 8 5 23 5 18 23 5
100 100 100 100 100 100 100 100 33 100 100 100 2 0 0 0 0 0 0 0 0 0 0 0 0 4 5 5 8 76 100 100 100 100 65 6 1 3 31 5 5 5 5 5 5 5 5
100 100 100 100 100 100 100 100 79 100 100 100 0 0 0 0 0 0 0 0 0 0 0 0 0 0 0 1 3 5 16 48 57 99 100 100 73 13 5 3 3 5 5 5 5 16 32
100 100 100 100 100 100 100 98 100 100 100 96 1 0 0 0 0 0 0 0 0 0 0 0 2 0 0 1 2 7 5 37 5 4 5 5 16 56 37 10 5 4 0 1 1 3 0
100 100 100 100 100 100 100 100 100 100 100 46 5 0 0 0 0 0 0 0 0 1 1 4 2 0 0 0 26 6 19 69 7 5 4 4 3 4 2 4 5 5 5 0 0 0 0

GFSGBSN_prec_cloud_078.txt.gz
Cloud_Cover
0 0 2 4 21 49 94 100 100 100 100 100 100 97 48 20 11 13 15 12 21 17 10 0 20 2 16 0 0 0 0 0 0 0 0 0 0 0 0 62 100 15 24 70 53 100 100
0 8 17 32 100 100 100 100 100 100 78 91 15 15 11 35 15 7 6 73 100 55 19 11 12 1 0 0 0 0 0 0 0 0 0 0 0 0 0 37 96 14 13 17 34 80 57
11 8 62 100 100 100 100 100 100 93 85 73 99 73 94 77 56 99 100 95 40 90 54 0 16 1 0 0 0 0 0 0 0 0 0 0 0 0 0 0 0 1 5 5 5 7 5
28 100 100 100 100 100 100 100 100 100 100 100 100 100 100 100 100 100 100 20 30 30 92 0 5 0 0 0 0 0 0 0 0 0 0 0 0 0 0 0 0 2 4 39 9 9 5
100 100 100 100 100 100 100 100 100 100 100 100 100 76 100 100 100 100 71 97 54 7 2 8 2 0 0 0 0 0 0 0 0 0 0 0 0 0 0 0 0 0 34 45 4 5 5
57 100 100 100 100 100 100 100 100 100 99 85 4 100 100 100 100 100 2 4 12 0 0 0 0 0 0 0 0 0 0 0 0 0 0 0 0 0 0 0 0 5 40 4 65 5 26
5 7 100 100 100 100 100 100 66 8 5 0 52 100 100 100 100 84 1 0 0 0 0 0 0 0 0 0 0 0 0 0 0 0 0 0 0 0 0 0 4 20 20 32 6 3 64
1 10 100 100 100 100 100 100 0 0 2 30 100 100 100 100 99 26 7 5 11 8 0 0 0 0 0 0 0 0 0 0 0 0 0 0 0 0 0 0 0 0 4 4 0 0 13
0 41 90 100 100 100 57 6 0 0 12 100 100 100 100 84 6 30 0 2 1 5 2 0 0 0 0 0 0 0 0 0 0 0 0 0 0 0 0 0 0 0 4 4 4 0 0
0 0 0 71 100 52 0 0 0 8 97 100 100 99 100 1 47 0 0 0 0 0 0 0 0 0 0 0 0 0 0 0 0 0 0 0 0 0 0 0 0 0 0 8 0 1 16
0 0 2 100 76 0 0 0 0 46 100 100 100 100 91 64 0 0 0 0 0 0 0 0 1 0 0 2 0 0 0 0 0 0 0 0 0 0 0 0 0 4 0 0 1 0 0
0 0 16 100 99 0 0 0 20 76 100 100 100 100 38 28 0 0 0 0 0 34 99 27 38 1 3 95 7 0 0 0 0 0 0 0 0 0 0 0 0 0 0 0 5 0 0
1 0 1 37 33 0 0 0 25 88 100 100 100 66 44 0 0 0 0 0 55 100 11 86 100 90 100 100 95 5 2 4 1 0 0 0 0 1 15 1 0 0 0 0 1 0 0
49 0 0 64 0 0 0 2 24 71 100 100 88 34 1 0 0 0 0 27 100 63 100 7 100 100 100 100 100 100 74 87 5 0 2 1 0 0 0 0 0 0 0 0 3 0 0
90 5 0 87 5 3 2 0 5 31 100 100 36 0 0 0 0 0 0 100 13 100 41 100 100 100 100 100 100 100 98 85 32 0 81 92 3 0 0 0 0 0 0 17 5 5 4
97 0 1 3 2 4 16 18 5 14 33 68 0 0 0 0 0 4 96 97 95 81 100 100 100 100 100 100 100 100 96 100 99 41 22 79 6 0 0 0 0 0 0 0 0 2 4
89 2 4 4 5 25 5 29 5 15 21 4 0 0 0 0 0 5 93 100 100 100 100 100 100 100 100 100 96 100 100 100 100 100 2 0 1 0 0 0 0 0 0 0 0 0 1
94 5 4 2 5 68 92 99 12 5 16 64 0 0 0 0 4 12 94 69 100 98 98 100 100 100 100 100 100 100 100 100 100 100 94 5 2 0 0 0 0 0 0 0 0 0 0
96 15 8 38 100 87 76 100 99 6 5 0 0 0 0 0 5 85 100 100 100 100 100 96 100 100 100 100 96 99 97 100 100 100 100 11 3 0 0 0 0 0 0 0 0 0 3
98 92 48 100 100 100 100 100 99 88 40 12 3 0 0 0 0 2 100 90 83 100 100 100 100 100 100 100 100 100 100 60 63 100 100 99 19 1 2 0 0 0 0 0 0 1 21
100 100 100 100 100 100 100 100 100 89 5 12 0 1 0 0 0 0 83 100 82 100 91 100 100 100 100 100 100 100 100 87 100 72 100 100 25 3 0 0 0 0 0 0 0 0 5
100 79 26 99 100 99 100 100 100 99 26 5 4 2 0 0 0 0 2 73 100 66 92 100 51 100 100 100 100 100 100 100 100 100 100 100 100 100 6 0 0 0 0 0 0 0 0
100 93 100 100 100 100 100 100 100 100 51 5 5 2 0 0 0 0 0 3 86 100 90 100 74 100 18 28 68 100 97 74 48 72 100 81 100 100 100 100 26 0 0 0 0 0 0
100 98 98 100 100 100 100 100 100 100 50 29 76 0 0 0 0 0 0 0 2 42 100 100 100 100 83 84 79 19 11 84 33 5 13 95 100 100 100 100 100 29 2 0 0 0 0
100 100 100 100 100 100 100 100 100 100 7 32 99 0 0 0 0 0 0 0 0 1 6 97 100 100 100 100 95 25 10 4 10 7 52 62 63 85 100 100 7 23 100 60 4 0 0
100 100 100 100 100 100 100 100 100 100 100 44 99 2 0 0 0 0 0 0 0 0 0 1 7 75 100 100 100 100 23 5 1 0 4 5 38 100 100 93 85 8 60 61 40 6 5
100 100 100 100 100 100 100 100 100 100 100 69 78 15 0 0 0 0 0 0 0 0 0 0 0 2 0 34 98 100 100 100 52 5 2 1 6 62 98 100 100 100 100 100 94 6 5
100 100 100 100 100 100 100 100 100 100 100 86 95 86 0 1 0 0 0 0 0 0 0 0 0 0 0 3 4 5 34 98 100 100 88 22 5 5 5 5 38 100 100 100 82 90 8
100 100 100 100 100 100 100 100 100 100 100 100 100 83 0 5 4 0 0 5 0 0 0 0 0 0 0 1 2 5 5 20 10 5 34 75 65 31 5 17 0 0 1 24 5 5 5

GFSGBSN_prec_cloud_081.txt.gz
Cloud_Cover
3 20 100 100 100 100 100 100 100 100 62 13 12 7 2 3 10 10 18 13 33 83 12 8 0 0 0 0 0 0 0 0 0 0 0 0 0 0 38 92 5 88 100 21 100 99 91
12 40 100 100 100 100 100 100 100 100 100 100 100 100 100 40 10 28 91 100 71 23 14 11 0 0 0 0 0 0 0 0 0 0 0 0 0 0 24 29 82 89 74 92 33 100 100
23 49 100 100 100 100 100 100 100 100 100 100 100 100 100 52 100 100 100 92 14 76 99 7 0 1 0 0 0 0 0 0 0 0 0 0 0 0 0 62 95 69 38 33 27 36 100
8 100 100 100 100 100 100 100 93 100 100 92 92 8 68 23 12 100 93 5 0 21 44 6 2 0 0 0 0 0 0 0 0 0 0 0 0 0 0 14 42 10 72 97 32 41 68
7 10 100 100 100 100 100 100 100 100 90 95 13 6 19 100 99 90 67 0 19 0 1 0 2 0 0 0 0 0 0 0 0 0 0 0 0 0 0 0 1 1 69 92 37 34 18
12 12 100 100 100 100 100 100 100 7 0 21 99 100 37 100 90 38 6 0 0 48 0 0 0 0 0 0 0 0 0 0 0 0 0 0 0 0 0 0 2 5 56 82 74 32 8
5 1 88 100 100 100 96 44 0 0 0 36 100 100 100 100 100 85 96 85 34 5 0 0 0 0 0 0 0 0 0 0 0 0 0 0 0 0 0 0 7 97 16 100 90 31 97
0 0 28 94 89 5 0 0 0 0 41 100 100 100 100 100 94 100 57 22 2 4 3 0 0 0 0 0 0 0 0 0 0 0 0 0 0 0 0 1 5 0 100 88 44 100 76
0 0 1 35 77 0 0 0 0 1 100 100 79 67 64 17 5 33 89 100 100 84 13 5 0 0 0 0 0 0 0 0 0 0 0 0 0 0 0 0 4 3 100 94 2 4 3
2 1 0 10 5 0 0 0 0 29 100 98 100 100 40 0 54 0 0 6 30 87 31 5 18 4 0 0 0 0 0 0 0 0 0 0 0 0 0 0 1 5 5 100 39 5 5
100 0 0 0 0 0 0 0 0 64 100 100 56 63 94 81 0 0 0 0 0 0 0 0 3 20 2 5 0 0 0 0 0 0 0 0 0 0 0 1 1 4 12 58 96 0 100
100 4 0 2 0 0 4 0 0 45 100 100 100 100 96 0 0 0 0 0 0 1 71 79 0 0 0 0 4 4 0 1 0 0 0 0 0 0 0 0 1 4 58 14 48 3 5
100 4 0 0 0 3 0 4 8 14 100 100 100 100 51 0 1 0 0 0 53 88 88 98 57 15 50 5 64 16 0 5 5 2 0 0 0 3 0 3 4 8 82 55 16 1 4
100 8 0 0 0 5 0 2 5 5 8 68 53 53 1 0 0 0 0 44 95 100 100 35 9 100 94 100 100 29 65 41 8 18 2 3 56 15 4 4 4 5 3 5 4 4 4
100 44 0 1 0 0 4 10 5 6 5 6 40 4 2 0 0 0 5 97 99 72 24 99 59 100 100 100 100 100 100 90 98 69 66 32 97 94 53 25 45 9 2 2 75 20 7
100 63 5 5 50 6 97 9 10 65 13 86 9 5 5 0 0 0 88 51 98 5 5 87 100 100 100 83 100 100 100 86 84 34 6 98 100 4 0 0 3 22 3 7 22 98 93
100 81 27 5 5 76 42 95 88 34 97 86 12 7 0 0 0 26 100 100 14 94 88 100 100 100 99 100 100 80 100 70 9 77 55 91 100 3 0 0 0 0 0 10 79 94 100
100 95 58 83 62 90 76 100 100 100 98 100 7 51 0 0 61 56 100 58 56 100 100 100 100 98 100 69 100 100 100 96 49 100 99 86 100 15 0 0 0 4 5 5 6 6 94
100 96 100 87 98 100 100 100 100 100 100 92 6 3 0 0 100 100 100 45 44 100 100 100 100 100 100 100 99 95 64 88 100 100 96 89 6 99 4 0 0 0 0 4 35 98 67
100 98 100 100 100 100 100 100 100 100 100 95 12 15 2 0 0 3 76 89 74 98 100 100 100 100 100 100 100 62 100 100 86 100 100 100 92 100 76 11 0 0 0 0 4 6 93
100 100 99 100 100 100 100 100 100 100 100 100 9 4 2 7 0 0 7 100 46 82 99 99 100 100 100 100 100 100 100 87 98 87 93 100 100 80 1 0 2 4 0 0 0 2 98
100 100 100 100 100 100 100 100 100 100 100 100 12 7 0 0 0 0 0 61 100 66 34 28 99 100 100 100 100 100 100 100 100 100 100 70 100 93 5 0 0 0 0 0 0 0 76
100 74 99 100 100 100 100 100 100 100 100 94 10 56 0 0 0 4 0 1 98 97 100 5 6 58 92 100 100 100 100 100 100 100 100 100 100 17 100 13 0 0 0 0 0 0 2
100 72 17 99 94 100 100 100 100 100 100 70 70 82 2 0 0 0 0 0 1 100 94 100 27 9 88 73 100 89 100 71 100 97 100 100 100 100 100 95 50 5 0 0 0 0 0
100 100 78 97 97 100 100 100 100 100 100 97 13 37 30 0 0 0 0 0 0 0 29 48 94 100 57 42 84 100 76 96 95 23 65 82 100 100 87 94 100 75 13 0 0 0 0
100 100 98 99 100 100 100 100 100 100 100 67 5 100 32 5 1 0 0 1 3 2 0 5 99 71 99 100 76 9 35 16 5 94 7 25 100 100 100 100 100 100 100 100 36 2 0
100 94 92 100 99 100 100 100 100 100 100 52 28 100 60 5 0 1 5 4 0 0 4 0 0 60 88 100 100 97 88 24 8 5 46 93 65 47 100 100 100 5 95 100 100 53 30
87 100 99 95 95 100 100 100 100 100 100 81 100 98 63 2 2 0 0 0 0 3 5 0 2 0 0 4 43 100 99 88 48 32 65 11 7 60 68 100 98 100 100 100 57 21 32
95 100 91 100 100 100 100 100 100 100 100 100 100 100 79 5 16 0 0 0 0 0 4 0 2 3 0 2 1 3 14 69 96 46 5 9 70 85 11 95 15 16 100 100 100 48 7

GFSGBSN_prec_cloud_084.txt.gz
Cloud_Cover
12 53 100 100 100 100 100 100 100 100 100 100 100 100 96 83 13 15 14 26 44 20 18 10 0 0 0 0 0 0 0 0 0 0 0 0 0 1 21 83 38 99 93 76 5 20 58
10 23 100 100 100 100 100 100 100 98 96 100 100 100 100 100 35 30 85 100 92 16 27 9 1 0 0 0 0 0 0 0 0 0 0 0 0 0 100 60 20 100 48 96 29 96 88
4 3 96 100 100 100 100 99 76 44 96 88 100 100 71 52 100 98 41 100 21 14 92 96 13 0 0 0 0 0 0 0 0 0 0 0 0 11 16 99 5 100 77 94 78 51 75
6 4 61 100 100 100 100 79 94 0 0 0 1 15 54 32 55 96 38 3 0 44 34 12 9 0 0 0 0 0 0 0 0 0 0 0 0 0 0 74 38 84 89 100 99 22 100
4 0 20 100 100 100 93 97 67 29 0 0 19 80 16 0 0 20 0 0 0 74 2 10 0 0 0 0 0 0 0 0 0 0 0 0 0 0 0 9 73 98 77 20 79 22 18
11 2 24 96 82 87 22 0 0 0 1 29 100 98 0 4 18 11 0 0 0 17 17 0 0 0 0 0 0 0 0 0 0 0 0 0 0 0 0 2 9 5 22 99 61 34 91
15 1 6 94 79 0 0 0 0 6 46 100 53 49 47 45 86 0 2 1 0 2 0 0 0 0 0 0 0 0 0 0 0 0 0 0 0 0 0 0 2 7 3 100 86 64 23
95 0 0 31 13 0 0 0 0 13 100 100 100 95 100 14 0 4 6 27 7 5 5 4 0 0 0 0 0 0 0 0 0 0 0 0 0 0 0 0 0 6 100 99 5 98 100
100 54 4 0 0 0 0 0 0 8 92 100 100 100 74 0 5 39 2 40 100 100 5 15 5 3 0 0 0 0 0 0 0 0 0 0 0 0 0 0 0 1 82 48 83 100 16
99 100 10 5 2 4 0 0 1 20 98 100 100 100 93 6 22 0 0 3 7 100 100 34 14 5 0 0 0 0 0 0 0 0 0 0 0 0 0 0 0 0 10 92 98 100 78
53 100 5 4 5 4 0 3 4 4 36 100 100 100 100 90 0 0 0 0 0 0 58 100 61 5 5 2 0 0 0 0 0 0 0 0 0 0 0 0 0 4 98 72 100 100 33
81 100 12 3 3 0 5 3 0 0 0 27 53 100 98 5 5 0 0 0 0 0 54 85 68 100 47 2 2 2 0 0 0 5 0 0 0 0 0 0 0 0 64 83 81 7 5
99 100 18 5 2 0 0 0 0 2 1 3 5 15 45 84 5 0 0 0 15 33 24 27 80 2 38 98 1 4 4 2 1 2 0 0 0 0 0 0 2 2 15 52 29 18 5
100 100 39 5 5 5 8 6 7 5 51 28 5 76 96 16 4 0 0 21 71 75 70 7 33 54 5 19 60 5 37 5 4 5 2 0 0 0 5 0 1 4 4 13 23 17 17
100 96 39 5 5 7 65 70 97 62 73 100 87 100 95 6 0 0 27 89 93 99 98 46 2 1 100 100 96 100 93 6 8 7 13 13 0 11 5 5 28 6 0 58 100 20 13
100 92 75 70 78 91 72 76 100 89 94 100 100 100 89 5 0 0 52 100 100 100 0 22 100 74 100 98 100 98 90 97 91 100 86 100 13 100 28 32 30 96 2 4 12 100 100
100 98 92 51 58 100 98 96 100 100 100 100 100 100 89 1 0 88 100 100 100 60 3 68 66 47 82 95 69 50 100 54 100 27 66 98 2 18 96 0 7 3 30 2 3 99 100
100 100 89 5 50 100 86 99 82 100 100 100 88 100 73 5 3 100 100 9 19 100 100 99 62 99 100 100 89 63 100 15 100 77 88 100 88 64 21 5 1 85 60 5 5 0 45
100 87 91 37 49 65 20 92 99 100 100 100 100 100 5 7 68 100 100 30 32 100 92 99 100 100 91 94 100 100 99 97 98 100 100 60 71 80 100 25 1 0 4 18 27 9 95
100 100 85 15 5 5 62 82 100 100 100 77 100 100 64 14 5 54 98 100 44 100 97 100 100 100 100 97 62 100 98 100 40 32 100 100 100 93 84 65 24 0 2 14 57 40 80
96 99 9 5 31 5 59 100 100 100 100 98 100 92 9 90 43 3 0 99 68 85 87 100 100 100 100 100 100 100 100 99 5 44 100 100 100 100 100 100 31 0 0 14 4 1 100
84 99 93 35 17 91 100 100 100 100 100 100 100 94 3 100 1 5 0 23 100 3 94 100 100 100 100 100 100 100 94 100 23 58 84 43 100 100 100 84 1 6 3 4 0 0 87
100 100 66 5 48 86 99 100 98 100 100 100 100 49 7 100 24 87 6 0 44 94 11 57 100 100 100 100 100 100 100 100 85 89 100 99 40 69 8 1 0 3 16 0 0 32 73
100 100 100 12 5 86 100 100 100 100 100 100 100 7 92 58 6 0 0 0 9 92 59 68 56 98 100 100 100 99 100 100 100 100 100 97 96 82 90 89 73 82 1 0 0 0 63
97 100 100 87 64 100 100 100 100 100 100 100 99 17 100 91 2 0 0 0 0 12 96 12 94 92 91 100 100 100 100 100 100 100 100 100 100 100 100 99 93 4 2 4 2 78 3
100 100 88 77 12 100 100 100 100 100 100 100 100 100 100 100 12 0 0 3 61 5 4 66 14 99 26 97 100 100 100 100 100 100 100 100 100 100 100 100 55 100 8 0 0 68 4
96 97 84 6 66 100 100 100 100 100 100 100 100 100 100 100 10 1 24 4 0 2 16 0 5 94 30 98 14 90 100 100 100 100 100 100 100 100 100 100 100 100 48 98 61 23 0
34 33 96 95 100 100 100 100 100 100 100 100 100 100 100 100 17 0 0 0 0 5 75 2 9 4 24 39 82 96 30 28 98 100 100 97 90 100 100 100 100 100 84 68 100 64 1
7 7 49 100 98 100 100 100 100 100 100 100 100 99 100 100 60 0 0 0 0 0 4 1 7 0 5 5 3 23 100 100 54 67 100 100 72 100 100 100 92 93 98 100 100 100 98

GFSGBSN_prec_cloud_087.txt.gz
Cloud_Cover
14 11 29 100 100 100 100 100 100 100 100 100 100 100 100 83 14 77 41 34 99 100 15 25 23 7 0 0 0 0 0 0 0 0 0 0 0 0 24 95 41 62 76 100 100 100 87
6 10 40 100 100 100 100 100 100 100 100 100 100 100 100 63 96 96 100 100 98 40 70 100 52 0 0 0 0 0 0 0 0 0 0 0 0 0 93 100 28 95 92 91 100 100 7
0 0 68 100 100 100 100 61 13 34 9 2 9 100 100 100 100 100 100 99 4 5 96 100 94 0 0 0 0 0 0 0 0 0 0 0 0 2 100 81 82 93 37 100 46 100 85
0 0 2 100 100 100 98 27 0 0 0 0 22 100 100 100 86 85 54 0 0 3 94 51 31 0 0 0 0 0 0 0 0 0 0 0 0 4 4 41 73 88 84 100 9 71 18
42 0 0 88 100 89 2 0 0 0 0 15 100 100 100 100 86 72 3 0 0 0 53 0 6 0 0 0 0 0 0 0 0 0 0 0 0 0 0 1 12 11 84 10 44 24 68
100 53 0 22 97 51 5 5 0 0 12 100 100 100 100 58 100 88 0 0 0 0 25 0 0 0 0 0 0 0 0 0 0 0 0 0 0 0 0 0 0 5 5 37 100 24 20
100 100 19 0 11 0 0 0 3 5 97 100 100 100 100 100 0 0 0 0 0 0 0 0 0 0 0 0 0 0 0 0 0 0 0 0 0 0 0 0 0 0 39 45 100 100 90
69 100 88 0 0 0 0 0 0 3 100 100 100 100 98 100 0 4 22 0 0 0 0 0 0 0 0 0 0 0 0 0 0 0 0 0 0 0 0 0 0 2 100 98 100 100 86
100 100 100 4 0 0 0 0 0 0 26 100 100 100 100 100 14 21 0 0 0 0 2 3 2 0 0 0 0 0 0 0 0 0 0 0 0 0 0 0 0 5 100 88 100 100 90
100 100 100 5 0 0 0 0 0 0 5 24 100 100 100 100 16 2 2 0 0 0 51 67 64 13 2 0 0 0 0 0 0 0 0 0 0 0 0 0 0 5 12 92 67 100 73
100 100 100 3 7 5 5 5 0 0 0 2 25 84 100 97 5 44 63 6 0 0 0 52 100 90 6 5 0 0 0 0 0 0 0 0 0 0 0 0 0 0 12 100 100 99 100
100 100 100 87 59 5 5 4 2 3 4 5 5 83 93 32 9 54 59 74 4 0 1 28 60 100 100 18 5 5 0 0 0 0 0 0 0 0 0 0 0 0 16 40 94 27 97
100 100 100 43 5 5 5 5 4 5 5 69 7 95 86 40 92 85 6 1 1 2 0 82 96 47 100 98 13 2 45 0 0 0 0 0 0 0 0 0 0 0 67 49 97 100 5
100 100 100 70 5 5 5 5 39 37 5 93 5 79 98 94 21 9 29 3 39 8 81 6 39 4 9 100 100 25 99 1 0 0 0 0 0 0 0 0 0 0 67 94 20 100 92
100 100 100 81 5 5 5 5 78 27 55 5 43 88 100 79 5 5 0 5 40 20 83 100 6 98 5 10 100 100 100 15 0 0 0 5 0 0 0 0 0 0 3 14 100 99 54
100 100 100 86 5 5 5 5 5 5 5 16 98 98 41 83 85 3 3 17 36 94 37 78 4 63 2 5 12 70 97 88 74 5 5 40 4 0 0 2 0 0 3 9 44 5 88
100 100 100 89 5 4 4 3 5 5 6 53 100 92 58 100 95 5 60 26 52 44 98 100 88 85 2 8 97 36 100 86 100 8 5 100 5 0 30 12 0 0 2 0 5 30 29
100 100 100 78 0 0 1 4 5 25 100 54 89 34 29 100 1 4 39 100 100 99 62 100 74 88 78 100 97 32 76 100 88 5 95 14 5 1 7 7 13 5 5 0 5 18 100
100 100 100 10 2 4 3 38 100 100 99 100 17 72 100 54 32 7 95 100 100 100 96 77 69 96 98 51 100 100 80 100 88 78 99 5 43 13 3 93 52 77 59 5 0 52 91
100 100 62 11 5 0 5 48 100 100 100 100 97 100 100 93 100 32 81 96 99 1 94 99 100 100 100 100 100 100 100 90 100 50 52 95 89 52 82 29 98 100 40 2 0 1 98
100 93 100 35 5 2 6 44 99 100 100 99 100 100 100 88 19 7 1 30 77 98 92 96 100 100 100 100 100 100 100 100 100 100 100 98 100 46 86 100 50 3 7 3 63 6 100
100 100 98 17 5 5 41 37 72 100 100 100 88 100 95 48 36 62 14 2 100 92 61 86 100 8 47 86 68 76 100 100 100 100 100 100 100 100 100 100 13 0 0 0 99 90 72
100 100 90 5 3 5 6 98 86 99 100 100 100 100 82 30 99 33 8 0 5 96 6 94 100 96 76 100 100 100 100 100 100 100 100 100 100 100 100 100 89 100 100 92 100 100 5
85 87 100 59 0 4 9 96 100 100 100 100 100 100 100 9 98 0 0 0 0 84 66 90 100 100 100 100 11 99 100 100 100 100 37 68 100 100 100 97 99 69 26 18 100 97 0
100 100 99 11 5 16 30 100 100 100 100 100 100 100 100 36 88 3 0 0 0 0 88 58 89 100 100 100 32 81 100 100 100 100 53 84 100 100 100 100 100 99 100 96 100 96 0
88 77 2 5 4 6 83 90 100 100 100 100 100 100 95 98 94 4 0 1 70 69 3 7 33 88 14 100 100 91 25 100 100 98 100 65 2 99 100 100 100 100 27 45 100 5 0
83 5 5 3 0 42 52 70 74 96 100 98 99 97 92 99 100 8 4 1 0 1 61 0 1 54 78 100 100 100 100 100 100 100 100 100 100 99 90 100 98 32 100 82 100 15 30
92 6 5 5 5 73 95 18 32 99 100 95 98 93 100 100 100 5 0 0 0 3 18 4 2 0 6 49 46 100 100 100 95 100 100 100 100 100 100 100 100 85 100 58 100 19 4
90 19 5 5 5 85 100 96 100 100 100 100 100 94 100 100 90 0 0 0 0 0 0 0 0 2 1 1 89 20 100 100 55 73 100 100 100 100 100 97 82 100 100 100 100 100 59

GFSGBSN_prec_cloud_093.txt.gz
Cloud_Cover
100 92 45 28 82 97 100 100 98 75 23 48 23 74 100 100 100 100 100 100 100 100 100 61 2 96 3 0 0 0 0 0 2 0 0 0 0 2 5 6 5 100 100 100 100 98 100
100 100 88 84 46 33 27 8 91 92 76 100 100 100 100 100 100 100 100 100 100 100 100 83 58 1 1 0 0 0 0 0 0 0 0 0 0 0 4 5 37 100 100 100 100 100 100
100 100 100 97 97 22 17 24 91 91 99 100 100 100 100 100 100 100 100 100 100 100 100 100 100 0 0 0 0 0 0 0 0 0 1 0 0 0 0 5 24 100 100 100 100 100 100
100 100 100 22 4 22 17 25 80 100 99 100 100 100 100 100 100 100 100 61 38 70 100 100 96 1 0 0 0 0 0 0 0 0 0 0 33 86 6 0 10 100 100 100 100 100 100
100 100 100 100 9 0 19 46 66 65 85 100 100 100 100 100 98 83 10 20 22 19 80 84 4 0 0 0 0 0 0 0 0 0 0 0 1 86 0 0 15 98 96 100 100 100 100
100 86 100 100 21 4 4 15 26 22 48 100 100 100 100 100 100 94 32 2 0 0 1 0 0 0 0 0 0 0 0 0 0 0 0 0 11 16 0 0 6 45 87 100 100 98 100
100 100 100 100 72 5 2 9 11 21 30 56 100 100 100 100 100 100 24 0 0 0 0 0 0 0 0 0 0 0 0 0 0 0 0 0 0 0 0 0 0 0 66 98 100 100 100
100 100 100 100 100 4 4 1 4 5 5 21 37 100 100 100 100 100 71 0 0 0 0 0 0 0 0 0 0 0 0 0 0 0 0 0 0 0 0 0 1 1 100 95 100 100 100
100 100 100 100 100 5 5 5 1 5 4 0 23 48 100 90 94 60 4 17 4 2 0 0 0 0 0 0 0 0 0 0 0 0 0 0 0 0 0 0 0 4 100 100 100 100 100
100 100 100 100 100 29 5 5 5 5 4 1 2 25 100 22 35 90 100 99 98 96 11 1 0 0 0 0 0 0 0 0 0 0 0 0 0 0 0 0 0 1 71 100 100 100 100
100 100 100 100 100 49 16 5 91 59 8 5 20 99 57 98 100 100 100 100 100 100 78 6 3 0 0 0 0 0 0 0 0 0 0 0 0 0 0 0 0 2 100 96 88 78 58
100 100 100 99 100 44 13 72 37 5 4 5 5 10 94 94 100 100 100 100 100 100 100 100 99 23 0 0 0 0 0 0 0 0 0 0 0 0 0 0 0 66 100 61 31 13 36
100 99 98 99 100 54 80 100 41 19 5 0 2 95 90 91 90 100 100 100 86 100 100 100 96 85 5 0 0 5 1 1 0 0 0 0 0 0 0 0 0 0 89 46 64 15 5
100 100 100 100 100 95 100 100 58 6 4 0 14 100 98 55 100 100 100 59 17 5 43 100 100 100 98 5 0 1 5 5 0 0 0 0 0 0 0 0 0 0 9 4 59 3 2
100 100 100 100 85 100 94 29 6 4 0 1 7 100 21 100 100 100 72 76 100 93 5 62 89 100 100 86 4 37 73 100 4 5 0 0 0 0 0 0 0 0 0 2 80 12 0
100 100 100 100 100 100 100 39 5 0 1 30 6 100 23 100 100 26 99 91 61 25 2 2 6 15 60 100 88 5 100 100 100 5 5 0 0 0 0 0 0 0 0 0 5 5 0
100 100 100 100 94 92 39 5 3 3 5 30 19 97 67 40 27 96 95 79 5 5 2 3 4 1 1 5 5 1 99 100 83 89 5 0 0 0 0 0 0 0 0 0 28 5 0
100 100 100 100 99 90 21 5 2 2 1 5 5 91 82 0 5 5 5 0 0 0 0 1 0 0 0 0 3 5 2 100 78 95 80 5 0 0 0 0 0 0 0 0 5 25 0
100 100 100 100 100 27 5 1 3 1 26 46 5 74 97 5 4 5 3 29 5 16 18 98 13 5 4 0 1 0 0 15 94 28 100 76 5 0 0 0 0 0 0 0 4 5 3
96 100 100 100 100 18 5 5 5 2 15 41 2 66 29 19 4 5 0 4 15 100 8 7 53 5 29 6 4 5 0 0 8 21 39 100 17 74 3 0 0 0 0 0 0 5 0
99 100 100 100 98 10 5 5 3 5 5 5 6 38 7 22 4 0 0 0 0 2 0 5 15 76 20 42 17 5 6 4 0 45 100 100 100 100 70 3 0 5 0 0 0 0 0
100 100 100 100 5 1 9 5 5 5 5 59 31 100 30 5 4 5 0 5 0 5 2 83 95 6 100 85 100 79 84 48 35 98 100 100 100 100 100 33 4 46 3 0 3 0 0
100 100 95 5 2 4 5 5 5 24 23 30 5 72 19 5 5 4 1 0 0 0 0 6 74 77 74 98 100 100 100 90 76 100 100 100 100 100 100 100 99 16 100 54 97 46 26
100 99 5 5 5 5 4 1 6 91 67 14 6 5 25 5 5 5 5 0 0 0 0 5 4 95 40 100 99 59 100 99 38 94 75 98 92 100 100 100 100 42 60 26 54 5 5
100 100 8 5 1 5 2 5 49 85 76 55 5 5 31 58 59 44 63 0 0 0 0 0 3 17 59 32 99 98 79 89 100 96 100 92 5 99 100 100 94 97 6 38 2 50 4
100 100 76 2 0 1 5 5 25 37 5 6 5 54 71 33 94 100 66 0 0 0 0 0 0 0 6 92 78 100 100 86 100 100 97 84 45 20 100 100 100 100 29 58 5 64 86
100 100 100 6 0 0 2 2 5 5 5 18 5 73 100 100 100 100 48 0 0 0 0 0 0 0 2 94 96 98 95 99 98 100 100 89 63 100 100 100 100 100 66 95 99 16 66
100 100 100 21 3 3 3 3 5 5 13 99 42 96 99 100 100 44 0 0 0 0 0 0 0 0 0 1 72 100 100 100 100 100 100 100 92 98 96 100 100 100 100 97 100 100 92
100 100 100 29 4 5 5 5 5 38 93 100 97 88 95 91 89 0 0 3 0 0 0 0 0 0 0 0 0 24 87 100 95 100 100 100 100 100 66 98 100 100 92 100 100 100 100

GFSGBSN_prec_cloud_096.txt.gz
Cloud_Cover
100 100 100 100 100 100 51 73 100 100 100 100 100 100 100 100 100 100 100 100 100 100 100 100 30 2 6 0 0 0 0 0 0 3 2 0 0 4 55 12 56 100 100 100 100 100 100
100 100 100 100 100 100 100 100 100 100 100 100 100 100 100 100 100 100 99 100 100 100 100 100 32 16 0 0 0 0 0 0 0 1 3 0 0 43 80 23 44 100 100 100 100 100 100
100 100 100 100 98 99 31 100 100 100 100 100 100 100 100 100 100 100 84 98 94 100 100 100 58 3 0 0 0 0 0 0 0 3 5 0 0 2 4 6 5 100 98 100 100 100 100
100 100 100 100 52 5 19 81 99 100 100 100 100 100 100 100 74 90 51 65 92 66 100 100 90 0 0 0 0 0 0 0 0 0 5 0 0 0 4 5 16 99 83 100 100 100 100
100 100 100 100 100 5 9 38 30 88 100 100 100 100 100 100 100 100 100 100 71 67 100 78 3 0 0 0 0 0 0 0 0 0 0 0 0 0 39 4 4 69 100 100 100 100 100
100 100 100 100 100 20 48 9 20 33 88 100 100 100 100 100 100 100 59 3 0 5 8 0 0 0 0 0 0 0 0 0 0 0 0 0 0 0 83 1 4 5 100 100 100 100 100
100 100 100 100 100 34 5 5 82 19 29 45 100 100 100 100 100 100 20 0 0 0 0 0 0 0 0 0 0 0 0 0 0 0 0 0 0 0 6 10 0 0 86 100 100 100 100
100 100 100 100 100 99 84 5 5 5 5 14 25 100 100 100 100 100 55 1 0 0 0 0 0 0 0 0 0 0 0 0 0 0 0 0 0 1 89 2 0 16 73 100 100 100 100
100 100 100 100 100 100 9 5 36 6 5 5 4 44 100 100 100 97 100 89 70 70 6 0 0 0 0 0 0 0 0 0 0 0 0 0 0 11 41 51 13 1 69 100 100 100 98
100 100 100 100 100 100 39 5 8 78 30 5 0 6 46 58 89 100 100 100 100 100 100 65 0 0 0 0 0 0 0 0 0 0 0 0 0 37 99 24 33 99 77 84 100 59 55
88 38 100 100 100 100 78 38 100 84 5 1 0 1 100 96 98 100 100 100 100 100 100 97 99 5 0 0 0 0 0 0 0 0 0 0 0 0 45 18 0 6 61 99 91 100 100
100 100 100 100 100 100 100 68 100 71 5 4 0 57 98 9 94 100 100 100 100 100 83 100 100 100 6 0 0 0 0 0 0 0 0 0 0 0 0 0 0 0 99 53 90 72 100
100 100 100 100 100 57 100 100 100 7 4 1 8 100 90 8 100 100 100 100 100 100 100 100 100 100 100 16 5 3 4 1 0 0 0 0 0 0 0 0 0 0 98 87 93 50 100
100 100 100 100 80 92 100 100 86 5 5 1 84 67 13 5 100 82 98 100 98 72 100 100 100 100 100 100 78 7 9 5 0 0 0 0 0 0 0 0 0 0 5 14 7 40 52
100 100 100 100 100 100 99 100 93 5 4 24 17 23 5 99 100 100 100 60 10 55 38 37 100 100 100 100 100 58 5 77 88 5 0 0 0 0 0 0 0 0 0 32 92 35 2
100 100 100 100 100 100 99 100 14 15 4 58 0 0 6 100 100 76 100 86 100 100 32 24 46 88 100 100 100 100 63 5 98 88 6 0 0 0 0 0 0 0 0 0 3 28 11
46 100 100 100 100 100 100 69 40 5 1 7 0 0 98 19 24 88 23 69 31 59 34 73 60 8 5 91 100 100 19 5 5 96 100 46 2 0 0 0 0 0 0 0 0 0 0
22 100 100 100 100 100 79 5 63 4 27 0 0 0 0 100 4 5 74 16 6 5 4 3 2 5 5 5 65 100 76 5 0 17 9 100 85 2 0 0 0 0 0 0 0 0 0
48 100 100 100 100 44 5 42 6 4 92 27 5 4 2 28 3 0 0 0 0 0 0 1 2 2 3 0 2 9 99 80 5 5 78 100 100 89 1 0 0 0 0 0 0 0 0
99 100 100 100 100 5 5 5 5 4 1 4 9 13 17 4 2 0 0 4 0 0 0 0 2 80 15 5 4 0 2 15 8 5 66 100 100 100 88 1 0 0 0 0 0 0 0
100 100 100 77 65 5 5 5 5 3 3 5 5 5 5 5 5 1 0 0 0 0 0 0 3 1 5 23 7 4 0 0 3 5 4 100 100 100 100 47 0 0 0 0 0 0 0
100 100 99 100 5 5 5 5 5 4 5 5 5 5 5 5 4 0 0 0 0 0 0 0 5 100 12 90 8 99 6 5 5 5 5 53 100 100 100 73 5 4 2 0 0 0 0
100 100 99 52 5 5 7 5 2 5 5 30 5 2 5 4 0 4 4 3 0 0 0 5 2 11 97 47 33 10 14 66 82 22 5 4 92 100 100 70 91 16 5 4 0 0 0
100 100 100 11 5 5 37 26 5 5 31 6 5 5 5 10 5 5 5 5 0 0 0 0 3 2 97 6 90 82 98 100 92 100 100 100 40 99 100 100 71 9 5 5 23 0 0
100 100 100 56 5 5 12 17 5 5 5 5 3 0 12 14 5 5 58 5 0 0 0 0 0 4 9 34 87 76 55 96 80 100 100 100 100 100 100 100 68 5 4 5 5 12 26
100 100 100 100 5 5 14 7 5 5 5 5 5 3 12 99 100 10 74 1 0 0 0 0 0 0 0 29 96 91 100 99 85 96 100 100 93 90 100 100 100 88 13 34 0 8 89
100 100 100 100 5 5 12 5 5 5 5 5 5 7 5 91 100 81 22 0 0 0 0 0 0 0 0 2 66 79 99 100 100 100 100 100 100 42 100 97 100 100 100 80 100 1 58
100 100 100 100 10 32 5 5 5 5 5 23 5 90 89 100 100 100 1 0 0 0 0 0 0 0 0 0 11 97 100 100 100 100 100 98 100 33 85 100 99 100 100 100 100 97 15
100 100 100 100 17 5 5 5 5 4 5 13 73 99 100 100 100 10 0 1 0 0 0 4 2 0 0 0 0 0 85 100 100 100 100 99 100 100 91 100 85 100 100 100 100 100 100

GFSGBSN_prec_cloud_102.txt.gz
Cloud_Cover
94 100 100 100 24 9 60 25 25 91 100 100 100 100 100 100 100 100 100 100 100 93 5 8 0 9 0 0 0 0 0 0 0 0 0 0 0 2 79 87 100 100 61 85 78 85 85
8 51 100 100 89 58 100 98 32 25 100 100 100 100 100 92 100 100 47 22 39 7 3 21 0 0 0 0 0 0 0 0 0 0 0 0 0 8 83 91 100 100 91 66 100 100 91
100 98 100 100 100 15 36 48 100 100 98 85 100 100 100 100 100 100 68 50 78 100 96 14 0 0 0 0 0 0 0 0 0 0 0 0 0 2 9 88 100 100 100 100 100 100 53
100 100 100 100 100 17 14 18 99 89 52 47 100 100 100 100 100 100 100 100 100 100 96 0 0 0 0 0 0 0 0 0 0 0 0 0 0 36 1 80 100 100 100 100 100 100 100
100 100 100 100 100 88 14 12 56 76 83 80 86 98 100 100 100 99 97 40 74 100 14 0 0 0 0 0 0 0 0 0 0 0 0 2 0 23 0 27 99 100 100 100 100 100 100
100 100 100 100 100 100 41 17 18 94 26 15 6 28 88 78 85 76 4 4 20 42 0 0 0 0 0 0 0 0 0 0 0 0 0 0 4 16 5 15 91 100 81 100 100 96 100
100 100 100 100 88 99 89 76 37 7 8 5 5 0 7 63 46 38 2 0 0 0 0 1 0 0 0 0 0 0 0 0 0 0 0 0 2 5 55 71 12 36 90 100 100 100 100
75 82 95 88 100 100 79 39 5 36 5 5 3 0 86 100 100 93 7 0 6 5 26 62 41 1 0 0 0 0 0 0 0 0 0 0 2 6 98 24 25 95 99 100 100 100 100
100 100 100 100 100 74 5 5 5 5 5 5 0 1 99 100 18 25 2 5 35 82 100 100 100 94 4 0 0 0 0 0 0 0 0 0 0 5 5 45 99 29 98 100 100 100 100
100 100 100 100 87 5 5 5 5 5 2 0 0 34 100 11 47 0 17 5 23 99 100 100 100 100 99 4 0 0 0 0 0 0 0 0 0 0 5 12 35 91 82 90 100 100 100
100 100 100 100 97 100 22 7 5 5 0 0 6 100 100 94 0 0 5 81 17 95 100 100 100 100 100 73 0 0 0 0 0 0 0 0 0 0 0 40 56 54 66 100 100 100 100
100 100 100 98 100 100 99 11 5 5 5 5 83 100 98 14 0 17 58 46 11 90 100 100 100 100 100 99 26 1 0 0 0 0 0 0 0 0 0 0 86 5 66 100 100 100 100
100 100 100 100 100 100 100 5 5 4 3 4 100 100 57 0 0 34 89 36 99 94 49 83 74 92 100 100 95 60 1 0 0 0 0 0 0 0 0 0 4 94 30 68 100 100 100
100 100 100 100 100 100 94 5 5 5 5 66 98 33 2 0 0 16 5 100 86 100 100 97 61 59 96 100 100 71 25 0 0 2 23 0 0 0 0 0 0 1 4 100 96 100 100
100 100 100 100 100 100 28 5 5 5 24 100 34 0 0 0 3 2 11 21 84 66 93 100 100 77 56 79 92 88 34 6 5 0 18 4 1 0 0 0 0 0 59 34 96 88 100
100 100 100 100 100 73 5 5 5 5 66 59 0 0 0 0 0 0 2 26 26 7 84 100 100 100 99 52 70 77 64 5 17 0 23 45 13 1 0 0 0 0 0 4 43 77 100
100 100 100 100 23 0 5 5 5 5 47 2 0 1 0 0 0 9 6 3 2 10 31 7 53 42 77 100 100 94 64 88 5 1 0 29 5 18 0 0 0 0 0 0 2 4 100
100 100 100 2 0 0 3 5 5 5 37 68 0 4 0 0 1 0 18 60 5 5 0 1 0 0 5 25 86 100 96 65 56 5 5 5 5 74 5 1 0 4 0 0 0 0 6
100 100 48 0 0 5 5 4 4 7 16 0 0 0 0 0 5 4 0 0 0 1 1 2 2 0 0 3 5 10 90 68 99 56 6 24 4 100 100 49 0 0 0 0 3 3 4
96 100 23 0 5 5 4 5 0 0 0 9 0 4 0 0 0 1 3 4 4 0 0 0 0 0 0 5 2 2 5 27 18 38 42 5 74 87 100 100 62 11 0 0 0 0 2
89 100 74 5 5 5 66 5 5 0 0 9 0 0 0 4 0 0 0 0 0 0 0 0 0 0 3 48 13 5 0 1 5 5 12 11 97 97 83 98 69 98 92 0 0 0 5
88 100 100 41 100 14 92 5 1 2 27 0 0 0 0 0 0 0 0 0 0 0 0 0 0 0 0 72 27 94 4 3 83 4 100 100 100 70 82 0 4 23 4 0 0 0 0
71 100 100 99 98 97 48 2 5 5 11 5 0 0 0 0 0 1 3 0 4 2 0 0 0 0 0 3 4 5 5 4 3 33 51 62 82 100 75 86 5 8 51 11 2 0 0
96 97 100 100 85 98 75 1 5 5 56 44 4 0 0 0 1 0 5 5 5 5 2 0 0 0 0 0 3 5 18 10 5 5 4 25 6 91 100 89 5 99 62 4 0 0 0
100 100 88 100 100 100 61 0 5 5 26 11 72 0 3 5 4 4 5 5 5 5 0 0 0 0 0 0 47 99 70 30 42 5 5 7 76 100 92 96 94 6 5 4 5 67 0
100 100 82 98 100 94 5 5 5 5 5 13 100 4 4 2 5 6 22 5 5 0 0 0 0 0 0 12 99 100 100 99 100 79 5 5 6 38 100 80 95 100 5 0 5 16 5
99 100 100 99 96 99 7 5 17 9 5 15 77 3 2 5 18 78 100 22 5 0 0 0 0 0 0 5 55 76 96 17 93 100 100 83 29 100 100 100 100 31 5 5 15 83 77
71 100 99 58 97 100 57 42 6 97 40 11 5 5 5 5 31 18 33 34 0 0 0 0 0 2 3 5 4 5 4 28 95 82 68 86 100 100 92 100 100 5 5 9 6 5 57
100 96 100 99 100 100 76 96 98 100 100 99 8 10 14 84 38 41 5 0 0 0 0 0 4 2 5 5 5 5 1 0 1 82 91 82 90 100 27 90 46 10 2 5 5 38 5

GFSGBSN_prec_cloud_105.txt.gz
Cloud_Cover
3 53 92 99 56 81 10 69 69 91 98 100 100 100 86 98 100 100 77 44 5 6 1 3 20 0 0 0 0 0 0 0 0 0 0 0 0 32 100 100 100 100 73 83 100 100 100
99 92 100 100 100 11 44 8 18 79 100 48 100 100 100 100 100 79 94 3 0 0 6 0 0 0 0 0 0 0 0 0 0 0 0 0 0 32 93 100 100 100 100 46 100 100 100
100 100 100 100 100 14 12 6 8 5 8 22 65 70 69 100 99 95 61 11 1 0 28 17 10 0 0 0 0 0 0 0 0 0 0 0 0 0 78 100 32 100 100 100 92 100 100
100 100 88 100 94 68 15 8 5 13 5 5 37 24 4 26 91 90 34 2 29 12 6 0 0 0 0 0 0 0 0 0 0 0 0 0 0 0 99 93 88 97 100 100 100 100 100
100 100 100 100 100 100 31 14 5 5 5 5 4 0 0 13 3 0 0 0 11 18 4 1 2 0 0 0 0 0 0 0 0 0 0 0 0 2 35 51 57 100 100 100 100 100 96
90 64 18 37 93 100 93 4 5 5 5 0 0 0 0 0 81 0 0 8 0 57 13 0 0 0 0 0 0 0 0 0 0 0 0 0 0 0 24 100 79 99 100 100 100 100 100
100 100 72 9 74 100 68 0 0 0 0 0 0 0 0 10 90 8 32 0 0 0 0 0 0 0 0 0 0 0 0 0 0 0 0 0 0 0 31 39 100 100 100 100 100 100 100
100 100 100 100 93 12 0 0 0 0 0 0 0 0 0 0 0 22 2 0 0 0 0 4 5 5 0 0 0 0 0 0 0 0 0 0 0 4 65 83 28 95 100 100 100 100 100
100 100 92 81 8 20 1 0 0 0 0 0 0 0 1 0 6 33 0 0 1 5 5 25 21 75 84 3 0 0 0 0 0 0 0 0 2 5 4 50 17 94 77 100 100 100 100
100 100 100 96 100 100 88 0 0 0 0 0 0 42 20 0 40 0 0 0 5 5 8 51 76 94 100 100 27 0 0 0 0 0 0 0 0 3 54 5 5 100 56 100 100 100 100
100 100 100 100 100 100 100 22 0 0 0 0 7 100 100 83 0 0 0 1 5 4 96 30 68 100 98 98 43 2 0 0 0 0 0 0 0 0 6 93 18 100 96 100 100 100 100
98 100 100 100 100 100 100 14 0 0 0 0 93 100 85 14 0 0 1 1 24 13 99 5 18 98 100 96 83 28 1 0 0 0 0 11 1 0 0 88 5 8 37 100 100 100 100
100 100 100 100 100 100 86 0 0 0 0 39 100 77 38 0 0 0 0 11 63 98 50 12 34 100 100 100 99 67 5 3 3 3 0 0 0 0 1 4 17 83 68 100 100 100 100
100 100 100 100 100 91 0 0 0 0 0 100 49 38 0 0 0 0 0 0 100 99 100 100 71 95 100 100 100 97 18 5 4 4 5 0 0 0 0 27 11 1 100 36 100 100 100
100 100 100 99 28 0 0 0 0 0 13 100 35 0 0 0 0 0 0 99 95 99 8 100 100 100 100 81 100 100 51 15 26 5 87 93 5 8 0 0 5 21 31 9 89 100 100
100 100 97 5 0 0 0 0 0 0 28 79 0 1 0 0 0 0 22 46 1 5 8 100 100 100 100 100 99 100 100 96 100 8 83 75 99 5 3 0 0 15 69 38 54 100 100
100 79 34 0 0 0 0 0 0 4 0 37 0 6 0 0 0 4 97 22 10 4 4 57 84 100 100 100 100 100 100 68 79 88 11 100 36 100 5 0 0 0 0 4 31 100 100
80 77 1 0 0 0 0 0 5 2 23 69 2 90 0 0 43 84 76 5 2 5 0 4 5 63 91 99 100 78 100 73 57 90 13 6 93 99 100 11 0 4 1 0 0 42 100
91 53 83 0 0 0 1 5 25 0 10 0 4 5 0 2 95 21 2 2 5 36 5 6 17 22 14 100 54 100 100 88 100 100 71 96 6 100 100 70 1 1 5 4 3 5 93
100 70 53 6 0 4 59 43 51 0 2 9 3 66 3 5 1 44 28 32 15 0 2 2 3 3 5 53 34 68 79 74 67 82 100 26 90 70 100 98 78 85 0 4 5 92 55
73 60 83 44 2 70 100 60 56 0 3 9 7 19 5 12 1 5 3 1 3 5 0 0 6 2 17 98 100 99 62 97 58 64 100 100 100 65 100 95 60 100 88 5 5 5 96
1 100 100 100 47 4 92 6 81 3 24 2 5 1 0 0 0 1 0 0 0 0 0 1 0 0 3 49 95 100 100 99 99 93 100 100 100 57 8 100 100 100 91 32 100 19 5
15 84 8 71 90 7 51 5 43 5 0 0 5 13 2 5 5 4 19 0 0 0 0 0 0 0 0 34 3 5 5 81 99 90 92 100 100 100 98 94 100 73 90 100 97 66 55
0 48 98 6 96 94 5 93 5 5 17 5 9 96 16 5 25 4 1 4 5 1 0 0 0 0 1 0 0 2 86 97 76 17 82 80 100 100 100 100 22 96 22 30 8 95 75
1 10 98 96 93 99 5 7 4 5 7 5 96 100 11 5 7 5 5 5 10 5 0 0 0 0 0 0 12 93 73 85 76 96 72 82 54 89 100 90 78 98 66 2 2 98 3
100 48 62 99 5 100 45 4 5 5 5 59 100 98 11 100 62 5 37 5 17 5 8 0 0 0 0 5 100 7 89 100 96 80 77 100 8 47 99 70 100 98 100 84 0 4 5
100 48 18 7 14 68 99 6 5 5 52 82 100 100 94 100 83 9 34 5 5 4 3 2 2 0 0 77 99 96 100 100 100 100 100 51 95 100 99 22 15 94 62 100 66 85 6
64 100 84 100 100 82 94 7 5 6 94 100 100 100 100 100 30 50 18 5 5 2 5 8 0 42 2 2 83 100 15 74 43 45 96 100 100 96 100 48 100 21 69 97 100 32 89
100 100 100 100 98 100 100 16 94 93 99 100 100 100 99 100 34 5 5 2 0 0 0 4 2 4 6 14 24 20 6 3 0 4 46 78 100 100 15 88 28 7 5 6 5 5 57

GFSGBSN_prec_cloud_108.txt.gz
Cloud_Cover
82 88 99 50 0 5 19 11 19 12 75 42 85 100 97 80 37 22 16 5 0 0 0 9 0 1 0 0 0 0 0 0 0 0 0 0 0 95 100 82 100 100 100 100 100 71 47
100 100 93 84 67 21 22 15 22 27 27 29 17 11 20 62 34 25 14 0 0 0 0 0 0 0 0 0 0 0 0 0 0 0 0 0 0 67 78 100 89 100 86 92 100 100 100
100 100 100 100 99 40 13 17 0 1 11 0 0 6 12 26 26 27 4 7 0 0 0 0 0 0 0 0 0 0 0 0 0 0 0 0 0 15 100 100 93 100 100 80 99 55 100
100 100 100 100 98 100 26 7 4 0 0 0 0 0 0 0 15 10 0 0 0 13 18 9 0 0 0 0 0 0 0 0 0 0 0 0 0 0 100 95 96 100 100 98 100 100 100
22 21 30 75 100 100 89 0 0 0 0 0 0 0 0 0 6 2 0 0 0 0 5 1 0 0 0 0 0 0 0 0 0 0 0 0 0 0 11 100 100 82 100 100 100 85 100
100 100 100 78 91 98 1 0 0 0 0 0 0 0 0 1 1 0 0 0 2 31 16 0 0 0 0 0 0 0 0 0 0 0 0 0 0 0 0 93 68 100 100 100 100 100 100
100 100 100 100 97 0 0 0 0 0 0 0 0 0 0 0 0 0 6 0 0 0 0 0 0 0 0 0 0 0 0 0 0 0 0 0 0 0 1 80 99 100 72 100 100 100 100
100 100 97 41 95 91 43 15 1 0 0 0 0 0 0 0 0 0 3 0 0 0 0 0 0 0 0 0 0 0 0 0 0 0 0 0 0 2 8 100 88 100 100 100 100 100 100
100 100 100 97 100 100 100 84 0 0 0 0 0 0 0 0 5 30 0 0 0 0 0 3 4 5 28 28 4 0 0 0 0 0 0 0 0 5 5 94 61 33 100 100 100 100 100
100 100 100 100 100 100 100 100 0 0 0 0 0 7 78 38 19 0 0 0 0 0 6 9 8 74 98 97 41 3 0 0 0 0 0 0 0 0 7 45 94 100 100 100 100 100 100
99 96 100 94 100 100 100 54 0 0 0 0 10 100 100 96 0 0 0 0 0 2 95 72 30 98 12 84 38 5 1 0 0 0 0 0 0 4 5 70 99 98 100 99 100 100 100
100 95 100 90 100 100 53 0 0 0 0 1 100 100 98 6 0 0 0 0 4 14 96 92 5 5 64 54 99 21 0 0 0 0 0 0 0 0 1 6 70 71 100 100 100 100 100
100 100 100 100 61 0 0 0 0 0 0 58 100 96 58 0 0 0 0 0 62 94 98 100 80 6 45 100 74 94 5 3 1 0 0 0 2 1 1 12 93 100 75 100 100 100 100
100 100 100 11 0 0 0 0 0 0 0 64 61 92 1 0 0 0 0 8 100 49 100 100 100 89 100 91 100 100 9 5 4 3 25 0 0 0 0 2 100 9 100 100 100 100 100
93 97 39 1 0 0 0 0 0 0 0 3 33 0 0 0 0 0 0 87 98 64 50 72 100 100 100 100 100 100 100 90 5 5 56 59 37 10 0 0 77 40 52 86 92 100 100
0 63 0 0 0 0 0 0 0 0 0 17 0 0 0 0 0 0 3 47 45 3 1 64 100 100 100 100 97 100 100 100 100 67 100 83 36 36 12 0 2 72 100 16 13 100 100
22 0 1 0 0 0 0 0 1 2 2 19 0 4 0 0 0 2 53 45 4 0 0 86 100 100 100 100 100 100 91 90 87 42 20 52 69 90 83 1 0 0 5 22 38 100 100
69 0 1 0 0 0 0 2 58 14 24 61 1 18 0 0 10 94 100 5 5 5 0 12 9 67 77 97 100 100 100 95 99 98 4 98 100 100 96 57 0 0 0 5 2 59 100
0 0 0 0 0 0 0 1 81 90 8 0 0 4 0 0 64 100 4 1 42 77 10 17 47 4 2 25 62 100 100 81 17 98 54 4 38 95 100 95 94 0 4 5 0 2 97
0 0 0 5 0 0 0 15 53 36 5 9 0 98 55 3 11 75 25 67 70 0 0 0 2 1 4 60 47 45 100 92 100 67 89 34 5 9 100 86 28 70 4 5 78 39 22
0 0 0 0 0 0 3 5 26 5 5 9 0 98 95 98 9 82 37 37 22 59 1 0 8 11 5 21 74 96 60 60 99 87 100 100 78 88 2 81 98 74 32 4 5 2 95
0 0 0 0 0 4 5 5 5 5 17 0 2 41 5 46 63 100 17 5 5 2 0 4 0 0 0 3 70 1 2 97 30 100 100 100 100 76 98 43 83 100 100 29 61 5 0
12 1 24 21 0 0 5 5 4 1 0 5 58 5 5 82 100 100 72 5 5 0 1 0 0 0 0 4 2 2 4 14 87 22 100 100 100 91 73 73 100 92 96 100 100 90 15
70 40 62 94 28 0 0 0 5 3 8 5 5 5 12 98 100 100 100 24 5 2 0 0 0 0 0 0 0 0 2 87 48 75 97 100 100 100 100 100 10 100 68 76 100 89 21
100 100 74 87 90 24 5 5 5 5 5 5 9 5 96 99 100 100 95 18 20 0 0 0 0 0 0 0 0 4 64 35 99 100 100 34 95 100 100 94 100 8 15 98 5 97 5
100 100 90 62 100 100 100 100 10 67 5 10 14 28 99 100 100 100 72 98 22 99 51 11 1 0 0 1 66 27 100 98 100 100 52 100 65 87 100 100 84 48 7 5 5 44 6
99 100 82 99 100 100 100 94 95 100 79 82 96 100 100 100 100 100 95 99 5 1 14 75 4 0 0 5 100 59 100 99 100 100 100 82 100 82 95 98 54 73 6 5 66 71 4
93 100 94 72 99 100 100 100 100 100 100 100 100 100 100 96 100 100 100 57 5 1 18 57 1 27 12 5 6 99 62 100 100 100 100 100 87 98 0 46 89 76 92 90 82 13 5
96 100 100 100 100 82 100 100 100 100 100 100 100 100 100 100 100 100 100 98 5 2 0 0 0 1 45 4 82 5 53 53 42 100 100 100 100 99 33 94 82 91 100 100 100 99 9

GFSGBSN_prec_cloud_111.txt.gz
Cloud_Cover
100 100 100 100 27 19 38 13 24 23 21 53 48 23 19 11 20 30 28 21 9 9 21 4 0 0 0 0 0 0 0 0 0 0 0 0 1 40 99 100 98 100 100 100 100 100 100
100 100 100 100 99 34 18 16 14 0 7 27 4 0 0 15 29 36 24 2 6 13 24 21 6 0 0 0 0 0 0 0 0 0 0 0 0 58 98 100 100 100 100 100 100 100 100
100 92 100 100 99 100 20 0 0 0 0 0 0 0 0 0 5 26 30 0 0 14 20 15 26 0 0 0 0 0 0 0 0 0 0 0 0 84 100 98 100 100 100 100 100 100 100
100 100 60 39 100 100 64 0 0 0 0 0 0 0 0 0 17 24 0 0 0 1 28 29 7 0 0 0 0 0 0 0 0 0 0 0 0 0 88 86 100 100 100 100 100 100 100
100 100 100 100 100 70 0 0 0 0 0 0 0 0 0 0 0 0 0 0 0 0 8 0 0 0 0 0 0 0 0 0 0 0 0 0 0 0 0 51 100 100 100 98 100 100 100
100 100 100 100 100 13 6 0 0 0 0 0 0 0 0 0 0 0 0 0 0 1 0 0 0 0 0 0 0 0 0 0 0 0 0 0 0 0 0 18 33 96 99 100 100 100 100
100 100 100 100 100 100 100 55 1 0 0 0 0 0 0 0 1 0 0 0 0 0 0 0 0 0 0 0 0 0 0 0 0 0 0 0 0 1 5 5 72 44 88 100 100 100 100
100 100 100 100 100 100 100 100 65 0 0 0 0 0 0 2 1 22 48 0 0 0 0 0 0 0 0 0 0 0 0 0 0 0 0 0 0 2 86 92 96 98 54 100 100 100 100
61 100 100 100 100 100 100 100 51 0 0 0 0 0 22 79 56 39 0 0 0 0 0 0 0 0 0 1 2 3 0 0 0 0 0 0 0 4 100 7 65 100 100 95 100 100 100
100 100 100 100 100 100 100 27 0 0 0 0 0 68 100 100 6 0 0 0 0 0 0 0 0 2 5 5 49 81 7 0 0 0 0 0 0 1 100 85 54 100 100 100 100 100 100
100 100 100 100 57 2 0 0 0 0 0 0 72 100 100 98 14 0 0 0 0 0 7 2 1 2 91 46 63 99 38 0 0 0 0 0 0 2 16 77 10 86 100 100 100 100 100
100 100 100 18 0 0 0 0 0 0 0 7 99 90 98 0 0 0 0 0 0 2 4 27 4 4 56 100 96 100 100 2 0 0 0 0 0 3 7 91 4 11 100 100 100 100 100
0 32 24 0 0 0 0 0 0 0 0 7 19 66 85 0 0 0 0 0 39 20 18 50 44 99 5 100 99 100 100 48 0 0 0 0 0 0 12 6 1 87 100 100 100 100 100
0 0 0 0 0 0 0 0 0 0 0 0 1 98 2 0 0 2 0 1 15 39 30 4 100 94 96 99 100 100 100 98 2 0 0 0 0 0 0 1 2 22 100 100 100 100 100
0 0 0 0 0 0 0 0 0 0 0 0 9 0 0 0 0 4 0 5 40 93 91 79 3 92 69 46 100 100 100 100 100 22 71 40 6 0 0 0 36 1 65 100 99 100 100
6 0 0 0 0 0 0 0 0 0 0 3 5 0 0 0 0 4 9 9 1 5 0 5 54 100 95 61 100 99 100 25 93 81 4 79 3 0 0 0 35 24 2 14 100 100 100
0 0 0 0 0 0 0 0 0 0 0 6 7 0 0 0 0 2 69 27 4 0 0 3 60 59 37 100 96 100 100 96 6 5 4 25 55 12 7 5 0 32 0 90 100 100 100
0 0 0 0 0 0 0 0 0 0 1 6 4 0 0 0 5 20 79 68 6 1 0 0 22 96 93 100 93 100 99 49 100 21 3 5 6 5 17 83 8 1 4 4 100 100 100
0 0 0 0 0 0 0 0 4 0 1 10 0 0 0 4 3 89 94 100 96 4 1 0 3 0 0 4 32 56 18 65 100 88 65 5 100 100 99 21 90 27 3 0 100 100 100
0 0 0 0 0 0 0 0 5 4 3 20 0 8 61 5 5 84 100 100 99 16 5 0 0 0 0 5 32 36 78 49 96 78 100 100 83 100 95 63 91 5 0 4 2 98 100
0 0 0 0 0 0 0 0 2 5 3 5 4 5 7 99 16 5 79 100 100 100 5 0 1 4 0 0 9 92 3 47 76 5 87 100 100 100 93 43 94 76 1 5 5 0 86
32 70 12 5 0 5 3 1 2 0 2 3 5 5 5 54 5 5 92 100 100 100 63 0 0 0 0 0 65 5 32 90 5 63 100 100 100 46 58 90 24 100 83 0 1 31 0
80 100 100 42 4 5 38 100 72 6 5 5 5 9 5 5 5 41 94 100 100 100 70 2 0 0 0 0 0 3 1 0 0 4 47 97 100 77 5 87 38 59 100 77 16 100 1
12 100 100 100 94 12 76 82 100 100 98 52 84 62 17 50 68 90 95 100 100 100 44 5 0 0 0 0 0 0 0 0 1 47 18 26 74 100 100 65 26 40 30 100 100 78 3
24 100 100 100 100 85 39 57 100 100 100 100 100 100 100 100 100 84 100 100 100 100 82 3 0 0 0 0 0 1 5 5 90 12 6 15 98 10 95 100 100 95 86 97 100 99 22
4 98 100 100 100 100 100 60 82 71 100 100 100 91 90 100 100 97 100 100 100 100 47 6 5 0 0 0 1 24 6 100 100 53 2 100 100 93 100 24 99 94 49 100 58 87 100
35 17 100 100 100 100 100 98 47 83 98 100 100 100 12 98 100 95 100 100 100 100 30 10 6 0 0 0 5 88 67 100 100 100 21 86 42 100 100 100 99 30 82 48 45 14 63
60 38 82 100 100 88 90 98 100 98 92 92 100 100 100 96 100 100 100 100 100 100 42 5 2 2 0 2 3 84 62 100 100 100 100 100 94 100 69 37 100 100 100 100 70 4 1
100 100 100 100 100 100 100 100 100 100 100 100 100 100 100 100 100 100 100 100 100 99 16 4 0 0 0 47 21 5 86 23 100 100 100 100 96 96 97 94 38 100 100 100 48 50 49

GFSGBSN_prec_cloud_114.txt.gz
Cloud_Cover
100 100 100 100 100 60 24 14 18 5 1 17 4 1 5 8 28 72 85 39 19 27 25 22 20 23 0 0 0 0 0 0 0 0 0 0 0 0 9 100 100 100 100 100 100 100 100
4 56 65 85 100 100 30 0 0 0 0 0 0 0 0 0 13 22 28 37 17 26 49 18 15 12 2 0 0 0 0 0 0 0 0 0 0 0 34 100 100 100 100 100 100 100 66
100 100 99 88 100 100 3 0 0 0 0 0 0 0 0 0 0 11 16 0 1 24 28 28 11 0 0 0 0 0 0 0 0 0 0 0 0 2 87 100 100 100 100 97 99 100 100
100 100 100 100 100 82 0 0 8 0 0 0 0 0 0 0 0 1 0 2 13 19 38 33 9 0 0 0 0 0 0 0 0 0 0 0 2 0 1 100 100 100 98 100 100 100 100
100 100 100 100 100 97 98 63 5 1 0 0 0 0 0 0 0 6 0 0 0 0 33 2 0 0 0 0 0 0 0 0 0 0 0 23 2 0 0 100 100 100 100 100 100 100 100
100 100 100 100 100 100 100 100 99 7 0 0 0 0 0 0 5 5 9 0 0 0 14 0 0 0 0 0 0 0 0 0 0 0 0 0 0 0 0 60 100 100 100 100 100 100 100
100 100 100 100 100 100 100 100 100 2 0 0 0 0 0 14 97 75 20 0 0 0 0 0 0 0 0 0 0 0 0 0 0 0 0 0 0 1 5 74 29 100 100 100 100 100 100
100 100 100 100 100 100 100 85 14 0 0 0 0 1 60 100 100 100 73 0 0 0 0 0 0 0 0 0 0 0 0 0 0 0 0 0 0 4 5 5 5 96 100 100 100 100 100
100 100 100 100 20 1 0 0 0 0 0 0 2 96 100 100 100 21 0 0 0 0 0 0 0 0 0 0 0 0 0 0 0 0 0 0 0 5 5 4 5 97 100 100 100 100 100
100 100 100 5 0 0 0 0 0 0 0 0 18 95 100 97 4 0 0 0 0 0 0 0 0 0 0 0 2 3 0 4 0 0 0 0 0 5 5 5 0 100 99 100 100 100 100
0 98 61 0 0 0 0 0 0 0 0 0 16 10 100 95 48 0 0 0 0 0 0 0 0 4 0 0 5 19 43 38 2 0 0 0 5 18 7 0 1 93 100 88 100 100 100
0 0 0 4 0 0 0 0 0 0 0 0 6 93 98 4 18 0 0 0 0 0 0 0 0 4 20 19 52 8 95 100 75 0 0 0 0 5 32 5 0 3 100 99 100 100 100
0 0 0 0 0 0 0 0 0 0 0 0 0 100 87 0 0 0 0 5 7 1 0 2 0 2 56 10 100 5 97 95 90 4 20 0 0 4 5 5 18 3 100 66 100 100 100
0 0 0 0 0 0 0 0 0 0 0 0 0 29 8 0 0 0 0 0 21 89 5 0 59 3 88 56 100 99 100 100 100 94 100 20 0 2 0 2 5 1 45 100 100 100 100
0 0 0 0 0 0 0 0 0 0 0 0 8 4 0 0 0 0 1 0 100 89 44 16 6 2 68 29 76 94 79 100 100 99 70 9 0 4 4 0 0 8 100 66 100 100 100
0 0 0 0 0 0 0 0 0 0 0 0 3 5 2 0 0 0 0 0 78 100 95 1 2 2 9 89 52 100 87 67 97 3 5 25 34 0 0 0 0 0 13 10 51 100 100
0 0 0 0 0 0 0 0 0 0 0 29 0 3 0 0 2 0 0 0 14 100 100 24 5 6 44 74 16 96 100 77 100 84 5 14 0 0 0 0 0 12 3 3 95 100 100
0 0 0 0 0 0 0 0 0 0 0 4 0 0 0 0 3 1 5 5 34 100 100 100 3 0 87 96 96 70 100 100 81 16 26 44 91 65 0 0 49 97 0 6 28 100 100
0 0 0 0 0 0 0 0 0 0 10 64 0 0 0 0 38 59 7 5 5 96 100 100 5 0 0 5 0 5 83 81 87 100 31 100 89 96 59 87 5 91 5 7 5 5 100
0 61 69 6 5 0 1 1 19 22 0 25 0 0 0 0 5 5 23 62 5 30 100 100 83 2 0 2 5 5 4 42 90 81 72 98 19 100 79 73 6 5 8 13 57 9 100
9 100 100 100 76 2 9 5 18 19 56 12 4 1 7 5 5 5 5 50 43 5 98 100 100 6 0 0 0 5 70 4 34 100 100 100 65 23 90 45 64 97 5 98 40 0 100
0 74 100 100 100 98 8 7 18 100 23 5 9 7 79 100 100 100 100 86 5 5 80 100 100 5 4 0 0 3 2 5 27 71 14 84 100 54 100 100 100 99 100 37 2 0 0
34 5 100 100 100 100 99 10 5 12 100 77 46 97 71 49 32 20 96 45 9 9 75 100 100 100 5 0 0 0 0 0 2 2 0 29 86 5 60 86 100 100 94 43 5 0 0
99 57 100 100 100 100 100 100 26 2 6 55 51 82 100 98 72 6 14 100 89 90 100 100 100 100 6 0 0 0 0 0 0 4 0 0 6 32 35 16 100 100 98 13 86 0 0
79 100 100 100 100 100 100 100 99 5 5 21 5 5 75 100 100 83 30 87 60 100 100 100 100 100 32 0 0 0 0 0 1 1 20 3 0 3 5 88 45 100 85 17 5 84 10
100 98 89 97 100 100 100 100 100 32 27 69 79 100 100 100 100 100 100 82 96 100 100 100 100 97 42 0 0 0 0 0 2 91 42 93 0 5 6 65 100 100 100 69 5 64 36
100 100 99 45 100 100 100 100 100 100 100 100 100 100 100 100 100 100 100 100 100 100 100 100 100 100 6 0 0 2 1 0 75 72 100 100 100 100 94 99 75 99 100 100 95 2 99
100 100 100 100 100 100 100 100 100 100 100 78 100 100 100 100 100 100 100 100 100 100 100 100 100 92 3 0 0 4 11 0 23 94 48 78 100 100 100 100 100 100 100 100 93 54 66
100 100 100 100 100 100 100 100 100 100 100 89 98 100 100 100 100 100 100 100 100 100 100 100 100 29 0 0 0 4 16 86 0 92 35 5 39 38 100 100 100 100 100 100 86 8 23

GFSGBSN_prec_cloud_117.txt.gz
Cloud_Cover
66 88 65 100 100 96 4 2 8 13 8 11 2 0 4 8 12 22 29 20 99 37 90 24 24 20 2 0 0 0 0 0 0 0 0 0 0 0 1 64 100 100 100 100 100 100 60
100 100 100 100 100 87 14 34 16 4 4 19 0 0 0 6 12 14 24 24 23 48 35 24 23 12 0 0 0 0 0 0 0 0 0 0 0 0 0 29 100 100 100 100 100 100 100
100 100 100 100 100 94 87 84 71 18 2 0 0 0 0 0 0 0 17 22 26 37 61 33 26 3 0 0 0 0 0 0 0 0 0 0 0 0 0 14 100 100 100 100 100 100 100
100 100 100 100 100 100 100 100 100 50 10 0 0 0 0 1 2 19 31 31 28 18 45 31 0 0 0 0 0 0 0 0 0 0 0 8 0 16 0 1 98 100 100 100 100 100 100
100 100 100 100 100 100 100 100 100 44 0 0 0 0 0 14 46 100 92 40 3 0 66 4 0 0 0 0 0 0 0 0 0 0 11 21 0 0 0 4 80 100 100 100 100 100 100
100 100 100 100 100 100 100 100 79 0 0 0 0 0 4 92 100 100 69 0 0 0 0 0 0 0 0 0 0 0 0 0 0 0 21 2 0 0 0 0 43 100 100 100 100 100 100
100 100 100 100 13 1 0 0 0 0 0 0 0 7 100 100 100 100 27 0 0 0 0 0 0 0 0 0 0 0 0 0 0 0 0 0 0 0 0 5 56 100 100 100 100 100 100
100 100 97 0 0 0 0 0 0 0 0 0 0 87 97 100 100 100 62 0 0 0 0 0 0 0 0 0 0 0 0 0 0 0 0 0 0 0 10 16 30 90 100 100 100 100 100
100 100 13 0 0 0 0 0 0 0 0 0 2 21 94 100 55 19 0 0 0 0 0 0 0 0 0 0 0 0 0 0 0 0 0 0 0 0 0 1 66 33 100 100 94 100 100
13 22 0 4 4 0 0 0 0 0 0 0 0 53 100 94 0 0 0 0 0 0 0 0 0 0 0 0 0 0 0 0 0 0 0 0 0 0 0 1 94 100 94 100 100 100 100
0 0 0 1 8 5 0 0 0 0 0 0 1 100 100 92 1 0 0 0 0 0 0 0 0 0 0 0 0 0 0 0 0 3 1 0 0 0 0 2 67 96 11 100 100 100 100
0 0 0 0 0 6 2 0 0 0 0 0 0 94 98 28 18 0 0 0 0 0 0 4 0 1 0 0 4 0 3 0 5 93 100 31 0 0 0 0 1 5 0 96 100 100 100
0 0 0 5 0 2 19 3 0 0 0 0 0 42 83 0 0 0 0 0 0 0 2 5 4 2 0 24 92 18 5 88 96 100 100 100 9 2 0 0 0 0 65 98 100 100 100
0 0 0 9 7 0 21 6 0 0 0 0 0 70 12 0 0 0 0 0 0 0 3 5 39 0 1 6 10 27 74 83 100 100 100 100 15 1 0 0 0 0 38 100 100 100 100
0 0 0 2 3 0 15 8 0 0 0 0 0 0 4 23 0 0 0 0 0 0 3 5 65 5 5 3 24 54 100 46 37 61 50 99 86 5 0 0 0 0 12 100 98 100 100
0 0 1 0 0 0 0 1 0 0 0 0 0 0 2 5 0 0 0 0 0 0 0 5 64 5 3 5 22 95 45 84 62 100 100 92 6 4 4 0 0 0 49 99 84 100 88
1 59 13 10 10 17 1 0 0 0 0 0 0 0 0 0 0 0 0 0 0 4 0 4 17 19 5 4 5 9 80 75 87 99 100 100 49 14 4 0 0 0 0 41 100 82 100
2 88 100 96 12 21 18 0 0 15 5 0 0 0 0 0 1 1 5 0 0 69 6 5 5 78 6 4 4 4 46 100 100 100 100 100 100 78 55 0 0 0 5 9 94 66 18
1 100 100 100 100 68 20 21 0 21 20 59 70 35 24 9 36 3 4 20 5 95 12 5 18 36 5 5 3 4 5 92 100 100 85 100 100 100 100 5 4 73 12 2 5 5 5
20 70 100 100 100 100 44 21 11 7 8 100 100 35 88 14 43 46 100 100 66 6 5 5 8 82 39 29 5 0 0 1 11 97 100 100 100 100 100 40 51 14 5 5 1 5 0
47 50 100 100 100 100 100 30 19 8 50 68 100 53 16 70 100 100 42 91 64 29 5 5 6 100 76 79 33 6 5 0 62 29 100 100 99 100 100 100 86 53 10 1 4 0 4
100 64 98 100 100 100 100 100 17 0 4 40 82 93 58 100 100 100 93 70 89 100 88 33 7 82 28 100 19 32 3 0 5 3 100 100 100 100 100 100 98 96 5 3 5 1 92
95 72 100 100 100 100 100 100 99 1 5 5 1 19 7 17 78 100 82 75 72 100 99 94 12 78 12 100 69 81 0 0 0 2 4 28 100 100 100 100 100 32 5 1 5 5 0
100 97 82 100 100 100 100 100 100 56 31 6 5 32 69 44 100 100 100 90 76 35 100 100 60 87 49 66 100 22 0 0 0 0 0 3 14 99 100 98 92 94 23 77 10 5 5
100 100 100 100 99 100 100 100 100 100 60 89 58 98 100 100 100 100 100 100 100 100 100 100 100 100 83 91 100 17 0 0 0 0 0 0 0 0 67 39 15 100 100 100 100 91 71
100 100 100 100 100 100 100 100 100 100 100 100 100 100 100 100 96 100 100 100 100 100 100 100 100 100 95 100 100 24 0 0 0 0 0 0 0 0 0 0 23 100 100 100 100 100 93
100 100 100 100 100 100 100 100 100 100 100 100 100 100 100 100 85 100 100 100 100 100 100 100 100 100 100 100 100 2 0 0 0 0 0 2 8 1 4 0 1 99 100 100 78 61 100
100 100 100 100 100 100 100 100 100 100 100 100 100 100 100 100 61 100 100 100 100 100 100 100 100 96 100 100 6 0 0 0 0 0 0 42 100 26 5 2 24 3 100 100 96 100 100
100 100 100 100 100 100 100 100 100 100 100 100 100 100 100 100 75 100 100 97 97 100 100 100 100 100 100 60 0 0 0 2 5 100 3 23 100 100 21 5 40 7 6 96 100 100 89

GFSGBSN_prec_cloud_120.txt.gz
Cloud_Cover
100 100 100 100 100 97 100 100 99 32 18 17 13 0 0 6 17 19 18 29 46 92 100 32 25 20 0 0 0 0 0 0 0 0 0 0 0 0 6 6 93 100 100 100 100 100 99
100 100 100 100 100 100 100 100 100 91 21 20 3 6 0 0 0 18 28 34 67 47 31 31 23 4 0 0 0 0 0 0 0 0 0 0 0 16 10 0 6 100 100 100 100 100 83
100 100 100 100 100 100 100 100 100 100 16 9 7 0 0 18 14 19 41 82 88 39 49 36 3 0 0 0 0 0 0 0 0 0 0 0 0 12 0 0 4 100 100 100 100 100 100
100 100 100 100 100 100 100 100 100 76 0 0 0 0 14 19 36 100 100 100 100 25 69 21 0 0 0 0 0 0 0 0 0 0 0 7 66 24 0 0 4 100 100 99 100 100 100
100 100 100 90 74 47 29 16 0 0 0 0 0 11 71 100 100 100 100 30 8 1 24 0 0 0 0 0 0 0 0 0 0 0 0 69 27 79 0 0 2 97 100 100 100 100 100
100 100 48 0 0 0 0 0 0 0 0 0 0 24 98 100 100 100 22 0 0 0 1 0 0 0 0 0 0 0 0 0 0 0 0 30 0 3 0 0 5 5 100 100 100 100 100
100 100 4 0 6 1 0 0 0 0 0 0 6 22 31 100 100 100 16 0 0 0 0 0 0 0 0 0 0 0 0 0 0 0 11 0 0 0 0 0 11 13 100 100 100 100 100
100 60 25 13 16 2 1 0 0 0 1 0 1 20 100 100 100 99 6 0 0 0 0 0 0 0 0 0 0 0 0 0 0 0 0 0 0 0 0 0 85 25 100 100 100 100 100
21 29 20 3 8 10 0 0 0 0 2 2 3 74 100 100 12 1 0 0 0 0 0 0 0 0 0 0 0 0 0 0 0 0 0 0 0 0 0 1 6 50 100 100 100 100 100
4 8 0 1 8 13 3 0 0 2 0 0 15 100 100 97 0 0 0 0 0 0 0 0 0 0 0 0 0 0 0 0 0 0 0 0 0 0 0 0 11 65 22 100 100 100 100
0 2 0 1 8 14 12 4 7 9 1 4 21 100 100 75 0 0 0 0 0 0 0 0 0 0 0 1 0 0 0 0 0 0 0 0 0 0 0 0 18 89 24 100 100 100 100
0 0 0 5 15 8 10 29 19 19 0 0 13 70 98 27 2 4 1 0 0 0 0 0 0 0 0 4 3 0 0 0 0 0 0 0 0 0 0 2 5 15 97 11 100 100 100
0 0 0 11 14 25 18 21 8 5 4 0 0 61 65 0 5 4 0 0 0 0 0 0 0 0 0 1 4 0 0 0 1 0 5 0 2 3 0 74 3 2 2 14 100 100 100
1 2 4 16 22 31 40 14 0 0 2 0 1 62 8 0 5 59 3 0 0 0 0 0 0 0 0 0 1 4 0 5 5 12 19 5 3 64 4 0 0 0 0 20 22 100 100
55 100 92 26 28 32 46 26 0 0 0 0 0 0 0 0 5 5 0 0 0 0 0 0 0 0 0 3 5 0 0 5 18 99 96 6 5 61 5 0 0 6 0 40 100 100 100
15 100 100 100 93 32 37 34 15 3 0 2 3 0 0 0 2 0 0 0 0 0 0 3 5 0 0 0 0 5 1 5 81 91 89 71 75 42 5 0 0 0 22 8 100 100 100
22 100 100 100 100 100 42 44 27 7 13 0 16 52 4 3 0 0 0 0 0 4 0 3 5 0 4 4 3 5 4 4 76 97 100 94 39 7 5 2 1 1 41 26 100 97 100
34 100 100 100 100 100 100 58 50 36 47 0 6 99 100 100 14 5 5 5 5 5 5 5 5 5 5 4 5 5 4 5 89 100 90 98 45 83 99 17 5 5 5 29 100 100 100
78 71 100 100 100 100 100 100 31 47 76 57 2 98 100 100 60 15 38 54 54 5 6 5 13 5 5 5 5 8 5 3 5 97 92 87 100 100 100 95 6 0 0 0 48 100 100
97 99 99 100 100 100 100 100 85 13 29 4 0 28 100 100 100 73 5 5 5 5 18 60 74 86 19 5 5 25 6 5 0 54 100 100 99 99 100 100 78 1 0 0 0 100 100
100 93 98 100 100 100 100 100 100 1 9 3 0 1 17 100 97 13 11 5 5 19 14 43 31 89 100 86 48 12 93 6 2 0 86 100 100 95 5 55 66 48 0 0 0 0 74
100 100 98 100 100 100 100 100 100 7 0 0 0 5 5 41 69 89 100 97 20 24 56 17 6 47 100 100 98 100 85 36 5 0 0 63 100 98 100 21 53 98 14 2 0 50 98
100 100 100 100 100 100 100 100 100 81 5 5 5 5 17 22 94 90 100 100 100 72 96 99 58 100 97 100 100 100 96 92 5 2 0 0 36 100 100 56 54 41 21 8 2 5 12
100 100 100 100 100 100 100 100 100 100 86 46 37 40 75 100 100 100 100 100 99 66 40 71 86 85 100 100 100 100 100 16 10 3 0 0 0 14 100 79 8 89 100 16 41 5 5
100 100 100 100 100 100 100 100 100 100 100 97 100 100 100 100 100 100 100 100 100 82 9 100 100 51 69 100 100 100 62 5 7 0 0 0 0 0 16 78 46 18 5 100 100 46 81
100 100 100 100 100 100 100 100 100 100 100 100 100 100 100 100 63 100 100 100 100 100 94 100 100 75 97 90 100 99 19 5 1 0 0 0 0 0 0 0 18 100 100 100 100 100 94
100 100 100 100 100 100 100 100 100 100 100 100 100 100 100 100 99 100 100 100 100 100 88 97 100 100 100 100 100 75 15 1 0 0 0 0 0 0 0 5 0 93 100 100 100 86 100
100 100 100 100 100 100 100 100 100 100 100 100 100 100 100 100 57 100 100 100 97 95 85 100 100 100 80 100 100 21 4 0 0 0 0 0 0 0 0 0 0 0 100 100 100 96 100
100 100 100 100 100 100 100 100 100 100 100 100 100 100 100 100 72 100 100 100 97 62 100 100 100 100 100 72 31 1 0 0 0 0 0 0 0 0 0 0 1 0 1 100 100 100 100

GFSGBSN_prec_cloud_123.txt.gz
Cloud_Cover
100 100 100 100 100 100 100 100 93 96 21 18 17 8 2 5 18 20 21 29 54 66 30 24 26 7 0 0 0 0 0 0 0 0 0 0 0 0 0 0 80 100 84 64 100 100 82
100 100 100 100 100 100 100 100 100 94 25 23 6 16 11 18 24 24 39 100 100 84 27 28 14 2 0 0 0 0 0 0 0 0 0 0 0 10 0 0 46 100 100 100 100 100 99
100 100 100 100 100 100 100 100 90 22 0 1 4 14 25 46 98 100 100 88 100 100 39 27 0 0 0 0 0 0 0 0 0 0 0 0 0 90 0 0 0 8 100 97 100 100 100
100 100 8 0 1 0 0 0 1 0 0 7 15 20 72 100 100 100 55 100 93 76 14 4 0 0 0 0 0 0 0 0 0 0 0 0 32 51 0 0 2 46 100 81 75 100 100
100 96 0 19 11 1 6 10 13 11 1 1 17 74 100 100 100 100 40 2 4 0 0 0 0 0 0 0 0 0 0 0 0 0 0 36 55 35 0 0 0 5 100 30 70 100 100
64 19 54 94 18 0 2 0 2 0 0 1 4 28 100 100 100 100 6 0 0 2 1 0 0 0 0 0 0 0 0 0 0 0 0 77 99 0 0 0 0 2 100 100 100 99 100
7 100 100 18 3 0 0 0 0 3 0 0 10 39 100 100 100 100 4 0 0 0 0 0 0 0 0 0 0 0 0 0 0 0 0 2 44 33 0 0 0 5 100 100 100 100 100
100 100 100 20 9 3 2 5 15 20 16 6 15 100 100 100 90 2 0 0 0 0 0 0 0 0 0 0 0 0 0 0 0 0 0 0 15 40 0 0 1 5 74 100 100 100 100
92 36 37 12 3 5 1 5 25 22 18 10 33 100 100 32 1 0 0 0 0 0 0 0 0 0 0 0 0 0 0 0 0 0 0 0 0 0 0 0 1 5 30 100 100 100 100
4 0 2 2 5 10 4 18 34 46 34 25 46 100 100 1 0 0 0 0 0 0 0 0 0 0 0 0 0 0 0 0 0 0 0 0 0 0 0 0 4 5 26 100 100 100 100
0 0 0 4 14 8 11 27 36 35 23 23 32 100 100 0 0 0 0 5 0 0 0 0 0 0 0 0 0 0 0 0 0 0 0 0 0 0 0 0 0 10 50 92 100 99 100
58 83 44 6 12 23 43 42 34 30 22 2 23 48 92 0 0 4 5 5 1 0 0 0 0 0 0 0 0 0 0 0 0 0 0 0 0 0 0 0 0 21 96 54 100 100 100
100 100 100 98 38 33 59 51 53 39 15 0 1 37 38 0 0 0 56 4 2 0 0 0 0 0 0 0 0 0 0 0 0 0 0 0 0 0 0 0 1 4 8 10 100 100 100
100 100 100 100 100 100 99 65 79 45 13 2 26 20 2 0 1 5 64 7 0 0 0 0 0 0 0 0 0 0 0 0 0 0 0 0 0 0 0 0 0 0 0 0 100 100 100
89 100 100 100 100 100 100 100 100 50 44 42 1 0 4 0 0 0 0 0 0 0 0 0 0 0 0 2 0 0 0 0 0 0 0 0 0 1 3 4 4 0 0 3 96 100 100
25 100 100 100 100 100 100 100 100 57 71 54 0 0 5 5 5 5 5 3 0 0 0 0 0 0 0 1 3 0 0 0 0 2 5 3 0 5 5 5 0 0 0 5 98 100 100
91 82 100 100 100 100 100 100 100 39 77 2 0 0 0 89 22 5 62 45 5 4 4 5 5 5 4 5 5 4 0 4 0 0 5 5 40 12 58 81 74 2 5 9 68 75 100
100 100 92 100 100 100 100 100 100 2 67 0 0 0 0 5 36 75 5 9 5 5 5 1 0 5 5 5 37 25 5 3 5 0 0 5 5 10 15 89 89 55 41 84 100 100 100
100 100 88 54 100 100 100 100 100 38 88 50 0 0 0 0 19 20 5 21 7 5 5 5 4 5 5 5 10 100 17 5 0 5 0 2 3 15 4 79 77 5 5 6 100 77 100
100 100 100 82 100 100 100 100 100 68 64 3 0 0 0 1 1 5 5 5 3 5 17 20 5 5 5 5 5 80 99 12 5 0 0 92 19 5 6 5 100 100 3 3 82 80 100
100 100 100 100 100 100 98 100 100 68 94 69 26 0 0 5 5 5 8 5 4 5 5 5 6 12 5 5 10 100 98 95 46 4 0 0 4 5 5 36 35 100 26 4 5 100 100
100 100 100 100 100 100 100 100 100 100 100 100 6 30 8 5 22 5 47 17 24 7 12 18 5 7 9 6 55 100 100 73 37 14 5 3 0 5 43 12 65 63 5 5 100 100 100
100 100 100 100 100 100 100 100 100 100 100 100 36 39 48 35 100 55 100 100 100 35 49 22 15 58 79 75 100 100 100 100 98 6 5 5 0 0 5 1 5 5 100 42 48 97 100
100 100 100 100 100 100 100 100 100 100 100 100 62 98 38 70 100 100 100 100 100 98 99 54 67 68 98 100 100 83 98 91 71 30 3 2 0 0 0 5 0 1 72 100 54 56 14
100 100 100 100 100 100 100 100 100 100 100 100 100 91 88 91 100 100 100 100 100 94 94 96 96 12 87 99 100 100 91 17 5 5 5 0 0 0 0 0 1 6 50 100 100 98 46
100 100 100 100 100 100 100 92 100 100 100 100 100 100 96 100 100 100 100 100 100 100 91 100 94 9 62 100 100 100 97 11 9 5 0 0 0 0 0 0 0 23 86 8 100 5 89
100 100 100 100 100 100 100 100 100 100 100 100 100 100 100 100 82 100 100 100 100 100 81 100 79 11 61 97 100 99 64 5 58 4 0 0 0 0 0 0 0 0 24 100 9 85 100
100 100 100 100 100 100 100 100 100 100 100 100 100 99 100 100 78 100 100 100 100 100 96 100 91 59 49 87 91 98 70 5 3 0 0 0 0 0 0 0 0 0 0 48 100 100 100
100 100 100 100 100 100 100 100 100 100 100 100 100 100 100 100 74 100 100 100 100 100 100 100 100 100 61 86 82 36 5 5 1 0 0 0 0 0 0 0 0 0 0 0 92 100 100

GFSGBSN_prec_cloud_129.txt.gz
Cloud_Cover
23 0 4 4 2 4 3 4 10 5 11 4 5 3 9 23 22 70 100 21 31 12 6 12 0 0 1 0 0 0 0 0 0 0 0 0 0 75 100 76 78 100 97 89 94 99 100
0 56 90 64 35 25 22 22 22 11 12 1 8 20 2 0 18 99 100 96 28 27 3 1 0 28 0 0 0 0 0 0 0 0 0 0 79 63 72 98 86 13 97 59 61 100 100
19 83 85 23 14 17 14 20 12 2 0 0 0 17 18 21 88 100 79 18 23 20 1 0 0 0 0 0 0 0 0 0 0 0 0 0 24 0 17 78 0 0 98 98 57 100 100
100 61 54 18 7 1 8 18 12 3 0 0 0 20 30 92 87 99 50 0 0 19 0 0 2 0 0 0 0 0 0 0 0 0 0 0 0 0 18 85 0 92 74 94 100 100 100
100 100 100 85 24 0 0 13 16 3 0 0 1 53 100 100 100 28 0 0 0 0 0 1 6 0 0 0 0 0 0 0 0 0 0 0 0 1 1 20 100 39 73 97 100 94 100
86 90 100 100 100 12 13 2 2 0 0 0 27 100 100 100 35 0 0 6 1 31 19 0 0 0 0 0 0 0 0 0 0 0 0 0 0 1 18 72 100 100 100 99 100 100 100
69 50 36 100 81 92 100 84 39 16 4 3 51 100 99 0 0 0 14 0 0 0 0 0 0 0 0 0 0 0 0 0 0 0 0 0 0 5 96 100 42 9 100 100 100 17 99
100 100 100 98 81 100 100 100 100 82 42 29 100 99 46 0 0 1 12 0 0 0 0 0 0 0 0 0 0 0 0 0 0 0 0 0 1 19 65 14 4 62 94 92 100 66 99
100 100 100 100 100 100 100 100 100 100 99 52 96 92 0 0 8 21 0 0 0 0 0 0 0 0 0 0 0 0 0 0 0 0 0 0 31 70 1 3 4 6 20 95 88 100 87
100 100 100 100 100 100 100 100 100 100 100 100 98 22 5 1 43 0 0 0 0 0 3 0 0 0 0 0 0 0 0 0 0 0 0 0 75 1 0 5 66 94 53 77 9 99 80
100 100 100 100 100 100 100 100 100 100 100 100 100 100 99 82 0 0 0 0 0 0 63 0 0 0 0 0 0 0 0 0 0 0 0 36 22 0 0 5 81 69 17 52 4 97 100
8 98 100 100 100 100 100 100 100 100 100 96 99 100 33 28 0 0 0 0 0 2 30 0 0 0 0 0 0 0 0 0 0 0 0 43 2 0 2 3 3 19 11 5 4 50 91
31 0 18 60 95 100 100 100 100 100 62 35 63 57 46 0 0 0 0 0 18 5 1 0 1 0 2 3 1 0 0 0 2 2 1 0 0 0 0 0 0 4 8 87 52 94 96
31 5 5 5 5 74 100 100 100 95 16 0 0 45 1 0 0 0 2 1 8 0 0 0 0 0 44 0 2 0 0 5 0 0 56 24 51 0 0 0 92 13 82 99 100 94 96
73 100 94 82 27 65 100 100 100 67 5 4 29 0 0 0 0 0 0 14 8 6 4 0 0 0 7 2 2 3 1 5 4 1 45 100 72 11 4 0 1 94 73 100 100 58 100
100 100 100 100 100 100 97 98 94 38 5 5 5 2 0 0 0 0 0 1 26 72 5 8 4 2 5 5 5 35 48 9 50 0 1 85 44 66 11 2 0 14 65 50 5 61 100
100 100 100 100 100 100 100 100 100 99 86 12 5 5 5 0 0 0 2 4 0 82 5 2 4 4 0 5 2 55 100 20 0 4 0 11 34 73 94 16 55 8 100 93 52 96 39
100 100 100 100 100 100 100 100 100 100 100 100 95 21 5 5 4 4 5 0 0 0 42 5 5 0 5 13 9 5 61 6 3 0 5 97 70 100 100 75 37 91 2 81 37 100 48
100 65 33 58 32 27 52 83 76 89 100 100 100 80 37 8 5 11 16 5 0 0 0 4 4 0 1 5 4 6 5 2 0 2 36 32 6 64 93 100 100 100 100 100 82 82 94
98 100 100 100 54 65 95 77 5 36 98 100 100 100 99 100 14 26 48 81 4 0 3 0 4 1 5 11 5 27 5 9 0 5 1 5 4 83 98 48 100 100 100 100 100 76 98
100 100 100 90 66 93 99 100 22 6 24 94 98 100 100 100 100 44 18 100 5 14 5 5 5 5 10 100 40 5 2 3 4 5 5 5 5 91 100 84 99 100 100 100 100 100 100
100 100 100 100 99 99 100 96 41 17 13 37 56 100 100 100 100 100 57 100 92 5 64 28 100 99 45 100 5 5 5 5 4 71 5 5 83 5 6 100 100 100 100 100 100 100 100
100 100 100 96 78 98 100 100 100 100 24 13 11 86 100 100 100 100 98 92 89 46 13 79 100 100 90 32 7 5 5 5 0 0 1 5 14 90 100 80 17 98 100 91 93 100 100
100 100 87 86 62 95 50 100 100 95 56 6 5 30 100 100 100 100 100 100 100 99 55 85 100 99 72 83 17 5 5 5 4 2 0 0 3 5 5 34 100 100 16 1 44 64 70
100 100 97 96 69 100 99 100 100 92 6 9 33 68 100 100 100 100 100 100 100 84 100 100 100 100 98 100 71 5 5 5 5 5 5 4 0 2 4 20 51 97 60 23 4 4 1
100 100 88 100 100 100 100 100 98 70 56 31 76 100 100 100 100 100 100 100 100 100 100 100 100 100 100 100 97 92 78 100 95 100 5 5 3 0 5 4 77 100 39 0 0 0 0
100 100 100 100 100 100 100 100 100 91 63 42 19 97 100 100 100 100 100 100 100 100 100 100 100 100 100 96 100 100 100 82 5 5 100 63 7 5 4 23 12 99 34 0 0 1 0
100 100 100 100 100 100 100 100 100 93 97 58 88 97 100 100 98 100 100 100 100 100 100 100 100 100 76 100 100 100 99 90 14 5 7 5 5 4 37 3 30 18 1 2 0 0 1
100 100 100 100 100 100 100 100 100 100 100 100 100 100 100 100 93 100 100 100 100 100 100 100 100 100 100 100 100 100 100 92 64 50 42 5 5 2 38 100 8 2 0 0 0 0 0

GFSGBSN_prec_cloud_132.txt.gz
Cloud_Cover
86 100 79 97 71 20 18 18 24 2 5 6 0 0 4 1 7 25 86 100 36 21 0 0 6 0 0 0 0 0 0 0 0 0 0 0 0 66 17 76 97 100 38 92 84 99 100
100 76 44 96 38 38 15 19 20 7 19 8 0 0 21 22 28 36 81 86 18 15 1 0 1 6 0 0 0 0 0 0 0 0 0 0 81 97 11 100 89 100 78 82 100 65 75
100 99 82 29 11 16 13 20 12 19 4 2 1 15 26 34 36 28 20 20 1 0 0 0 8 0 0 0 0 0 0 0 0 0 0 2 100 65 98 35 100 100 68 79 8 99 100
100 100 100 100 85 52 16 18 15 10 0 0 14 45 100 100 29 17 0 0 0 0 0 0 4 0 0 0 0 0 0 0 0 0 0 0 1 3 4 94 81 83 20 100 71 79 97
28 49 100 100 100 100 94 63 58 1 0 0 29 100 100 100 6 0 0 0 0 0 0 1 0 0 0 0 0 0 0 0 0 0 0 0 0 0 17 13 77 100 98 100 100 61 88
100 100 100 100 100 100 100 100 100 88 22 23 100 100 95 1 0 0 0 0 0 0 17 0 0 0 0 0 0 0 0 0 0 0 0 0 0 2 1 69 81 94 100 99 100 100 38
100 100 100 100 100 100 100 100 100 100 100 100 100 83 2 0 0 0 8 0 0 0 0 0 0 0 0 0 0 0 0 0 0 0 0 0 2 5 93 100 17 67 11 99 100 100 97
100 100 100 100 100 100 100 100 100 100 100 100 100 92 6 0 0 1 9 0 0 0 0 0 0 0 0 0 0 0 0 0 0 0 0 2 1 30 92 46 36 75 97 31 100 87 66
100 100 100 100 100 100 100 100 100 100 100 100 100 100 77 6 12 38 0 0 0 0 0 0 0 0 0 0 0 0 0 0 0 0 0 6 19 9 5 45 2 5 58 9 84 50 25
13 97 100 100 100 100 100 100 100 100 100 13 27 100 100 80 13 0 0 0 0 0 0 0 0 0 0 0 0 0 0 0 0 0 0 0 2 47 59 15 11 4 11 23 4 74 33
0 0 0 0 3 73 100 100 100 100 76 0 4 55 98 95 0 0 0 0 0 0 61 0 0 0 0 0 0 0 0 0 0 0 0 0 35 1 0 1 2 45 1 4 15 100 74
0 7 19 36 28 17 100 100 100 100 36 0 0 0 54 28 0 0 0 0 0 2 89 0 0 0 0 0 0 0 0 0 0 0 0 3 4 2 0 13 1 9 23 14 11 88 100
56 100 100 100 100 88 100 61 10 7 5 5 5 5 36 0 0 0 0 0 4 51 2 2 2 0 3 1 0 0 0 0 1 0 1 0 0 0 0 2 0 0 2 52 25 74 100
100 100 100 100 99 93 64 67 68 16 22 5 5 43 5 5 1 0 0 0 4 29 0 0 0 0 89 2 3 0 0 8 0 0 89 96 86 2 0 0 1 72 87 47 86 99 100
100 100 100 100 100 100 100 100 100 100 92 68 32 12 5 5 5 4 0 0 34 33 5 5 5 0 85 1 3 0 2 78 43 0 2 73 100 42 2 0 0 18 90 45 100 100 91
100 100 100 100 100 100 100 98 100 100 100 100 100 88 23 5 5 5 5 0 3 0 8 10 5 30 99 99 14 56 98 3 1 0 0 24 81 56 77 8 0 5 36 95 54 100 100
64 61 43 68 53 28 31 19 19 48 69 46 83 91 100 100 85 6 5 5 5 0 0 0 9 19 5 67 2 97 100 17 0 0 0 0 0 98 16 2 58 70 0 4 99 100 89
98 100 74 100 41 5 5 5 5 5 10 9 53 58 100 100 100 84 5 25 5 5 3 0 1 0 8 71 4 1 32 98 0 0 0 4 5 30 95 83 49 14 74 76 95 16 98
92 99 100 100 89 85 33 35 88 82 98 54 59 9 64 84 100 100 100 100 39 11 70 0 0 0 1 4 2 49 98 50 0 0 0 0 4 69 95 77 28 12 100 100 76 4 38
100 100 100 100 100 96 62 88 100 89 100 100 100 74 9 56 100 100 100 100 100 53 7 18 4 2 0 0 2 63 95 83 4 5 0 0 0 4 89 100 54 94 100 100 100 58 97
100 100 100 100 100 99 100 99 100 100 100 100 100 100 20 95 88 52 100 100 100 77 88 97 6 5 4 75 18 53 75 5 5 1 5 0 0 1 40 76 15 98 21 100 100 100 44
100 100 100 100 100 100 100 100 98 100 100 98 100 100 100 79 27 17 99 100 100 100 100 94 99 8 8 100 100 100 63 5 5 21 5 2 5 33 0 2 5 100 82 95 100 100 100
100 100 100 100 100 100 100 78 100 100 100 100 100 91 100 98 100 65 100 100 100 100 100 94 100 97 13 100 100 64 27 5 5 5 7 4 5 4 10 98 100 5 98 100 100 100 100
100 100 100 100 100 100 95 100 100 100 100 100 77 62 100 100 49 89 95 100 100 100 100 99 100 100 68 83 100 84 59 24 5 5 5 0 0 1 1 1 19 95 84 100 100 100 13
100 100 100 100 82 99 100 100 100 84 100 100 6 8 12 20 12 99 100 100 100 100 100 100 100 100 97 100 97 100 97 8 5 65 5 3 0 5 0 3 2 7 99 100 100 100 13
100 100 100 76 66 100 100 100 100 91 100 77 5 74 90 23 100 34 96 100 100 100 100 100 100 100 100 100 98 100 100 100 28 70 80 5 1 0 1 1 5 99 63 5 92 100 5
100 100 100 88 100 100 100 100 100 100 94 12 12 10 18 5 83 38 97 100 100 100 100 100 100 100 100 100 100 100 100 72 91 86 94 14 8 3 4 4 2 8 5 0 0 2 16
100 100 100 100 100 98 100 100 100 100 95 35 38 62 40 43 84 94 100 100 100 100 100 98 98 100 100 100 100 100 100 93 36 44 16 10 57 74 39 11 29 4 2 0 0 0 0
100 100 100 98 100 100 100 100 100 100 96 77 48 100 80 100 100 100 100 100 100 100 100 100 100 100 100 100 100 100 100 96 88 99 100 25 5 28 11 83 4 43 13 4 0 0 0

GFSGBSN_prec_cloud_135.txt.gz
Cloud_Cover
94 100 100 100 99 6 58 24 17 12 2 21 17 5 3 44 22 28 31 9 61 43 33 24 18 2 0 0 0 0 0 0 0 0 0 0 0 1 100 25 100 100 100 100 100 79 100
100 100 100 100 98 50 55 43 16 0 0 4 0 0 14 77 100 86 30 0 3 28 20 27 5 0 0 0 0 0 0 0 0 0 0 0 2 94 75 57 100 89 100 100 82 74 92
100 100 100 100 100 100 100 90 28 6 7 9 5 88 100 100 100 66 32 0 0 0 6 5 0 0 0 0 0 0 0 0 0 0 0 0 100 100 100 66 86 94 100 100 100 80 100
100 100 100 100 100 100 100 100 100 100 87 33 99 100 100 100 63 13 0 0 0 0 0 0 0 0 0 0 0 0 0 0 0 0 0 0 14 100 95 29 14 100 100 76 100 59 100
100 100 100 100 100 100 100 100 100 100 100 100 100 100 100 20 2 0 0 0 0 0 0 0 0 0 0 0 0 0 0 0 0 0 0 0 0 1 0 5 24 100 96 95 100 32 37
100 100 100 100 100 100 100 100 100 100 100 100 100 100 100 31 4 0 0 0 0 0 0 0 0 0 0 0 0 0 0 0 0 0 0 0 0 0 1 20 11 100 99 71 100 99 99
100 100 100 100 100 100 100 100 100 100 100 100 99 100 100 100 57 0 6 0 0 0 0 0 0 0 0 0 0 0 0 0 0 0 0 0 0 0 13 71 88 90 24 5 100 100 100
50 95 94 94 100 100 100 100 100 100 100 28 16 43 100 100 99 42 10 0 0 0 0 0 0 0 0 0 0 0 0 0 0 0 0 0 0 2 87 68 79 100 35 12 64 100 98
0 0 2 44 48 100 100 100 100 100 100 51 29 13 53 63 55 36 0 0 0 0 0 0 0 0 0 0 0 0 0 0 0 0 0 0 3 34 68 23 12 4 97 86 66 100 100
9 56 98 100 100 100 100 92 30 1 0 0 22 0 0 80 1 0 0 0 0 0 0 0 0 0 0 0 0 0 0 0 0 0 0 0 3 26 79 3 1 8 63 23 4 100 100
90 100 100 100 100 100 5 5 5 6 5 5 5 5 4 95 0 0 0 0 0 0 0 0 0 0 0 0 0 0 0 0 0 0 0 0 0 0 2 3 0 35 43 9 23 0 100
100 100 100 100 33 11 5 5 20 37 28 5 5 5 45 19 5 0 0 0 0 1 2 0 0 0 0 0 0 0 0 0 0 0 0 0 0 1 0 0 0 1 3 39 2 2 99
100 100 100 100 100 100 98 87 53 53 30 5 5 5 71 5 4 2 0 0 0 0 0 2 0 0 2 5 0 0 0 0 0 0 0 0 2 0 0 0 0 0 0 0 3 98 80
100 100 100 100 100 100 100 100 100 100 96 100 100 98 83 57 5 3 0 0 0 3 5 0 0 0 35 2 0 0 0 0 0 0 4 43 69 24 0 0 0 0 19 92 2 22 88
98 90 60 25 34 5 13 26 6 8 9 10 5 6 50 100 100 100 26 6 5 2 41 0 2 0 4 5 0 0 0 24 12 0 0 4 18 68 34 0 0 0 71 84 100 30 62
5 7 5 76 74 16 8 15 12 10 6 5 5 5 13 56 97 100 100 100 14 5 0 0 1 43 100 97 5 0 65 15 10 0 0 0 4 20 83 14 2 0 0 3 72 5 72
89 97 99 100 100 92 100 76 86 86 100 33 17 30 100 6 6 90 100 86 98 6 5 1 0 4 12 100 98 31 71 84 71 5 0 0 0 2 3 58 12 3 3 0 0 23 95
89 55 100 100 100 100 100 100 100 96 37 60 72 6 100 100 66 16 99 18 100 100 97 5 0 0 0 16 7 0 85 16 5 0 0 0 0 0 4 1 39 4 0 5 5 49 100
84 100 100 100 100 100 100 100 100 100 100 80 64 83 14 99 100 100 72 8 79 100 99 100 35 5 0 3 0 0 97 5 5 28 3 2 0 0 8 12 5 79 1 2 0 49 100
100 100 100 100 100 100 100 100 100 100 100 94 92 43 62 89 100 100 85 13 60 97 41 100 100 5 5 0 0 0 24 72 82 65 5 5 0 1 3 16 19 61 40 76 28 17 100
100 58 85 100 100 100 100 100 100 100 100 96 98 90 47 100 100 100 100 98 86 80 86 87 100 99 38 34 5 7 69 93 64 5 4 5 2 0 1 60 4 4 1 79 96 5 100
100 100 100 100 100 100 100 100 100 100 100 54 16 100 100 100 100 100 100 100 100 98 100 100 100 100 68 21 8 13 100 100 33 53 5 10 5 0 0 2 13 2 72 15 90 43 5
100 100 100 100 100 100 100 100 100 100 100 38 39 100 100 100 100 100 100 100 100 94 98 100 98 100 100 94 92 33 28 100 92 7 5 22 6 0 0 12 2 45 93 83 86 100 87
99 100 100 100 100 100 100 100 100 100 89 73 98 100 100 100 100 88 100 100 99 19 14 79 95 100 100 96 100 100 58 7 90 73 5 5 1 5 0 0 0 5 100 100 86 98 18
100 92 100 100 100 100 100 100 100 98 97 82 80 99 9 100 100 75 19 100 100 100 50 100 100 100 98 100 100 100 95 6 39 89 5 5 5 5 1 0 0 1 92 68 5 4 75
100 100 100 100 100 100 100 100 100 100 100 96 12 36 100 100 100 100 100 89 96 96 95 100 100 99 99 100 100 100 100 58 66 100 22 5 5 5 5 0 0 5 13 98 36 6 100
100 100 100 100 100 100 100 100 100 100 100 54 12 18 98 100 72 98 29 8 44 85 100 100 100 100 100 100 100 100 100 49 100 94 100 49 5 5 5 1 0 4 5 5 1 1 16
100 100 100 100 100 100 100 100 100 100 100 100 98 63 85 100 37 98 13 5 86 100 100 96 100 100 100 70 100 100 100 84 90 94 99 85 37 15 82 21 73 24 17 10 0 0 0
100 98 100 100 100 100 100 100 100 100 100 85 100 96 99 91 19 25 89 69 100 100 96 100 100 100 100 97 100 100 76 100 98 100 32 75 39 5 5 34 5 0 0 0 0 0 3

GFSGBSN_prec_cloud_138.txt.gz
Cloud_Cover
100 100 100 100 100 100 100 100 87 59 42 31 38 83 100 100 100 100 100 100 34 72 26 28 20 0 0 0 0 0 0 0 0 0 0 6 2 1 55 100 98 100 100 100 100 100 100
100 100 100 100 100 100 100 100 100 100 100 100 100 100 100 100 100 100 100 22 20 24 22 20 10 2 0 0 0 0 0 0 0 0 0 0 2 33 100 69 94 100 100 100 100 100 100
100 100 100 100 100 100 100 100 100 100 100 100 100 100 100 100 91 31 30 0 0 7 0 7 0 0 0 0 0 0 0 0 0 0 0 0 2 17 100 100 55 100 100 100 100 100 100
100 100 100 100 100 100 100 100 100 100 100 100 100 100 100 100 99 52 8 0 0 0 0 0 0 0 0 0 0 0 0 0 0 0 0 0 6 84 78 4 57 100 100 85 100 100 100
100 100 100 100 100 100 100 100 100 100 100 99 19 34 46 100 100 70 6 2 0 0 0 0 0 0 0 0 0 0 0 0 0 0 0 0 0 98 3 4 98 100 100 89 92 100 100
93 94 95 85 100 100 100 100 100 100 100 100 100 99 100 100 100 96 8 0 0 0 0 0 0 0 0 0 0 0 0 0 0 0 0 0 0 0 23 1 10 94 98 100 100 100 100
19 61 100 100 100 100 100 100 64 21 1 4 96 100 86 96 100 100 9 0 0 0 0 0 0 0 0 0 0 0 0 0 0 0 0 0 0 35 100 6 5 26 98 100 100 100 100
100 100 100 100 100 72 4 4 7 30 33 21 29 41 46 17 18 100 39 0 0 0 0 0 0 0 0 0 0 0 0 0 0 0 0 0 1 18 26 30 75 5 16 100 100 100 80
100 100 100 100 100 3 2 18 34 56 65 53 27 18 17 4 2 39 0 0 0 0 0 0 0 0 0 0 0 0 0 0 0 0 0 0 4 5 5 27 94 7 5 6 100 18 87
100 100 100 37 56 75 74 53 42 43 56 49 22 5 7 85 5 5 3 0 0 0 0 0 0 0 0 0 0 0 0 0 0 0 0 0 1 5 59 14 4 97 29 82 29 5 62
100 100 88 44 94 100 99 98 40 22 38 27 5 5 8 89 5 5 4 0 0 0 0 0 0 0 0 0 0 0 0 0 0 0 0 0 0 0 5 3 0 4 5 5 27 5 89
100 100 100 100 100 100 95 98 100 94 82 99 100 100 98 71 24 5 5 0 0 0 0 0 0 0 0 0 0 0 0 0 0 0 0 0 0 0 0 0 0 6 73 97 58 4 16
98 80 48 50 100 14 41 36 5 5 6 18 5 5 70 5 6 95 5 5 9 2 0 0 0 0 0 0 0 0 0 0 0 0 0 0 4 3 4 0 0 0 0 0 4 91 19
6 5 14 39 100 66 56 27 40 14 5 5 5 5 6 5 5 5 5 5 5 100 5 0 0 0 0 0 0 0 0 0 0 0 0 0 0 0 0 0 0 0 0 0 0 2 0
5 12 70 100 100 100 100 100 100 100 100 100 30 5 11 5 5 5 5 5 5 10 6 4 0 0 9 4 5 3 0 0 0 0 0 1 12 0 0 1 0 0 0 0 0 0 0
15 43 36 99 100 100 100 100 100 100 100 100 100 96 41 52 31 6 5 5 5 5 7 5 2 0 5 11 27 9 3 0 3 2 0 0 1 4 62 62 5 0 0 0 0 0 0
97 100 99 95 100 100 92 100 100 100 100 100 100 58 98 5 56 87 67 5 69 5 77 36 76 9 5 5 84 5 5 4 4 1 0 0 0 2 5 9 9 2 0 0 0 0 0
100 100 100 100 100 100 58 100 100 100 100 100 100 100 100 100 100 10 26 30 84 94 58 38 100 100 6 6 5 36 5 5 5 5 5 0 0 0 0 0 0 5 5 0 0 0 0
100 100 100 63 96 100 100 100 100 100 100 100 100 100 100 100 100 99 49 13 36 98 100 92 59 97 100 11 2 5 3 0 4 5 2 0 0 0 0 0 0 0 0 0 2 0 0
90 100 100 100 100 100 90 94 100 100 100 100 100 100 100 100 16 97 100 100 100 100 100 100 87 9 92 29 2 1 5 0 0 0 0 0 0 0 0 2 2 3 0 1 5 1 0
100 100 100 100 100 89 39 98 79 97 100 100 100 100 6 5 2 84 100 100 100 100 95 98 15 15 28 13 5 2 5 5 1 5 3 45 0 0 0 27 5 0 0 0 0 0 2
100 100 69 100 100 11 85 66 100 100 100 100 100 100 5 26 5 63 100 100 100 97 94 57 100 100 100 54 98 7 5 5 15 36 100 22 0 0 0 1 5 0 0 0 3 5 5
100 99 61 71 69 100 97 100 100 100 100 100 100 93 21 53 71 10 100 100 100 100 99 100 81 100 84 11 100 100 19 39 58 100 100 96 4 0 0 0 0 0 3 4 66 98 15
100 100 100 100 100 100 100 100 100 100 100 82 100 52 8 100 54 81 28 100 100 100 100 100 100 96 99 64 100 100 100 85 16 8 72 58 51 6 0 0 0 35 7 5 5 1 20
98 100 100 100 100 100 100 100 100 100 100 100 100 38 11 94 100 38 71 100 99 100 100 100 97 96 89 94 94 100 100 100 85 45 93 99 82 54 4 0 0 1 19 0 4 0 0
100 100 100 100 100 100 100 100 100 100 100 100 76 5 63 100 34 5 100 100 100 100 100 100 100 100 100 99 59 99 100 100 51 100 100 39 97 29 4 0 0 0 0 10 98 63 5
100 91 100 100 100 100 100 100 100 100 100 98 23 96 100 100 3 60 100 100 100 100 100 100 100 86 100 100 62 100 100 95 96 100 98 85 88 40 5 5 1 1 0 8 44 3 0
97 99 100 100 100 100 100 100 100 100 100 82 22 100 100 100 20 98 100 100 100 62 9 81 99 100 100 100 100 100 100 100 100 100 95 77 98 18 5 76 32 2 5 0 0 0 0
96 100 78 48 98 100 100 100 100 100 100 100 60 99 100 100 47 100 100 100 40 82 99 70 51 77 27 96 100 100 100 100 100 100 99 100 90 100 20 90 6 5 5 5 4 0 0